[[{"header":{"parameterUnit":"m.s-1","parameterCategory":1,"la1":30.6,"la2":29.2853,"lo1":-89.7004,"lo2":-87.6739,"dy":0.0162,"dx":0.0183,"nx":112,"ny":82,"refTime":"2025-03-15T18:00:00:Z","depth":0,"parameterNumber":2,"parameterNumberName":"U-component_of_WINDS"},"data":[0.0,0.0,0.0,0.0,0.0,0.0,0.0,0.0,0.0,0.0,0.0,0.0,0.0,0.0,0.0,0.0,0.0,0.0,0.0,0.0,0.0,0.0,0.0,0.0,0.0,0.0,0.0,0.0,0.0,0.0,0.0,0.0,0.0,0.0,0.0,0.0,0.0,0.0,0.0,0.0,0.0,0.0,0.0,0.0,0.0,0.0,0.0,0.0,0.0,0.0,0.0,0.0,0.0,0.0,0.0,0.0,0.0,0.0,0.0,0.0,0.0,0.0,0.0,0.0,0.0,0.0,0.0,0.0,0.0,0.0,0.0,0.0,0.0,0.0,0.0,0.0,0.0,0.0,0.0,0.0,0.0,0.0,0.0,0.0,0.0,0.0,0.0,0.0,0.0,0.0,-8.5363,-9.5655,-10.7,-11.4084,-11.4708,-11.2396,-10.6523,-9.6465,0.0,0.0,0.0,0.0,0.0,0.0,0.0,0.0,0.0,0.0,0.0,0.0,0.0,0.0,0.0,0.0,0.0,0.0,0.0,0.0,0.0,0.0,0.0,0.0,0.0,0.0,0.0,0.0,0.0,0.0,0.0,0.0,0.0,0.0,0.0,0.0,0.0,0.0,0.0,0.0,0.0,0.0,0.0,0.0,0.0,0.0,0.0,0.0,0.0,0.0,0.0,0.0,0.0,0.0,0.0,0.0,0.0,0.0,0.0,0.0,0.0,0.0,0.0,0.0,0.0,0.0,0.0,0.0,0.0,0.0,0.0,0.0,0.0,0.0,0.0,0.0,0.0,0.0,0.0,0.0,0.0,0.0,0.0,0.0,0.0,0.0,0.0,0.0,0.0,0.0,0.0,0.0,0.0,0.0,0.0,0.0,0.0,0.0,0.0,0.0,0.0,0.0,0.0,0.0,-8.7841,-10.5656,-11.1808,-11.4708,-11.4818,-11.1295,-10.5789,-9.8007,0.0,0.0,0.0,0.0,0.0,0.0,0.0,0.0,0.0,0.0,0.0,0.0,0.0,0.0,0.0,0.0,0.0,0.0,0.0,0.0,0.0,0.0,0.0,0.0,0.0,0.0,0.0,0.0,0.0,0.0,0.0,0.0,0.0,0.0,0.0,0.0,0.0,0.0,0.0,0.0,0.0,0.0,0.0,0.0,0.0,0.0,0.0,0.0,0.0,0.0,0.0,0.0,0.0,0.0,0.0,0.0,0.0,0.0,0.0,0.0,0.0,0.0,0.0,0.0,0.0,0.0,0.0,0.0,0.0,0.0,0.0,0.0,0.0,0.0,0.0,0.0,0.0,0.0,0.0,0.0,0.0,0.0,0.0,0.0,0.0,0.0,0.0,0.0,0.0,0.0,0.0,0.0,0.0,0.0,0.0,0.0,0.0,0.0,0.0,0.0,0.0,0.0,0.0,-8.5129,-9.3935,-10.8969,-11.3093,-11.5002,-11.5406,-11.1772,-10.6082,-9.8374,-9.0959,0.0,0.0,0.0,0.0,0.0,0.0,0.0,0.0,0.0,0.0,0.0,0.0,0.0,0.0,0.0,0.0,0.0,0.0,0.0,0.0,0.0,0.0,0.0,0.0,0.0,0.0,0.0,0.0,0.0,0.0,0.0,0.0,0.0,0.0,0.0,0.0,0.0,0.0,0.0,0.0,0.0,0.0,0.0,0.0,0.0,0.0,0.0,0.0,0.0,0.0,0.0,0.0,0.0,0.0,0.0,0.0,0.0,0.0,0.0,0.0,0.0,0.0,0.0,0.0,0.0,0.0,0.0,0.0,0.0,0.0,0.0,0.0,0.0,0.0,0.0,0.0,0.0,0.0,0.0,0.0,0.0,0.0,0.0,0.0,0.0,0.0,0.0,0.0,0.0,0.0,0.0,0.0,0.0,0.0,0.0,0.0,0.0,0.0,0.0,0.0,0.0,0.0,-9.3905,-10.12,-11.1001,-11.3901,-11.5296,-11.5883,-11.1295,-10.5275,-9.8337,-8.9197,0.0,0.0,0.0,0.0,0.0,0.0,0.0,0.0,0.0,0.0,0.0,0.0,0.0,0.0,0.0,0.0,0.0,0.0,0.0,0.0,0.0,0.0,0.0,0.0,0.0,0.0,0.0,0.0,0.0,0.0,0.0,0.0,0.0,0.0,0.0,0.0,0.0,0.0,0.0,0.0,0.0,0.0,0.0,0.0,0.0,0.0,0.0,0.0,0.0,0.0,0.0,0.0,0.0,0.0,0.0,0.0,0.0,0.0,0.0,0.0,0.0,0.0,0.0,0.0,0.0,0.0,0.0,0.0,0.0,0.0,0.0,0.0,0.0,0.0,0.0,0.0,0.0,0.0,0.0,0.0,0.0,0.0,0.0,0.0,0.0,0.0,0.0,0.0,0.0,0.0,0.0,0.0,0.0,0.0,0.0,0.0,0.0,0.0,0.0,0.0,0.0,0.0,-9.8105,-10.8688,-11.4011,-11.5406,-11.5883,-11.5993,-10.8101,-10.1714,-9.8117,-8.6077,0.0,0.0,0.0,0.0,0.0,0.0,0.0,0.0,0.0,0.0,0.0,0.0,0.0,0.0,0.0,0.0,0.0,0.0,0.0,0.0,0.0,0.0,0.0,0.0,0.0,0.0,0.0,0.0,0.0,0.0,0.0,0.0,0.0,0.0,0.0,0.0,0.0,0.0,0.0,0.0,0.0,0.0,0.0,0.0,0.0,0.0,0.0,0.0,0.0,0.0,0.0,0.0,0.0,0.0,0.0,0.0,0.0,0.0,0.0,0.0,0.0,0.0,0.0,0.0,0.0,0.0,0.0,0.0,0.0,0.0,0.0,0.0,0.0,0.0,0.0,0.0,0.0,0.0,0.0,0.0,0.0,0.0,0.0,0.0,0.0,0.0,0.0,0.0,0.0,0.0,0.0,0.0,0.0,0.0,0.0,0.0,0.0,0.0,0.0,0.0,0.0,0.0,-9.5449,-10.5495,-11.3901,-11.5516,-11.581,-11.5296,-11.0304,-10.388,-9.6135,0.0,0.0,0.0,0.0,0.0,0.0,0.0,0.0,0.0,0.0,0.0,0.0,0.0,0.0,0.0,0.0,0.0,0.0,0.0,0.0,0.0,0.0,0.0,0.0,0.0,0.0,0.0,0.0,0.0,0.0,0.0,0.0,0.0,0.0,0.0,0.0,0.0,0.0,0.0,0.0,0.0,0.0,0.0,0.0,0.0,0.0,0.0,0.0,0.0,0.0,0.0,0.0,0.0,0.0,0.0,0.0,0.0,0.0,0.0,0.0,0.0,0.0,0.0,0.0,0.0,0.0,0.0,0.0,0.0,0.0,0.0,0.0,0.0,0.0,0.0,0.0,0.0,0.0,0.0,0.0,0.0,0.0,0.0,0.0,0.0,0.0,0.0,0.0,0.0,0.0,0.0,0.0,0.0,0.0,0.0,0.0,0.0,0.0,0.0,0.0,0.0,0.0,-8.3768,-9.4723,-10.4837,-11.3202,-11.5258,-11.5699,-11.4892,-10.9973,-10.3182,-9.4483,0.0,0.0,0.0,0.0,0.0,0.0,0.0,0.0,0.0,0.0,0.0,0.0,0.0,0.0,0.0,0.0,0.0,0.0,0.0,0.0,0.0,0.0,0.0,0.0,0.0,0.0,0.0,0.0,0.0,0.0,0.0,0.0,0.0,0.0,0.0,0.0,0.0,0.0,0.0,0.0,0.0,0.0,0.0,0.0,0.0,0.0,0.0,0.0,0.0,0.0,0.0,0.0,0.0,0.0,0.0,0.0,0.0,0.0,0.0,0.0,0.0,0.0,0.0,0.0,0.0,0.0,0.0,0.0,0.0,0.0,0.0,0.0,0.0,0.0,0.0,0.0,0.0,0.0,0.0,0.0,0.0,0.0,0.0,0.0,0.0,0.0,0.0,0.0,0.0,0.0,0.0,0.0,0.0,0.0,0.0,0.0,0.0,0.0,0.0,0.0,0.0,0.0,-8.281,-9.7135,-10.8292,-11.2229,-11.4582,-11.5699,-11.4892,-10.5899,-9.83,0.0,0.0,0.0,0.0,0.0,0.0,0.0,0.0,0.0,0.0,0.0,0.0,0.0,0.0,0.0,0.0,0.0,0.0,0.0,0.0,0.0,0.0,0.0,0.0,0.0,0.0,0.0,0.0,0.0,0.0,0.0,0.0,0.0,0.0,0.0,0.0,0.0,0.0,0.0,0.0,0.0,0.0,0.0,0.0,0.0,0.0,0.0,0.0,0.0,0.0,0.0,0.0,0.0,0.0,0.0,0.0,0.0,0.0,0.0,0.0,0.0,0.0,0.0,0.0,0.0,0.0,0.0,0.0,0.0,0.0,0.0,0.0,0.0,0.0,0.0,0.0,0.0,0.0,0.0,0.0,0.0,0.0,0.0,0.0,0.0,0.0,0.0,0.0,0.0,0.0,0.0,0.0,0.0,0.0,0.0,0.0,0.0,0.0,0.0,0.0,0.0,0.0,0.0,-8.3507,-9.655,-10.7084,-11.2128,-11.3725,-11.4316,-11.3957,-10.8688,-10.1384,-9.195,0.0,0.0,0.0,0.0,0.0,0.0,0.0,0.0,0.0,0.0,0.0,0.0,0.0,0.0,0.0,0.0,0.0,0.0,0.0,0.0,0.0,0.0,0.0,0.0,0.0,0.0,0.0,0.0,0.0,0.0,0.0,0.0,0.0,0.0,0.0,0.0,0.0,0.0,0.0,0.0,0.0,0.0,0.0,0.0,0.0,0.0,0.0,0.0,0.0,0.0,0.0,0.0,0.0,0.0,0.0,0.0,0.0,0.0,0.0,0.0,0.0,0.0,0.0,0.0,0.0,0.0,0.0,0.0,0.0,0.0,0.0,0.0,0.0,0.0,0.0,0.0,0.0,0.0,0.0,0.0,0.0,0.0,0.0,0.0,0.0,0.0,0.0,0.0,0.0,0.0,0.0,0.0,0.0,0.0,0.0,0.0,0.0,0.0,0.0,0.0,0.0,0.0,-8.25,-9.5228,-10.5531,-11.0264,-11.2218,-11.3172,-11.3113,-10.9386,-10.2705,-9.2244,0.0,0.0,0.0,0.0,0.0,0.0,0.0,0.0,0.0,0.0,0.0,0.0,0.0,0.0,0.0,0.0,0.0,0.0,0.0,0.0,0.0,0.0,0.0,0.0,0.0,0.0,0.0,0.0,0.0,0.0,0.0,0.0,0.0,0.0,0.0,0.0,0.0,0.0,0.0,0.0,0.0,0.0,0.0,0.0,0.0,0.0,0.0,0.0,0.0,0.0,0.0,0.0,0.0,0.0,0.0,0.0,0.0,0.0,0.0,0.0,0.0,0.0,0.0,0.0,0.0,0.0,0.0,0.0,0.0,0.0,0.0,0.0,0.0,0.0,0.0,0.0,0.0,0.0,0.0,0.0,0.0,0.0,0.0,0.0,0.0,0.0,0.0,0.0,0.0,0.0,0.0,0.0,0.0,0.0,0.0,0.0,0.0,0.0,0.0,0.0,0.0,0.0,-8.0615,-9.358,-10.3579,-10.7399,-11.0373,-11.2177,-11.2199,-10.8675,-10.2779,-9.4006,0.0,0.0,0.0,0.0,0.0,0.0,0.0,0.0,0.0,0.0,0.0,0.0,0.0,0.0,0.0,0.0,0.0,0.0,0.0,0.0,0.0,0.0,0.0,0.0,0.0,0.0,0.0,0.0,0.0,0.0,0.0,0.0,0.0,0.0,0.0,0.0,0.0,0.0,0.0,0.0,0.0,0.0,0.0,0.0,0.0,0.0,0.0,0.0,0.0,0.0,0.0,0.0,0.0,0.0,0.0,0.0,0.0,0.0,0.0,0.0,-5.6885,-5.479,0.0,0.0,0.0,0.0,0.0,0.0,0.0,0.0,0.0,0.0,0.0,0.0,0.0,0.0,0.0,0.0,0.0,0.0,0.0,0.0,0.0,0.0,0.0,0.0,0.0,0.0,0.0,0.0,0.0,0.0,0.0,0.0,0.0,0.0,0.0,0.0,0.0,0.0,0.0,0.0,-8.2069,-9.287,-10.1508,-10.5946,-10.8528,-11.0123,-11.0584,-10.86,-10.41,-9.6428,-8.8904,0.0,0.0,0.0,0.0,0.0,0.0,0.0,0.0,0.0,0.0,0.0,0.0,0.0,0.0,0.0,0.0,0.0,0.0,0.0,0.0,0.0,0.0,0.0,0.0,0.0,0.0,0.0,0.0,0.0,0.0,0.0,0.0,0.0,0.0,0.0,0.0,0.0,0.0,0.0,0.0,0.0,0.0,0.0,0.0,0.0,0.0,0.0,0.0,0.0,0.0,0.0,0.0,0.0,0.0,0.0,0.0,0.0,0.0,0.0,-6.1613,-5.9608,0.0,0.0,0.0,0.0,0.0,0.0,0.0,0.0,0.0,0.0,0.0,0.0,0.0,0.0,0.0,0.0,0.0,0.0,0.0,0.0,0.0,0.0,0.0,0.0,0.0,0.0,0.0,0.0,0.0,0.0,0.0,0.0,0.0,0.0,0.0,0.0,0.0,0.0,0.0,0.0,-8.3084,-9.2861,-10.0657,-10.4832,-10.7293,-10.8876,-10.9611,-10.8383,-10.5275,-9.9916,-9.2721,0.0,0.0,0.0,0.0,0.0,0.0,0.0,0.0,0.0,0.0,0.0,0.0,0.0,0.0,0.0,0.0,0.0,0.0,0.0,0.0,0.0,0.0,0.0,0.0,0.0,0.0,0.0,0.0,0.0,0.0,0.0,0.0,0.0,0.0,0.0,0.0,0.0,0.0,0.0,0.0,0.0,0.0,0.0,0.0,0.0,0.0,0.0,0.0,0.0,0.0,0.0,0.0,0.0,-6.2049,-6.4298,-6.7358,-6.6939,-6.8076,-7.0231,-6.7567,-6.6071,-6.5293,-6.2331,0.0,0.0,0.0,0.0,0.0,0.0,0.0,0.0,0.0,0.0,0.0,0.0,0.0,0.0,0.0,0.0,0.0,0.0,0.0,0.0,0.0,0.0,-7.4424,-7.6724,-7.8416,-7.7604,-7.05,0.0,0.0,0.0,0.0,0.0,0.0,0.0,0.0,0.0,0.0,0.0,-8.3862,-9.3064,-10.0159,-10.366,-10.5994,-10.7627,-10.8184,-10.759,-10.6006,-10.3107,-9.6631,-9.0667,0.0,0.0,0.0,0.0,0.0,0.0,0.0,0.0,0.0,0.0,0.0,0.0,0.0,0.0,0.0,0.0,0.0,0.0,0.0,0.0,0.0,0.0,0.0,0.0,0.0,0.0,0.0,0.0,0.0,0.0,0.0,0.0,-3.9496,-4.0752,0.0,0.0,0.0,0.0,0.0,0.0,0.0,0.0,0.0,0.0,0.0,0.0,0.0,-5.2678,-5.6969,-6.1768,-6.539,-6.7737,-7.1225,-7.2909,-7.2864,-7.3373,-7.439,-7.5796,-7.5946,0.0,-6.7448,-6.5892,0.0,0.0,0.0,0.0,0.0,0.0,0.0,0.0,0.0,0.0,0.0,0.0,0.0,0.0,0.0,0.0,0.0,0.0,0.0,0.0,0.0,0.0,-8.3795,-8.3524,-8.4606,-8.508,-8.2644,-7.527,-6.8639,-6.7049,-6.3802,-6.0419,0.0,0.0,0.0,0.0,0.0,0.0,-8.4674,-9.2962,-9.9142,-10.1631,-10.3763,-10.5063,-10.5192,-10.5599,-10.5266,-10.4102,-9.9768,-9.6255,-9.3968,-8.7215,0.0,0.0,0.0,0.0,0.0,0.0,0.0,0.0,0.0,0.0,0.0,0.0,0.0,0.0,0.0,0.0,0.0,0.0,0.0,0.0,0.0,0.0,0.0,0.0,0.0,0.0,0.0,0.0,0.0,-3.9697,-4.2057,-4.2233,-4.2585,-4.2233,0.0,0.0,0.0,0.0,0.0,0.0,0.0,0.0,0.0,-5.2377,-5.3691,-5.6888,-6.2535,-6.5334,-6.8723,-7.2894,-7.4988,-7.6215,-7.6664,-7.6933,-7.7592,-7.8519,-7.8819,-7.7293,-7.439,-7.1188,-6.7956,-6.4725,0.0,0.0,0.0,0.0,-6.3228,-6.3827,-6.6819,-6.7807,-6.7478,-6.5922,0.0,0.0,0.0,0.0,0.0,0.0,0.0,-7.2701,-7.68,-8.1494,-8.5587,-8.7347,-8.8598,-8.9207,-8.8531,-8.349,-7.7908,-7.3747,-7.1718,-6.8639,-6.2144,-6.1806,0.0,0.0,0.0,-8.031,-8.7347,-9.3605,-9.824,-10.0506,-10.23,-10.3392,-10.3392,-10.4685,-10.5445,-10.5055,-10.2677,-10.0589,-9.8961,-9.3198,-8.7729,0.0,0.0,0.0,0.0,0.0,0.0,0.0,0.0,0.0,0.0,0.0,0.0,0.0,0.0,0.0,0.0,0.0,0.0,0.0,0.0,0.0,0.0,0.0,0.0,0.0,0.0,0.0,0.0,-4.1982,-4.4292,-4.3865,-4.5045,-4.497,0.0,0.0,0.0,0.0,0.0,0.0,-5.0343,-5.1523,-5.3582,-5.6771,-5.7968,-6.1284,-6.7285,-6.8483,-7.1682,-7.6664,-7.7113,-7.7831,-7.8789,-7.8789,-7.9178,-7.9836,-7.9986,-8.0075,-7.9746,-7.5617,-7.2265,-6.9482,-6.6999,-6.5622,-6.5323,-6.7448,-6.8256,-6.8824,-7.2595,-7.3791,-7.3313,-7.0979,-6.9226,-6.7185,-6.3176,0.0,0.0,0.0,0.0,-7.4563,-8.0881,-8.4099,-8.6569,-8.9748,-9.1203,-9.1778,-9.1372,-8.9579,-8.6264,-8.031,-7.8822,-7.6082,-6.8267,-6.8132,0.0,-7.0094,-7.6386,-8.3253,-8.941,-9.4112,-9.7664,-9.9728,-10.1079,-10.18,-10.18,-10.355,-10.4753,-10.4933,-10.4473,-10.3692,-10.2522,-9.8374,-9.3565,-8.8059,0.0,0.0,0.0,0.0,0.0,0.0,0.0,0.0,0.0,0.0,0.0,0.0,0.0,0.0,0.0,0.0,0.0,0.0,0.0,0.0,0.0,0.0,0.0,0.0,0.0,0.0,0.0,0.0,0.0,-4.615,-4.8033,0.0,0.0,0.0,0.0,-4.841,-5.0042,-5.2176,-5.4913,-5.6093,-5.7976,-6.0814,-6.3337,-6.6584,-7.056,-7.3207,-7.5889,-7.8639,-7.8669,-7.8729,-7.8789,-7.8789,-7.9178,-7.9866,-8.0464,-8.0764,-8.0524,-7.7771,-7.5796,-7.433,-7.2295,-7.1098,-7.059,-7.1368,-7.2834,-7.439,-7.4031,-7.4719,-7.5826,-7.6245,-7.4959,-7.2979,-7.1353,-7.0575,0.0,0.0,-7.6646,-7.9485,-8.4244,-8.7211,-8.9241,-9.0865,-9.2387,-9.3064,-9.1609,-9.1169,-8.9918,-8.6095,-8.2475,-7.9261,-7.6657,0.0,-7.5506,-7.6318,-8.0378,-8.5012,-8.9613,-9.4112,-9.7461,-9.8984,-9.9921,-10.0328,-10.0328,-10.1527,-10.27,-10.3411,-10.4593,-10.518,-10.4897,-10.2485,-9.8851,-9.3969,-8.7472,0.0,0.0,0.0,0.0,0.0,0.0,0.0,0.0,0.0,0.0,0.0,0.0,0.0,0.0,0.0,0.0,0.0,0.0,0.0,0.0,0.0,0.0,0.0,0.0,0.0,0.0,0.0,0.0,-4.8912,-5.1222,0.0,-4.9464,-5.0519,-5.1674,-5.2427,-5.4712,-5.6796,-5.8478,-5.996,-6.1542,-6.3249,-6.6016,-6.8784,-7.1843,-7.4231,-7.6503,-7.8789,-7.8789,-7.8789,-7.8789,-7.8789,-7.9178,-7.9836,-8.0075,-8.0405,-8.0704,-7.9327,-7.822,-7.7293,-7.6155,-7.5557,-7.5377,-7.5617,-7.6425,-7.7412,-7.7622,-7.7741,-7.7592,-7.6574,-7.5112,-7.3617,-7.2711,-7.3286,-7.4985,-7.8142,-8.0638,-8.3266,-8.7015,-8.8835,-8.9951,-9.0459,-9.1372,-9.1846,-9.0831,-9.0594,-9.0053,-8.826,-8.6061,-8.3355,-7.9667,-7.9972,-8.0479,-7.9837,-8.3524,-8.7651,-9.1169,-9.3876,-9.5872,-9.6853,-9.7225,-9.7692,-9.8626,-9.9966,-10.1009,-10.1496,-10.3385,-10.3936,-10.2815,-10.1971,-9.9695,-9.5914,-9.0996,-8.4205,0.0,0.0,0.0,0.0,0.0,0.0,0.0,0.0,0.0,0.0,0.0,0.0,0.0,0.0,0.0,0.0,0.0,0.0,0.0,0.0,0.0,0.0,0.0,0.0,0.0,-4.7405,-5.0645,-5.1197,-5.3884,-5.4888,-5.2854,-5.431,-5.5717,-5.6445,-5.8579,-6.0387,-6.1642,-6.2948,-6.4078,-6.4982,-6.8235,-7.0689,-7.2506,-7.5297,-7.7358,-7.8789,-7.8789,-7.8789,-7.8789,-7.8789,-7.9028,-7.9477,-7.9716,-8.0075,-8.0464,-8.0225,-7.9746,-7.9058,-7.84,-7.828,-7.8489,-7.8489,-7.8908,-7.9507,-7.9746,-7.9507,-7.8878,-7.7382,-7.6275,-7.5467,-7.5018,-7.6435,-7.8709,-8.1251,-8.3593,-8.5832,-8.843,-8.9647,-9.0222,-9.0222,-9.0763,-9.1102,-9.0357,-9.0222,-8.9985,-8.9241,-8.8294,-8.6636,-8.3389,-8.4234,-8.4979,-8.3727,-8.6738,-8.9918,-9.215,-9.3774,-9.4992,-9.5702,-9.5804,-9.6197,-9.7279,-9.8446,-9.9376,-10.0073,-10.1271,-10.1384,-10.0283,-9.9769,-9.8227,-9.5547,-9.0959,-8.5123,-7.8112,0.0,0.0,0.0,0.0,0.0,0.0,0.0,0.0,0.0,0.0,0.0,0.0,0.0,0.0,0.0,0.0,0.0,0.0,0.0,0.0,0.0,0.0,0.0,-4.5497,-4.9439,-5.2427,-5.303,-5.5993,-5.7374,-5.5717,-5.7549,-5.9257,-6.0311,-6.1441,-6.2797,-6.4404,-6.5007,-6.5559,-6.6086,-7.0258,-7.2506,-7.2506,-7.6736,-7.8789,-7.8789,-7.8789,-7.8789,-7.8789,-7.8789,-7.8789,-7.8819,-7.9507,-7.9776,-7.9836,-8.0464,-8.0345,-7.9716,-7.9088,-7.9238,-7.9806,-7.9806,-8.0195,-8.0674,-8.0016,-7.9806,-7.9716,-7.9028,-7.8789,-7.8789,-7.8933,-8.0121,-8.1787,-8.3608,-8.5258,-8.7024,-8.87,-8.9613,-9.0188,-9.0188,-9.0729,-9.1034,-9.0324,-9.0188,-8.9951,-8.9241,-8.9072,-8.8869,-8.8158,-8.8632,-8.8835,-8.8125,-8.9884,0.0,-9.2286,-9.3706,-9.4924,-9.5755,-9.5823,-9.6042,-9.6629,-9.7112,-9.7882,-9.9227,-9.8317,-9.7787,-9.775,-9.6282,-9.474,-9.3161,-8.7582,-8.3104,-7.991,0.0,0.0,0.0,0.0,0.0,0.0,0.0,0.0,0.0,0.0,0.0,0.0,0.0,0.0,0.0,0.0,0.0,0.0,0.0,0.0,0.0,-4.3819,-4.8259,-4.8962,-5.2201,-5.5139,-5.6897,-5.8981,-6.0085,-5.9633,-6.0512,-6.1391,-6.2094,-6.3174,-6.4153,-6.5007,-6.5584,-6.5961,-6.6112,-7.0258,-7.2506,-7.2506,-7.6736,-7.8789,-7.8789,-7.8789,-7.8789,-7.8789,-7.8789,-7.8789,-7.8789,-7.8998,-7.9058,-7.9088,-7.9267,-7.9238,-7.9088,-7.9417,-7.9656,-7.9746,-7.9267,-7.9507,-7.9986,-7.9297,-7.9387,-7.9716,-7.9028,-7.8789,-7.9046,-8.023,-8.1922,-8.3608,-8.5382,-8.7024,-8.8552,-8.8959,-8.9241,-8.9376,-8.9376,-8.9545,-8.9647,-8.9444,-8.9376,-8.9342,-8.914,-8.9072,-8.9004,-8.8801,-8.897,-8.9004,-8.8801,-8.9782,-9.0763,-9.1508,-9.2455,-9.3733,-9.5375,-9.5556,-9.6372,-9.8538,-9.7796,-9.7043,-9.6575,-9.5761,-9.5034,-9.4446,-9.4556,-9.441,-9.3969,-8.894,-8.5343,0.0,0.0,0.0,0.0,0.0,0.0,0.0,0.0,0.0,0.0,0.0,0.0,0.0,0.0,0.0,0.0,0.0,0.0,0.0,0.0,0.0,0.0,-4.7531,-5.1925,-5.3658,-5.5566,-5.7424,-5.9156,-6.0638,-6.1617,-6.1843,-6.237,-6.2923,-6.3475,-6.4329,-6.5057,-6.5609,-6.5936,-6.6112,-6.6112,-7.0258,-7.2506,-7.2506,-7.6736,-7.8789,-7.8789,-7.8789,-7.8789,-7.8789,-7.8789,-7.8789,-7.8789,-7.8789,-7.8789,-7.8789,-7.8789,-7.8789,-7.8819,0.0,0.0,0.0,0.0,-7.9656,-8.0105,-7.9118,-7.9238,-7.9716,-7.9028,-7.9332,-8.0121,-8.1032,-8.3087,-8.5258,-8.6239,-8.7795,-8.9072,-8.9072,-8.9072,-8.9072,-8.9072,-8.9072,-8.9072,-8.9072,-8.9072,-8.9072,-8.9072,-8.9072,0.0,-8.9072,-8.9072,-8.9072,-8.9072,-8.9985,-9.0831,-9.1237,-9.1947,-9.3202,-9.524,-9.5249,-9.6131,-9.8812,-9.7548,0.0,0.0,0.0,-9.2758,-9.162,-9.1693,0.0,0.0,0.0,0.0,0.0,-8.828,0.0,0.0,-8.5637,-8.5673,0.0,0.0,0.0,0.0,0.0,0.0,0.0,0.0,0.0,0.0,0.0,0.0,0.0,0.0,0.0,0.0,-5.1358,-5.5114,-5.8353,-5.8905,-5.9382,-6.0387,-6.1441,-6.2295,-6.2772,-6.335,-6.3902,-6.4429,-6.4982,-6.5534,-6.6086,-6.6112,0.0,0.0,0.0,-7.2664,-7.2822,-7.6736,-7.8789,-7.8789,-7.8789,-7.8789,-7.8789,-7.8789,-7.8789,-7.8789,-7.8789,-7.8789,-7.8789,-7.8789,-7.8789,-7.8789,-7.8789,-7.9178,-7.9716,-7.9716,-8.0075,-8.0405,-7.9208,0.0,0.0,-7.8998,-7.998,-8.1411,-8.1683,-8.3963,-8.6513,-8.6753,-8.7911,-8.9072,-8.9072,-8.9072,-8.9072,-8.9072,-8.9072,-8.9072,-8.9072,-8.9072,-8.9072,-8.9072,-8.9072,-8.9072,-8.9072,-8.9072,-8.9072,-8.9072,-9.0188,-9.1068,-9.1169,-9.1846,-9.318,-9.5319,-9.5048,0.0,-9.8451,-9.7109,-9.6266,-9.6535,-9.3712,-9.1363,-8.9895,-8.9381,-8.9784,-9.1143,-9.2794,-9.4299,-9.5621,-9.8043,-9.9402,-9.9438,-9.0702,-9.0078,0.0,0.0,0.0,0.0,0.0,0.0,0.0,0.0,0.0,0.0,0.0,0.0,0.0,0.0,0.0,-4.9487,-5.331,-5.657,-5.9006,-6.0136,-6.0939,-6.1592,-6.227,-6.2722,-6.2822,-6.335,-6.3902,-6.4429,-6.4982,-6.5534,-6.6086,-6.6112,-6.6916,-6.8664,-7.1202,-7.3265,-7.4992,-7.7534,-7.8789,-7.8789,-7.8789,0.0,-7.8789,-7.8789,-7.8789,-7.8789,-7.8789,-7.8789,-7.8789,-7.8789,-7.8789,-7.8789,-7.8789,-7.8878,-7.8998,-7.8998,-7.9058,-7.9148,-7.8878,-7.8878,-7.8968,-7.8819,-7.998,-8.1683,-8.3087,-8.4851,0.0,-8.8176,-8.8813,-8.9072,-8.9072,-8.9072,-8.9072,-8.9072,-8.9072,-8.9072,-8.9072,-8.9072,-8.9072,-8.9072,-8.9072,-8.9072,-8.9072,-8.9072,-8.9072,-8.9072,-8.9309,-8.9715,-9.0357,-9.1068,-9.2664,-9.591,-9.6605,-9.7968,-10.0709,-9.8789,-9.7002,-9.5841,-9.3932,-9.2721,-9.2391,-9.4116,-9.4887,-9.4556,-9.6135,-9.6795,-9.6465,-9.8888,-10.109,-10.2889,-10.0393,-9.9622,0.0,0.0,0.0,0.0,0.0,0.0,0.0,0.0,0.0,0.0,0.0,-4.0905,-4.3238,0.0,-4.9133,-5.3271,-5.4966,-5.6835,-5.9904,-6.0839,-6.1391,-6.1943,-6.2496,-6.2822,-6.2822,-6.3576,-6.4178,-6.4454,-6.5233,-6.5835,-6.6086,-6.6112,-6.7061,-6.9301,-7.1363,-7.3421,-7.56,-7.7681,-7.8789,-7.8789,-7.8789,-7.8789,-7.8789,-7.8789,-7.8789,-7.8789,-7.8789,-7.8789,-7.8789,-7.8789,-7.8789,-7.8789,-7.8789,-7.8789,-7.8789,-7.8789,-7.8789,-7.8789,-7.8789,-7.8789,-7.8903,-7.9839,-8.1275,-8.2956,-8.4725,-8.6393,-8.8027,-8.8813,-8.9072,-8.9072,-8.9072,-8.9072,-8.9072,-8.9072,-8.9072,-8.9072,-8.9072,-8.9072,-8.9072,-8.9072,-8.9072,-8.9072,-8.9072,-8.9072,-8.9072,-8.9072,-8.941,-8.9918,-9.0662,-9.1068,-9.2707,-9.6493,-9.6932,-9.8168,-10.1222,-9.9659,-9.797,-9.6795,-9.5951,-9.5511,-9.5511,-9.7052,-9.7897,-9.7897,-9.9475,-10.0283,-10.0283,-10.2779,-10.4577,-10.5789,-10.6596,-10.6486,0.0,0.0,0.0,0.0,0.0,0.0,0.0,-3.5983,-3.8044,-3.9704,-4.2891,-4.5954,-4.8435,-5.029,-5.2647,-5.6675,-5.6756,-5.7412,-6.0781,-6.1266,-6.1542,-6.2094,-6.2546,-6.2822,-6.2822,-6.3827,-6.4454,-6.4454,-6.5484,-6.6112,-6.6112,-6.6429,-6.7712,-6.9768,-7.2002,-7.407,-7.623,-7.7974,-7.8789,-7.8789,-7.8789,-7.8789,-7.8789,-7.8789,-7.8789,-7.8789,-7.8789,-7.8789,-7.8789,-7.8789,-7.8789,-7.8789,-7.8789,-7.8789,-7.8789,-7.8789,-7.8789,-7.8789,-7.8789,-7.8789,-7.9046,-8.0894,-8.2591,-8.4378,-8.5996,-8.7679,-8.9072,-8.9072,-8.9072,-8.9072,-8.9072,-8.9072,-8.9072,-8.9072,-8.9072,-8.9072,-8.9072,-8.9072,-8.9072,-8.9072,-8.9072,-8.9072,-8.9072,-8.9072,-8.9072,-8.9072,-8.9613,-9.0256,-9.1,-9.1203,-9.2698,-9.6543,-9.6763,-9.7917,-10.1222,-10.0283,-9.9292,-9.8631,-9.8594,-9.8594,-9.8594,-9.9365,-10.0209,-10.098,-10.2595,-10.3806,-10.4577,-10.689,-10.8101,-10.8395,-11.0487,-11.1001,-3.2769,-3.1466,-3.1614,-3.3085,-3.4491,-3.6612,0.0,-4.259,-4.4151,-4.6323,-4.9145,-5.163,-5.3478,-5.4402,-5.5626,-5.8127,-5.8852,-5.9498,-6.1014,-6.1592,-6.2119,-6.2672,-6.2797,-6.2822,-6.2822,-6.3827,-6.4454,-6.4454,-6.5484,-6.6112,-6.6112,-6.7854,-6.9931,-7.2002,-7.4197,-7.6259,-7.847,-7.8644,-7.8789,-7.8789,-7.8789,-7.8789,-7.8789,-7.8789,-7.8789,-7.8789,-7.8789,-7.8789,-7.8789,-7.8789,-7.8789,-7.8789,-7.8789,-7.8789,-7.8789,-7.8789,-7.8789,-7.8789,-7.8789,-7.8789,-7.9046,-8.0894,-8.2591,-8.4378,-8.5996,-8.7679,-8.9072,-8.9072,-8.9072,-8.9072,-8.9072,-8.9072,-8.9072,-8.9072,-8.9072,-8.9072,-8.9072,-8.9072,-8.9072,-8.9072,-8.9072,-8.9072,-8.9072,-8.9072,-8.9072,-8.9072,-8.914,-8.9478,-9.0222,-9.0899,-9.2191,-9.4525,-9.6336,-9.8526,-10.1295,-10.1274,-10.12,-10.109,-10.109,-10.109,-10.109,-10.1898,-10.2705,-10.3476,-10.5091,-10.6376,-10.7183,-10.8872,-11.0083,-11.0817,-11.1808,-11.1808,-3.8068,-3.6857,-3.6428,-3.7361,-3.9802,-4.2527,-4.4583,-4.681,-4.86,-4.9067,-5.1436,-5.3628,-5.3766,-5.4373,-5.5824,-5.8326,-5.827,-5.8741,-6.0906,-6.1391,-6.1617,-6.1843,-6.1868,-6.2119,-6.2772,-6.3827,-6.4454,-6.4454,-6.5484,-6.6112,-6.6112,-6.819,-7.0258,-7.2506,-7.4533,-7.6558,-7.8789,-7.8789,-7.8789,-7.8789,-7.8789,-7.8789,-7.8789,-7.8789,-7.8789,-7.8789,-7.8789,-7.8789,-7.8789,-7.8789,-7.8789,-7.8789,-7.8789,-7.8789,-7.8789,-7.8789,-7.8789,-7.8789,-7.8789,-7.8789,-7.9302,-8.2057,-8.3348,-8.4505,-8.7176,-8.8552,-8.9072,-8.9072,-8.9072,-8.9072,-8.9072,-8.9072,-8.9072,-8.9072,-8.9072,-8.9072,-8.9072,-8.9072,-8.9072,-8.9072,-8.9072,-8.9072,-8.9072,-8.9444,-8.9748,-8.9748,-8.9748,-9.0019,-9.0763,-9.1474,-9.3031,-9.5855,-9.8812,-10.1001,-10.211,-10.2595,-10.2889,-10.2889,-10.3293,-10.3806,-10.4284,-10.5091,-10.5899,-10.6706,-10.7881,-10.8688,-10.8982,-11.0597,-11.1588,-11.1919,-11.3203,-11.3607,-4.0996,-4.0688,-4.0555,-4.1337,-4.4404,-4.7555,-4.8172,-5.0404,-5.2017,-5.1625,-5.3434,-5.4857,-5.4397,-5.5017,-5.6148,-5.8299,-5.8409,-5.8789,-6.073,-6.109,-6.1115,-6.0964,-6.0814,-6.109,-6.2044,-6.3274,-6.4128,-6.4454,-6.5358,-6.5936,-6.6112,-6.819,-7.0258,-7.2506,-7.4533,-7.6558,-7.8789,-7.8789,-7.8789,-7.8789,-7.8789,-7.8789,-7.8789,-7.8789,-7.8789,-7.8789,-7.8789,-7.8789,-7.8789,-7.8789,-7.8789,-7.8789,-7.8789,-7.8789,-7.8789,-7.8789,-7.8789,-7.8789,-7.8789,-7.8789,-7.9302,-8.2824,-8.3995,-8.4631,-8.806,-8.9072,-8.9072,-8.9072,-8.9072,-8.9072,-8.9072,-8.9072,-8.9072,-8.9072,-8.9072,-8.9072,-8.9072,-8.9072,-8.9072,-8.9072,-8.9241,-8.9376,-8.9376,-9.0019,-9.0493,-9.0493,-9.0696,-9.1,-9.1541,-9.2286,-9.4008,-9.7446,-10.0145,-10.211,-10.3284,-10.3917,-10.432,-10.4577,-10.5091,-10.5715,-10.6376,-10.7183,-10.7991,-10.8799,-10.979,-11.0414,-11.0671,-11.2286,-11.3093,-11.3093,-11.4488,-11.5112,-4.0248,-4.1136,-4.2663,-4.4463,-4.7641,-5.0663,-5.2291,-5.3658,-5.4637,-5.5189,-5.5767,-5.6319,-5.6749,-5.735,-5.8077,-5.8629,-6.0085,-6.0964,-6.0412,-6.0839,-6.0964,-6.0412,-5.9885,-5.9759,-6.0337,-6.1893,-6.3324,-6.4379,-6.4982,-6.5534,-6.6086,-6.819,-7.0258,-7.2506,-7.4533,-7.6558,-7.8789,-7.8789,-7.8789,-7.8789,-7.8789,-7.8789,-7.8789,-7.8789,-7.8789,-7.8789,-7.8789,-7.8789,-7.8789,-7.8789,-7.8789,-7.8789,-7.8789,-7.8789,-7.8789,-7.8789,-7.8789,-7.8789,-7.8789,-7.8789,-7.9302,-8.2824,-8.3995,-8.4631,-8.806,-8.9072,-8.9072,-8.9072,-8.9072,-8.9072,-8.9072,-8.9072,-8.9072,-8.9072,-8.9072,-8.9072,-8.9072,-8.9072,-8.9072,-8.9072,-8.9681,-9.0188,-9.0188,-9.0763,-9.1271,-9.1271,-9.188,-9.2353,-9.2387,-9.3064,-9.4909,-9.8359,-9.8732,-10.0482,-10.4703,-10.5018,-10.5422,-10.6302,-10.6302,-10.6376,-10.6376,-10.7183,-10.7991,-10.8799,-11.0414,-11.1515,-11.2286,-11.3901,-11.4708,-11.4708,-11.5589,-11.5993,-4.293,-4.4784,-4.6983,-4.8769,-5.1255,-5.3406,-5.4361,-5.5139,-5.5717,-5.5892,-5.5792,-5.5842,-5.6394,-5.6646,-5.7097,-5.8027,-5.9558,-6.0537,-6.0337,-6.114,-6.1115,-5.9458,-5.9408,-5.9282,-5.8755,-6.0537,-6.2195,-6.3299,-6.4228,-6.4982,-6.5534,-6.9254,-7.1683,-7.2506,-7.5959,-7.8004,-7.8789,-7.8789,-7.8789,-7.8789,-7.8789,-7.8789,-7.8789,-7.8789,-7.8789,-7.8789,-7.8789,-7.8789,-7.8789,-7.8789,-7.8789,-7.8789,-7.8789,-7.8789,-7.8789,-7.8789,-7.8789,-7.8789,-7.8789,-7.8789,-7.9302,-8.2824,-8.3995,-8.4631,-8.806,-8.9072,-8.9072,-8.9072,-8.9072,-8.9072,-8.9072,-8.9072,-8.9072,-8.9072,-8.9072,-8.9072,-8.9072,-8.9478,-8.9816,-8.9816,-9.0425,-9.0932,-9.0932,-9.1541,-9.2218,-9.2725,-9.259,-9.2624,-9.3131,-9.4192,-9.5544,-9.7216,-9.9428,-10.1565,-10.362,-10.5106,-10.6082,-10.6376,-10.6376,-10.689,-10.7918,-10.8285,-10.8982,-11.0414,-11.0928,-11.1588,-11.2396,-11.3497,-11.4305,-11.4818,-11.5589,-11.5993,-4.5598,-4.7707,-4.9866,-5.195,-5.3658,-5.5013,-5.5541,-5.5968,-5.6093,-5.5691,-5.5164,-5.4787,-5.4737,-5.4737,-5.5239,-5.6746,-5.8378,-5.9659,-6.0236,-6.0788,-6.0588,-5.9156,-5.878,-5.8504,-5.8227,-5.9483,-6.0914,-6.2421,-6.355,-6.4505,-6.5258,-6.9148,-7.1711,-7.2506,-7.5779,-7.8004,-7.8789,-7.8789,-7.8789,-7.8789,-7.8789,-7.8789,-7.8789,-7.8789,-7.8789,-7.8789,-7.8789,-7.8789,-7.8789,-7.8789,-7.8789,-7.8789,-7.8789,-7.8789,-7.8789,-7.8789,-7.8789,-7.8789,-7.8789,-7.919,-8.023,-8.3087,-8.4378,-8.5382,-8.8176,-8.9072,-8.9072,-8.9072,-8.9072,-8.9072,-8.9072,-8.9072,-8.914,-8.941,-8.9275,-8.9241,-8.9748,-9.0053,-9.029,-9.056,-9.1203,-9.1711,-9.1711,-9.2319,-9.2996,-9.3503,-9.3165,-9.303,-9.3503,-9.4249,-9.5358,-9.6635,-9.9002,-10.1185,-10.3034,-10.4672,-10.5911,-10.6413,-10.667,-10.7294,-10.8285,-10.8909,-10.9716,-11.0781,-11.1295,-11.1992,-11.28,-11.3607,-11.4415,-11.5222,-11.5773,-11.5993,-4.7958,-4.9715,-5.1272,-5.3934,-5.5013,-5.5566,-5.6093,-5.6168,-5.5817,-5.4712,-5.3984,-5.3206,-5.2101,-5.1975,-5.2754,-5.4913,-5.6746,-5.8453,-6.0085,-5.991,-5.9608,-5.9533,-5.8177,-5.765,-5.8654,-5.878,-5.9684,-6.1793,0.0,-6.4103,-6.5183,-6.7852,-7.0258,-7.2506,-7.4533,-7.6558,-7.8789,-7.8789,-7.8789,-7.8789,-7.8789,-7.8789,-7.8789,-7.8789,-7.8789,-7.8789,-7.8789,-7.8789,-7.8789,-7.8789,-7.8789,-7.8789,-7.8789,-7.8789,-7.8789,-7.8789,-7.8789,-7.8789,-7.8789,-7.998,-8.1683,-8.3478,-8.5101,-8.6872,-8.8552,-8.9072,-8.9072,-8.9072,-8.9072,-8.9072,-8.9072,-8.9072,-8.9275,-9.0019,-8.9681,-8.9545,-9.1,-9.0797,-9.0527,-9.1203,-9.1947,-9.2489,-9.2489,-9.3098,-9.3571,-9.3571,-9.3571,-9.3571,-9.3571,-9.3571,-9.4393,-9.6484,-9.7398,-9.9288,-10.2847,-10.39,-10.4926,-10.6291,-10.7183,-10.7587,-10.7661,-10.9166,-10.9973,-11.0083,-11.1588,-11.28,-11.357,-11.4378,-11.5185,-11.5993,-11.5993,-11.5993,-4.8903,-5.1724,-5.3783,-5.4888,-5.5591,-5.6043,-5.6168,-5.5566,-5.4662,-5.3557,-5.2226,-5.0795,-4.9264,-5.0368,-5.195,-5.3331,-5.5993,-5.8453,-6.0085,-6.0914,-6.104,-6.0211,-6.0111,-5.991,-5.9357,-5.9659,-6.0311,-6.1316,-6.2421,-6.3525,-6.463,-6.7645,-7.0258,-7.2506,-7.4533,-7.6558,-7.8789,-7.8789,-7.8789,-7.8789,-7.8789,-7.8789,-7.8789,-7.8789,-7.8789,-7.8789,-7.8789,-7.8789,-7.8789,-7.8789,-7.8789,-7.8789,-7.8789,-7.8789,-7.8789,-7.8789,-7.8789,-7.8789,-7.8789,-7.998,-8.1683,-8.3478,-8.5101,-8.6872,-8.8552,-8.9072,-8.9072,-8.9072,-8.9072,-8.9072,-8.9072,-8.9072,-8.9275,-9.0019,-9.0053,-9.0154,-9.1102,-9.1575,-9.1913,-9.2083,-9.2759,-9.33,-9.33,-9.3436,-9.3571,-9.3571,-9.3571,-9.3571,-9.3571,-9.3571,-9.4163,-9.5891,-9.7104,-9.9103,-10.2193,-10.3543,-10.4926,-10.6291,-10.7183,-10.7881,-10.8505,-10.9496,-11.0304,-11.0891,-11.1295,-11.2212,-11.357,-11.3791,-11.4598,-11.5993,-11.5993,-11.5993,-5.0638,-5.2774,-5.3981,-5.5446,-5.5993,-5.5797,-5.4052,-5.3836,-5.2967,-4.9677,-4.8724,-4.7958,-4.5773,-4.7405,-4.9615,-5.1222,-5.4461,-5.7625,-5.9985,-6.0864,-6.1215,-6.1065,-6.0914,-6.0663,-6.0261,-6.0512,-6.0939,-6.1492,-6.2571,-6.3576,-6.4429,-6.7567,-6.9768,-7.1068,-7.4042,-7.6558,-7.8789,-7.8789,-7.8789,-7.8789,-7.8789,-7.8789,-7.8789,-7.8789,-7.8789,-7.8789,-7.8789,-7.8789,-7.8789,-7.8789,-7.8789,-7.8789,-7.8789,-7.8789,-7.8789,-7.8789,-7.8789,-7.8789,-7.8789,-8.0479,-8.2692,-8.3737,-8.5629,-8.7795,-8.8813,-8.9072,-8.9072,-8.9072,-8.9072,-8.914,-8.9478,-8.9579,-8.985,-9.0932,-9.0932,-9.0966,-9.2049,-9.2353,-9.2522,-9.2861,-9.33,-9.3571,-9.3571,-9.3571,-9.3571,-9.3571,-9.3571,-9.3706,-9.4045,-9.4079,-9.4383,-9.5229,-9.6603,-9.8567,-10.1537,-10.2709,-10.4441,-10.6805,-10.7697,-10.8505,-10.9276,-11.0083,-11.0707,-11.1221,-11.1221,-11.1992,-11.357,-11.357,-11.4378,-11.5993,-11.5993,-11.5993,-5.2182,-5.272,-5.2529,-5.5164,-5.5483,-5.4376,-5.1269,-5.1239,-5.038,-4.4828,-4.4694,-4.4895,-4.2409,-4.4217,-4.6853,-4.9213,-5.2729,-5.6369,-5.9834,-6.0311,-6.0763,-6.1969,-6.124,-6.0864,-6.1341,-6.1391,-6.1642,-6.2195,-6.3199,-6.4002,-6.4454,-6.7234,-6.897,-6.9274,-7.3393,-7.6558,-7.8325,-7.8644,-7.8789,-7.8789,-7.8789,-7.8789,-7.8789,-7.8789,-7.8789,-7.8789,-7.8789,-7.8789,-7.8789,-7.8789,-7.8789,-7.8789,-7.8789,-7.8789,-7.8789,-7.8789,-7.8789,-7.8789,-7.8789,-8.1138,-8.3995,-8.3995,-8.6272,-8.9072,-8.9072,-8.9072,-8.9106,-8.9207,-8.9241,-8.941,-9.0154,-9.0357,-9.0696,-9.2083,-9.1913,-9.1846,-9.3267,-9.3131,-9.2928,-9.3605,-9.374,-9.3774,-9.3876,-9.3808,-9.3774,-9.3876,-9.3876,-9.4112,-9.4755,-9.4755,-9.4789,-9.4992,-9.6142,-9.8064,-10.0974,-10.1853,-10.3921,-10.7428,-10.8258,-10.9064,-10.9973,-11.0567,-11.1007,-11.1221,-11.1295,-11.2102,-11.357,-11.3681,-11.4488,-11.5993,-11.5993,-11.5993,-5.1114,-5.1408,-5.0979,-5.3076,-5.1812,-5.0109,-5.0365,-4.8372,-4.5806,-4.3092,-4.2389,-4.1907,-4.0978,-4.3062,-4.5949,-4.9088,-5.2076,-5.5465,-5.9734,-6.0311,-6.0914,-6.2496,-6.2521,-6.2446,-6.2521,-6.2546,-6.2772,0.0,-6.3977,-6.4379,-6.4454,-6.5824,-6.7543,-6.9301,-7.3393,-7.5779,-7.608,-7.7828,-7.8789,-7.8789,-7.8789,-7.8789,-7.8789,-7.8789,-7.8789,-7.8789,-7.8789,-7.8789,-7.8789,-7.8789,-7.8789,-7.8789,-7.8789,-7.8789,-7.8789,-7.8789,-7.8789,-7.8789,-7.8789,-8.1138,-8.3995,-8.3995,-8.6272,-8.9072,-8.9072,-8.9072,-8.9207,-8.985,-9.0019,-9.0188,-9.0932,-9.1102,-9.1338,-9.2218,-9.2319,-9.2489,-9.3402,-9.3977,-9.4349,-9.4485,-9.4518,-9.4687,-9.5296,-9.4924,-9.4721,-9.533,-9.5398,-9.5466,-9.5601,-9.5093,-9.5161,-9.6379,-9.6717,-9.8269,-10.1716,-10.2667,-10.4494,-10.7428,-10.7744,-10.8561,-10.9936,-10.9563,-11.0,-11.1221,-11.1882,-11.2689,-11.357,-11.4305,-11.5112,-11.5993,-11.5993,-11.5993,-5.1123,-5.0398,-4.8912,-5.0916,-4.9958,-4.8033,-4.7004,-4.5052,-4.2634,-3.9457,-3.9218,-3.927,-3.814,-4.1128,-4.4392,-4.6276,-4.9389,-5.3105,-5.7549,-5.8428,-5.9558,-6.2094,-6.2647,-6.2822,-6.2822,-6.2822,-6.3073,-6.3651,-6.4178,-6.458,-6.4881,-6.566,-6.7061,-6.9301,-7.1336,-7.3393,-7.56,-7.6558,-7.7681,-7.8789,-7.8789,-7.8789,-7.8789,-7.8789,-7.8789,-7.8789,-7.8789,-7.8789,-7.8789,-7.8789,-7.8789,-7.8789,-7.8789,-7.8789,-7.8789,-7.8789,-7.8789,-7.8933,-7.9839,-8.1787,-8.4123,-8.5009,-8.7289,-8.9681,-8.9681,-8.9918,-9.0324,-9.0662,-9.0763,-9.0932,-9.1677,-9.188,-9.2083,-9.2827,-9.303,-9.3131,-9.3503,-9.418,-9.4721,-9.4721,-9.5026,-9.5364,-9.5736,-9.5499,-9.5398,-9.5736,-9.5804,-9.5939,-9.6311,-9.6041,-9.6108,-9.6819,-9.7225,-9.8463,-10.089,-10.1844,-10.3305,-10.5801,-10.6422,-10.7448,-10.9381,-10.9234,-10.9861,-11.1808,-11.2212,-11.2983,-11.4194,-11.4598,-11.5185,-11.5993,-11.5993,-11.5993,-5.0699,-4.8985,-4.6727,-4.8755,-4.7728,-4.5684,-4.3551,-4.1868,-3.9684,-3.619,-3.6405,-3.701,-3.6081,-3.9195,-4.2359,-4.374,-4.6853,-5.0645,-5.5214,-5.6646,-5.8378,-6.1466,-6.2421,-6.2822,-6.2822,-6.2822,-6.3124,-6.3802,-6.4454,-6.5007,-6.5434,-6.5886,-6.6916,-6.8498,-6.9135,-7.088,-7.4197,-7.5145,-7.6409,-7.8149,-7.8614,-7.8789,-7.8789,-7.8789,-7.8789,-7.8789,-7.8789,-7.8789,-7.8789,-7.8789,-7.8789,-7.8789,-7.8789,-7.8789,-7.8789,-7.8789,-7.8789,-7.9046,-8.0756,-8.2591,-8.4251,-8.5996,-8.8046,-8.9985,-9.0154,-9.0594,-9.1135,-9.144,-9.1541,-9.1711,-9.2489,-9.2658,-9.2827,-9.3436,-9.3571,-9.3639,-9.3774,-9.4417,-9.4992,-9.5161,-9.5635,-9.6074,-9.6244,-9.6142,-9.6074,-9.6244,-9.6277,-9.648,-9.7056,-9.7123,-9.7191,-9.7326,-9.7901,-9.875,-10.0229,-10.1209,-10.2657,-10.4579,-10.5429,-10.6811,-10.8953,-10.9169,-11.0151,-11.2432,-11.2689,-11.3497,-11.4818,-11.5002,-11.5406,-11.5993,-11.5993,-11.5993,-4.8497,-4.6807,-4.4494,-4.6727,-4.3853,-4.1015,-4.2206,-3.9165,-3.5759,-3.5035,-3.4966,-3.5429,-3.6784,-3.7814,-3.9798,-4.389,-4.6125,-4.9088,-5.4034,-5.6495,-5.8679,-6.0989,-6.2195,-6.2822,-6.2822,-6.2822,-6.3274,-6.4329,-6.5358,-6.5986,-6.6036,-6.6086,-6.6112,-6.6429,-6.8331,-6.9439,-6.9931,-7.3704,-7.5779,-7.593,-7.7828,-7.8789,-7.8789,-7.8789,-7.8789,-7.8789,-7.8789,-7.8789,-7.8789,-7.8789,-7.8789,-7.8789,-7.8789,-7.8789,-7.8789,-7.8789,-7.8789,-7.9046,-8.0756,-8.2591,-8.4251,-8.5996,-8.7712,-8.9309,-9.0019,-9.0256,-9.0594,-9.1947,-9.2319,-9.2489,-9.3267,-9.347,-9.3503,-9.3571,-9.3571,-9.3774,-9.4451,-9.5195,-9.5905,-9.6548,-9.6717,-9.6988,-9.7698,-9.7225,-9.7022,-9.7698,-9.78,-9.7834,-9.7901,-9.7901,-9.8172,-9.8815,-9.895,-9.9533,-10.1059,-10.2422,-10.3948,-10.5427,-10.6243,-10.7381,-10.8953,-10.9674,-11.0768,-11.2432,-11.3791,-11.4708,-11.4818,-11.5516,-11.5883,-11.5993,-11.5993,-11.5993,-4.792,-4.6279,-4.3797,-4.4501,-4.1991,-3.9785,-4.0796,-3.7714,-3.4679,-3.5137,-3.4669,-3.4525,-3.5529,-3.6684,-3.8542,-4.1656,-4.2986,-4.5271,-4.9916,-5.19,-5.4336,-5.8227,-5.996,-6.1366,0.0,0.0,-6.3274,-6.4379,-6.5484,-6.6112,-6.6112,-6.6112,-6.6112,-6.6112,-6.6916,-6.8022,-6.9274,-7.1041,-7.308,-7.56,-7.6409,-7.7505,-7.8789,-7.8789,-7.8789,-7.8789,-7.8789,-7.8789,-7.8789,-7.8789,-7.8789,-7.8789,-7.8789,-7.8789,-7.8789,-7.8789,-7.8789,-7.919,-8.2057,-8.3478,-8.4505,-8.7143,-8.8552,-8.9241,-8.9985,-9.0831,-9.1677,-9.2252,-9.2759,-9.3199,-9.3503,-9.3571,-9.3571,-9.3571,-9.3571,-9.3774,-9.4552,-9.5296,-9.6007,-9.6751,-9.7258,-9.7664,-9.7969,-9.7766,-9.7664,-9.7969,-9.8003,-9.8003,-9.8003,-9.8003,-9.8273,-9.9018,-9.9085,-9.9503,-10.0493,-10.1606,-10.2467,-10.2971,-10.4542,-10.6113,-10.7558,-10.931,-11.1058,-11.3093,-11.4194,-11.5002,-11.5516,-11.581,-11.5993,-11.5993,-11.5993,-11.5993,-4.7726,-4.6742,-4.4966,-4.4661,-4.2444,-4.0489,-4.0802,-3.7506,-3.4601,-3.5169,-3.455,-3.4073,-3.4625,-3.5931,-3.7663,-3.9898,-4.1003,-4.3062,-4.733,-4.9163,-5.1649,-5.5817,0.0,-5.9583,-6.1642,-6.2596,-6.3475,-6.4404,-6.5333,-6.5936,-6.6112,-6.6112,-6.6112,-6.6112,-6.6112,-6.6916,-6.8331,-6.897,-7.0718,-7.3704,-7.4992,-7.6409,-7.7828,-7.847,-7.8789,-7.8789,-7.8789,-7.8789,-7.8789,-7.8789,-7.8789,-7.8789,-7.8789,-7.8789,-7.8789,-7.8789,-7.8789,-7.9302,-8.2824,-8.3995,-8.4631,-8.7945,-8.9241,-8.9512,-9.0053,-9.1102,-9.2184,-9.2624,-9.3165,-9.3571,-9.3571,-9.3571,-9.3571,-9.3571,-9.3571,-9.3842,-9.4823,-9.5432,-9.6074,-9.7022,-9.7631,-9.8003,-9.8003,-9.8172,-9.824,-9.8037,-9.8375,-9.8578,-9.8341,-9.8544,-9.895,-9.9694,-9.9762,-9.9999,-10.0506,-10.1284,-10.1945,-10.2348,-10.4243,-10.6029,-10.7667,-11.0008,-11.2154,-11.3901,-11.4708,-11.5406,-11.5993,-11.5993,-11.5993,-11.5993,-11.5993,-11.6283,-4.7601,-4.8194,-4.8205,-4.8205,-4.5788,-4.3128,-4.2404,-3.8836,-3.5413,-3.481,-3.4299,-3.4073,-3.4625,-3.5629,-3.7111,-3.9346,-4.1078,-4.3514,-4.7405,-4.9866,-5.2101,0.0,-5.6068,-5.7725,-5.9357,-6.2044,-6.3902,-6.4429,-6.4982,0.0,-6.6086,-6.6112,-6.6112,-6.6112,-6.6112,-6.6112,-6.6112,-6.8164,-6.9274,-6.9439,-7.3549,-7.56,-7.5779,-7.7828,-7.8789,-7.8789,-7.8789,-7.8789,-7.8789,-7.8789,-7.8789,-7.8789,-7.8789,-7.8789,-7.8789,-7.8789,-7.8789,-7.9302,-8.2824,-8.3995,-8.4631,-8.7945,-8.9579,-9.0188,-9.0222,-9.0729,-9.1609,-9.3131,-9.3571,-9.3571,-9.3571,-9.3571,-9.3571,-9.3571,-9.3571,-9.3977,-9.5466,-9.5804,-9.6244,-9.7698,-9.8003,-9.8003,-9.8003,-9.8612,-9.8848,-9.8104,-9.9254,-9.9931,-9.9187,-9.9728,-10.0506,-10.1284,-10.1386,-10.1386,-10.1386,-10.2096,-10.3166,-10.452,-10.5959,-10.7808,-11.0044,-11.2415,-11.4011,-11.4818,-11.5589,-11.5993,-11.5993,-11.5993,-11.5993,-11.5993,-11.5993,-11.6969,-4.4266,-4.4572,-4.411,-4.3609,-4.226,-4.0755,-3.9872,-3.7566,-3.5413,-3.4785,-3.4274,-3.4073,-3.4625,-3.5303,-3.7036,-4.0777,-4.1806,-4.3388,-4.6903,-4.964,0.0,-5.431,-5.8378,-6.119,0.0,0.0,-6.3751,-6.3927,-6.4781,-6.5358,-6.5534,-6.5911,-6.6112,-6.6112,-6.6112,-6.6112,-6.6112,-6.6746,-6.7854,-6.9274,-7.0718,-7.2766,-7.56,-7.6259,-7.7358,-7.8789,-7.8789,-7.8789,-7.8789,-7.8789,-7.8789,-7.8789,-7.8789,-7.8789,-7.8789,-7.8789,-7.8789,-7.9302,-8.2824,-8.3995,-8.4696,-8.8547,-9.0019,-9.0391,-9.1406,-9.188,-9.2286,-9.33,-9.3571,-9.3571,-9.3571,-9.3571,-9.3706,-9.4214,-9.4349,-9.4755,-9.621,-9.6548,-9.6819,-9.78,-9.8003,-9.8172,-9.8645,-9.895,-9.9187,-9.9491,-9.9931,-10.0134,-9.9897,-10.01,-10.0506,-10.1284,-10.1386,-10.1589,-10.2096,-10.2401,-10.3166,-10.452,-10.6037,-10.7808,-11.0144,-11.2378,-11.3974,-11.4818,-11.5589,-11.5993,-11.5993,-11.5993,-11.5993,-11.5956,-11.6652,-11.7591,-4.2062,-4.3434,-4.3831,-4.3206,-4.2102,-4.0737,-3.9483,-3.7525,-3.5502,-3.4047,-3.3473,-3.335,-3.3695,-3.4019,-3.5698,-3.9669,-4.0632,-4.2103,-4.593,-4.8711,0.0,-5.4787,0.0,0.0,0.0,-6.2772,-6.345,-6.3676,-6.4304,-6.4781,-6.4982,-6.5308,-6.5484,-6.5484,-6.5886,-6.6112,-6.6112,-6.6112,-6.6746,-6.819,-6.9768,-7.1843,-7.4533,-7.608,-7.7505,-7.8789,-7.8789,-7.8789,0.0,-7.8789,-7.8789,-7.8789,-7.8789,-7.8789,-7.8789,-7.8789,-7.919,-8.023,-8.2956,-8.4539,-8.587,-8.9148,-9.0594,-9.1271,-9.2489,-9.2861,-9.2962,-9.3436,-9.3571,-9.3571,-9.3571,-9.3808,-9.4112,-9.4586,-9.4924,-9.5432,-9.6616,-9.6886,-9.7089,-9.7867,-9.824,-9.8578,-9.9018,-9.9559,-9.9999,-10.0202,-10.0709,-10.1014,-10.0709,-10.0912,-10.1318,-10.1792,-10.1792,-10.1995,-10.2502,-10.3039,-10.3898,-10.5354,-10.7093,-10.9106,-11.1372,-11.3132,-11.4415,-11.5185,-11.5699,-11.5993,-11.5993,-11.5993,-11.5993,-11.5956,-11.7006,-11.7866,0.0,-4.3614,-4.5648,-4.5623,-4.4066,-4.2133,-4.0526,-3.8191,0.0,-3.2822,-3.2213,-3.2261,-3.2357,-3.2553,-3.3714,-3.7047,-3.824,-4.0217,-4.4817,-4.7633,0.0,0.0,-5.8453,0.0,-6.0437,-6.1918,-6.3048,-6.3576,-6.3676,-6.3902,-6.4379,-6.4454,-6.4454,-6.4454,-6.5459,-6.5986,-6.5986,-6.5986,-6.6011,-6.6061,-7.0204,-7.2292,-7.2664,-7.6736,-7.8644,-7.8789,-7.8789,-7.8789,-7.8789,-7.8789,-7.8789,-7.8789,-7.8789,-7.8789,-7.8789,-7.8789,-7.9839,-8.1683,-8.3348,-8.5555,-8.781,-8.973,-9.1305,-9.2624,-9.3368,-9.3571,-9.3571,-9.3571,-9.3571,-9.3571,-9.3571,-9.4146,-9.4721,-9.4789,-9.533,-9.6074,-9.6819,-9.6954,-9.7157,-9.7867,-9.8612,-9.9119,-9.9153,-10.0405,-10.1183,-10.0506,-10.1622,-10.2299,-10.1589,-10.2096,-10.2502,-10.2502,-10.2502,-10.2502,-10.2502,-10.3776,-10.5343,-10.6771,-10.9004,-11.1167,-11.3644,-11.4415,-11.5185,-11.5993,-11.5993,-11.5993,-11.5993,-11.5993,-11.5993,-11.5956,-11.7015,-11.7979,-3.6182,0.0,-3.922,-3.8793,-3.8617,-3.8216,0.0,-3.6207,-3.5311,-3.3792,-3.3429,-3.3916,-3.5158,-3.4269,-3.5079,-4.0739,-4.0992,-4.1513,-4.4828,-4.9318,0.0,-5.9403,-6.1215,-6.2094,-6.222,-6.2596,-6.2898,-6.3023,-6.345,-6.3751,-6.3877,-6.4254,-6.4454,-6.4454,-6.4731,-6.4856,-6.4856,-6.4856,-6.5057,-6.5484,-6.8202,-7.0475,-7.2664,-7.5145,-7.721,-7.8789,-7.8789,-7.8789,-7.8789,-7.8789,-7.8789,-7.8789,-7.8789,-7.8789,-7.8789,-7.8789,-7.9839,-8.1683,-8.3348,-8.5231,-8.7215,-9.0134,-9.2083,-9.3334,-9.3537,-9.3571,-9.3571,-9.3571,-9.3571,-9.3571,-9.3571,-9.4146,-9.4857,-9.5398,-9.6108,-9.6819,-9.7597,-9.7732,-9.78,-9.7969,-9.8612,-9.9288,-9.9863,-10.0777,-10.1487,-10.1893,-10.2299,-10.2401,-10.2299,-10.2401,-10.2502,-10.2502,-10.2502,-10.2502,-10.2502,-10.3776,-10.5518,-10.7549,-10.9326,-11.1493,-11.436,-11.4708,-11.5185,-11.5993,-11.5993,-11.5993,-11.5993,-11.5993,-11.5993,-11.6048,-11.767,-11.8605,-3.2466,-3.501,-3.7766,-3.6751,-3.7023,-3.7142,-3.5573,-3.4922,-3.437,-3.2941,-3.268,-3.3097,-3.4563,-3.3188,-3.365,-3.9067,-3.9216,-4.0318,-4.5275,-5.0854,-5.5698,-5.9354,-6.1471,-6.2822,0.0,-6.2822,-6.2822,-6.2822,-6.3124,-6.3299,-6.3299,-6.355,-6.3726,-6.3726,-6.3726,-6.3952,-6.4454,-6.4454,-6.4605,-6.4906,-6.7134,-6.9455,-7.2221,-7.426,-7.6592,-7.8789,-7.8789,-7.8789,-7.8789,-7.8789,-7.8789,-7.8789,-7.8789,-7.8789,-7.8789,-7.8789,-8.037,-8.2692,-8.3608,-8.6053,-8.9115,-9.1175,-9.2624,-9.3571,-9.3571,-9.3571,-9.3571,-9.3571,-9.3571,-9.3673,-9.4011,-9.4654,-9.5398,-9.6108,-9.6853,-9.7495,-9.7935,-9.8003,-9.8003,-9.8003,-9.8882,-9.9728,-10.0134,-10.1115,-10.1995,-10.2401,-10.2502,-10.2502,-10.2502,-10.2502,-10.2502,-10.2502,-10.2502,-10.2603,-10.3009,-10.4291,-10.5689,-10.6854,-10.8944,-11.1008,-11.2663,-11.366,-11.4846,-11.5993,-11.5993,-11.5993,-11.5993,-11.5993,-11.6193,-11.6701,-11.8056,-11.8984,-2.9964,-3.3882,-3.7755,-3.59,-3.6295,-3.6528,-3.4492,-3.3741,-3.2959,-3.1466,-3.1149,-3.1572,-3.2889,-3.1671,-3.1891,-3.6133,-3.6728,-3.9192,-4.6581,-5.1954,-5.5906,-5.8084,-6.0957,0.0,-6.2822,-6.2822,-6.2822,-6.2822,-6.2822,-6.2822,-6.2822,-6.2822,-6.2822,-6.2822,-6.2822,-6.3274,-6.4203,-6.4228,-6.4254,-6.4354,-6.6834,-6.9155,-7.1584,-7.4057,-7.6447,-7.8639,-7.8639,-7.8699,-7.8789,-7.8789,-7.8789,-7.8789,-7.8789,-7.8789,-7.8789,-7.8789,-8.1001,-8.4123,-8.4631,-8.759,-9.1406,-9.2049,-9.2861,-9.3571,-9.3571,-9.3571,-9.3571,-9.3571,-9.3571,-9.3774,-9.4518,-9.5263,-9.5973,-9.6717,-9.7461,-9.8003,-9.8003,-9.8003,-9.8037,-9.8172,-9.9288,-10.0235,-10.0405,-10.1589,-10.2502,-10.2502,-10.2502,-10.2502,-10.2502,-10.2502,-10.2502,-10.2502,-10.2603,-10.2908,-10.3517,-10.4933,-10.5834,-10.5834,-10.8547,-11.0533,-11.0826,-11.2905,-11.4666,-11.5993,-11.5993,-11.5993,-11.5993,-11.5993,-11.6513,-11.7389,-11.8389,-11.9288,-3.0823,-3.2971,-3.4357,-3.1208,-3.1683,-3.2497,-3.1067,-3.0959,-3.1122,-3.0841,-3.106,-3.1915,-3.384,-3.3159,-3.3853,-3.8642,-4.0094,-4.3028,-5.0383,-5.2017,-5.455,-6.0069,0.0,-6.2822,-6.2822,-6.2822,-6.2822,-6.2822,-6.2822,-6.2822,-6.2822,-6.2822,-6.2822,-6.2822,-6.2822,-6.2898,-6.3073,-6.3073,-6.3324,-6.3802,-6.7611,-6.9906,-7.0975,-7.481,-7.7039,-7.7951,0.0,-7.828,-7.8789,-7.8789,-7.8789,-7.8789,-7.8789,-7.8789,-7.8789,-7.8789,-8.1001,-8.4378,-8.7294,-8.9677,-9.1305,-9.144,-9.2421,-9.3571,-9.3571,-9.3571,-9.3571,-9.3571,-9.3571,-9.3774,-9.4518,-9.5263,-9.5973,-9.6717,-9.7461,-9.8003,-9.8003,-9.8003,-9.8172,-9.8815,-9.9627,-10.0405,-10.1081,-10.1893,-10.2502,-10.2502,-10.2502,-10.2502,-10.2502,-10.2502,-10.2502,-10.2502,-10.3077,-10.3483,-10.3585,-10.4998,-10.5807,-10.5807,-10.8587,-11.1189,-11.3049,-11.4826,-11.5808,-11.5993,-11.5993,-11.5993,-11.5993,-11.5993,-11.6513,-11.7389,-11.8389,-11.9288,-2.8334,-2.9661,-3.0641,-2.8932,-3.1456,-3.392,-3.2147,-3.1941,-3.2059,-3.2059,-3.2236,-3.29,-3.4669,-3.4474,-3.5293,-3.8978,-4.0959,-4.3772,-4.8742,-5.1288,-5.4257,0.0,0.0,-6.2496,-6.2797,-6.2822,-6.2822,-6.2822,-6.2822,-6.2822,-6.2822,-6.2822,-6.2822,-6.2822,-6.2822,-6.2822,-6.2822,-6.2822,-6.2948,-6.3224,-6.518,-6.7448,-7.0339,-7.2148,-7.4838,-7.7801,0.0,-7.819,-7.8789,-7.8789,-7.8789,-7.8789,-7.8789,-7.8789,-7.8933,-7.9839,-8.1787,-8.4251,-8.5784,-8.8495,-9.1156,-9.027,-9.1547,-9.3571,-9.3571,-9.3571,-9.3673,-9.4079,-9.418,-9.4349,-9.5093,-9.5838,-9.6582,-9.7326,-9.7766,-9.8003,-9.8003,-9.8003,-9.824,-9.895,-9.9694,-10.0506,-10.1284,-10.1995,-10.2502,-10.2502,-10.2502,-10.2502,-10.2502,-10.2502,-10.2705,-10.3077,-10.3382,-10.3889,-10.4701,-10.5411,-10.5986,-10.6392,-10.848,-11.0486,-11.2446,-11.3993,-11.5152,-11.5993,-11.5993,-11.5993,-11.5993,-11.5993,-11.6751,-11.8206,-11.8568,-11.9584,-2.6586,-2.7441,-2.8418,-2.8281,-3.1519,-3.4461,-3.321,-3.2755,-3.2812,-3.324,-3.3433,-3.3818,-3.4984,-3.5727,-3.7011,-3.9269,-4.1484,-4.4079,-4.7517,-5.0991,-5.4436,-5.8156,-6.0626,-6.222,-6.2772,-6.2722,-6.2647,-6.2647,-6.2521,-6.2446,-6.2446,-6.2446,-6.2446,-6.2446,-6.2446,-6.2446,-6.2446,-6.2571,-6.2697,-6.2822,-6.3746,-6.6081,-6.955,-7.0604,-7.3326,-7.7382,-7.7382,-7.7831,-7.8549,-7.8549,-7.8639,-7.8789,-7.8789,-7.8789,-7.9046,-8.0756,-8.2191,-8.3478,-8.3866,-8.6699,-8.9999,-8.9089,-9.0638,-9.3029,-9.3453,-9.3571,-9.374,-9.4485,-9.4823,-9.5127,-9.5872,-9.648,-9.7089,-9.7834,-9.8003,-9.8003,-9.8003,-9.8138,-9.8476,-9.9221,-9.9965,-10.0709,-10.1487,-10.2096,-10.2502,-10.2502,-10.2502,-10.2603,-10.2705,-10.2806,-10.3009,-10.3787,-10.399,-10.4599,-10.5919,-10.6419,-10.6852,-10.743,-10.8873,-11.0441,-11.1968,-11.3334,-11.4826,-11.5993,-11.5993,-11.5993,-11.5993,-11.5993,-11.7006,-11.8778,-11.8778,-11.9832,-2.8359,-2.8789,-2.9062,-2.9824,-3.0108,-3.0399,-3.1348,-3.1368,-3.1466,-3.306,-3.3709,-3.4024,-3.4231,-3.6838,-3.9426,-4.0781,-4.2851,-4.5835,-5.06,0.0,-5.509,-6.0378,-6.1507,-6.222,-6.2772,-6.237,-6.2069,-6.2069,-6.1592,-6.1291,-6.1291,-6.1291,-6.1291,-6.1291,-6.1291,-6.1291,-6.1291,-6.1818,-6.232,-6.2822,-6.6623,-6.8614,-6.9121,-7.2857,-7.5041,-7.6036,-7.6036,-7.6724,-7.7891,-7.7891,-7.825,-7.8789,-7.8789,-7.8789,-7.9046,-8.0756,-8.1411,-8.1787,-8.3478,-8.5052,-8.6759,-8.8316,-8.9833,-9.143,-9.3062,-9.3571,-9.374,-9.4485,-9.5195,-9.5872,-9.6616,-9.6853,-9.7089,-9.7834,-9.8003,-9.8003,-9.8003,-9.8544,-9.9221,-9.9999,-10.0777,-10.1487,-10.2299,-10.2502,-10.2502,-10.2502,-10.2502,-10.2705,-10.3415,-10.3517,-10.3787,-10.4498,-10.5208,-10.5986,-10.6798,-10.8076,-10.8929,-10.8964,-11.0476,-11.2043,-11.351,-11.496,-11.5901,-11.5993,-11.5993,-11.5993,-11.5993,-11.5993,-11.7006,-11.8778,-11.8778,-11.9832,-2.7598,-2.8125,-2.873,-2.959,-3.0098,-3.0859,-3.2695,-3.3613,-3.4492,-3.5918,-3.6348,-3.6543,-3.6816,-3.8594,-4.0351,-4.1387,-4.3379,-4.6446,-5.0916,-5.2434,-5.4812,-6.0039,-6.0839,-6.119,-6.1743,-6.1617,-6.1492,-6.1492,-6.1291,-6.119,-6.119,-6.119,-6.119,-6.119,-6.119,-6.119,-6.119,-6.1391,-6.1768,-6.232,-6.5529,-6.7675,-6.9038,-7.1712,-7.4026,-7.5916,-7.5916,-7.6634,-7.7801,-7.7801,-7.819,-7.8789,-7.8789,-7.8789,-7.8933,-7.9587,-8.0509,-8.1275,-8.0863,-8.2786,-8.5629,-8.6856,-8.8594,-9.0677,-9.2894,-9.3571,-9.3842,-9.506,-9.5567,-9.5973,-9.6683,-9.7225,-9.7664,-9.7935,-9.8003,-9.8003,-9.8003,-9.8578,-9.9322,-10.01,-10.0811,-10.1589,-10.2401,-10.2502,-10.2502,-10.2502,-10.2908,-10.328,-10.3585,-10.399,-10.4566,-10.531,-10.602,-10.6595,-10.69,-10.8273,-10.9548,-11.0629,-11.2008,-11.3124,-11.3716,-11.5189,-11.5993,-11.5993,-11.5993,-11.5993,-11.5993,-11.5993,-11.7006,-11.8778,-11.8778,-11.9832,-2.7461,-2.7851,-2.8496,-2.9355,-3.0332,-3.1719,-3.4141,-3.5371,-3.6543,-3.8359,-3.8516,-3.8496,-3.9082,-3.9922,-4.0801,-4.166,-4.3613,-4.6629,-5.0938,-5.2294,-5.4742,-5.974,-6.0311,-6.0537,-6.1115,-6.1014,-6.0914,-6.0914,-6.0738,-6.0638,-6.0638,-6.0638,-6.0638,-6.0638,-6.0638,-6.0638,-6.0638,-6.0814,-6.109,-6.1466,-6.4299,-6.6719,-6.9038,-7.1568,-7.3908,-7.5587,-7.5587,-7.6185,-7.7233,-7.7412,-7.8011,-7.8789,-7.8789,-7.8789,-7.8789,-7.8789,-7.9587,-8.037,-7.919,-8.0798,-8.3692,-8.5588,-8.747,-8.9656,-9.2674,-9.3571,-9.3909,-9.5364,-9.5804,-9.6007,-9.6988,-9.7631,-9.8003,-9.8003,-9.8003,-9.8003,-9.8003,-9.8781,-9.9593,-10.0134,-10.1014,-10.1893,-10.2401,-10.2502,-10.2502,-10.2502,-10.3111,-10.3686,-10.3889,-10.4599,-10.531,-10.6088,-10.6595,-10.69,-10.69,-10.8782,-11.0392,-11.1369,-11.3334,-11.4359,-11.4359,-11.5379,-11.5993,-11.5993,-11.5993,-11.5993,-11.5993,-11.5993,-11.7006,-11.8778,-11.8778,-11.9832,-2.8398,-2.8281,-2.8496,-2.9355,-3.0566,-3.2344,-3.5351,-3.6035,-3.6914,-3.9922,-3.9844,-3.9492,-4.0371,-4.0547,-4.082,-4.166,-4.3613,-4.6461,-5.0938,0.0,0.0,-5.974,-6.0311,-6.0537,-6.1115,-6.0638,-6.0311,-6.0311,-5.9809,-5.9483,-5.9483,-5.9483,-5.9483,-5.9483,-5.9483,-5.9483,-5.9483,-6.0035,-6.0311,-6.0337,-6.3519,-6.6316,-6.9038,-7.3082,-7.4869,-7.4869,-7.4869,-7.5258,-7.5946,-7.6574,-7.7622,-7.8789,-7.8789,-7.8789,-7.8789,-7.8789,-7.8789,-7.8789,-7.8789,-7.9238,-8.0418,-8.4789,-8.6687,-8.8051,-9.2246,-9.3571,-9.3876,-9.5364,-9.577,-9.6142,-9.7597,-9.8003,-9.8003,-9.8003,-9.8003,-9.8003,-9.8003,-9.9187,-10.0235,-10.0235,-10.1419,-10.2502,-10.2502,-10.2502,-10.2502,-10.2502,-10.3111,-10.3889,-10.4599,-10.5377,-10.6088,-10.6798,-10.69,-10.69,-10.69,-10.9757,-11.1518,-11.1518,-11.4296,-11.5993,-11.5993,-11.5993,-11.5993,-11.5993,-11.5993,-11.5993,-11.5993,-11.5993,-11.7006,-11.8778,-11.8778,-11.9832,-2.7226,-2.7812,-2.8945,-2.9805,-3.1894,-3.4394,-3.6816,-3.7832,-3.9043,-4.1758,-4.1875,-4.1465,-4.1426,-4.166,-4.1933,-4.2207,-4.3555,-4.5637,-4.8847,0.0,0.0,0.0,-5.8748,-5.9809,-5.9985,-5.9834,-5.9734,-5.9734,-5.9583,-5.9483,-5.9483,-5.9483,-5.9483,-5.9483,-5.9483,-5.9483,-5.9483,-5.9659,-5.9935,-6.0311,-6.4027,-6.6641,-6.8401,-7.1367,-7.3503,-7.4869,-7.4869,-7.5258,-7.5976,-7.7083,-7.8011,-7.8789,-7.8789,-7.8789,-7.8789,-7.8789,-7.8789,-7.8789,-7.8789,-7.8938,-7.9581,-8.2634,-8.4891,-8.6786,-8.8571,-9.0341,-9.1911,-9.2841,-9.3472,-9.4356,-9.6675,-9.7597,-9.8003,-9.8003,-9.8003,-9.8003,-9.8003,-9.9187,-10.0235,-10.0235,-10.1419,-10.2502,-10.2502,-10.2502,-10.2705,-10.3212,-10.3889,-10.4802,-10.6088,-10.6392,-10.6697,-10.69,-10.69,-10.69,-10.69,-10.9757,-11.1518,-11.1518,-11.4296,-11.5993,-11.5993,-11.5993,-11.5993,-11.5993,-11.5993,-11.5993,-11.5993,-11.5993,-11.7006,-11.8778,-11.8778,-11.9832,-2.793,-2.8652,-2.9805,-3.1348,-3.3223,-3.5488,-3.8516,-3.9883,-4.1016,-4.293,-4.2851,-4.2402,-4.2324,-4.2383,-4.248,-4.2656,-4.3652,-4.529,-4.7773,0.0,0.0,0.0,-5.7745,-5.9182,-5.9182,-5.9182,-5.9182,-5.9182,-5.8981,-5.8956,-5.9182,-5.9182,-5.9282,-5.9483,-5.9483,-5.9483,-5.9483,-5.9483,-6.0097,-6.1172,-6.3724,-6.6249,-6.8594,-7.139,-7.3576,-7.4869,-7.4869,-7.5258,-7.5976,-7.6993,-7.7801,-7.843,-7.8699,-7.8789,-7.8789,-7.8789,-7.8789,-7.8789,-7.8789,-7.8789,-7.9197,-8.1971,-8.3881,-8.5469,-8.7125,-8.8632,-9.0098,-9.1624,-9.2476,-9.3621,-9.6282,-9.7428,-9.8003,-9.8003,-9.8003,-9.8003,-9.8003,-9.9187,-10.0235,-10.0235,-10.1419,-10.2502,-10.2502,-10.2502,-10.2705,-10.3111,-10.399,-10.5107,-10.6291,-10.6697,-10.69,-10.69,-10.69,-10.71,-10.7858,-11.0154,-11.1744,-11.2337,-11.4666,-11.5993,-11.5993,-11.5993,-11.5993,-11.5993,-11.5993,-11.5993,-11.5993,-11.5993,-11.6788,-11.828,-11.8638,-11.9609,-2.9492,-3.0117,-3.0918,-3.3398,-3.457,-3.6191,-4.0351,-4.1875,-4.2676,-4.3535,-4.3086,-4.2676,-4.3066,-4.2812,-4.2676,-4.3066,-4.3808,-4.4984,-4.7049,-4.9664,0.0,0.0,-5.6878,-5.8654,-5.8654,-5.8654,-5.8654,-5.8654,-5.8177,-5.8127,-5.8629,-5.8654,-5.8855,-5.9332,-5.9408,-5.9433,-5.9433,-5.9483,-6.0507,-6.2413,-6.3064,-6.5373,-6.9229,-7.2247,-7.4104,-7.4869,-7.4869,-7.5258,-7.5946,-7.6574,-7.7233,-7.7861,-7.8519,-7.8789,-7.8789,-7.8789,-7.8789,-7.8789,-7.8789,-7.8789,-7.9257,-8.217,-8.3333,-8.4061,-8.6664,-8.7653,-8.8449,-9.0978,-9.2282,-9.3459,-9.6058,-9.7394,-9.8003,-9.8003,-9.8003,-9.8003,-9.8003,-9.9119,-10.0134,-10.0202,-10.1419,-10.2401,-10.2502,-10.2502,-10.2502,-10.2603,-10.3889,-10.5005,-10.5716,-10.6392,-10.69,-10.69,-10.69,-10.7465,-10.9123,-11.0594,-11.2154,-11.3577,-11.5152,-11.5993,-11.5993,-11.5993,-11.5993,-11.5993,-11.5993,-11.5993,-11.5993,-11.5993,-11.6513,-11.7389,-11.8316,-11.9223,-2.7695,-2.9434,-3.1601,-3.3164,-3.5918,-3.8926,-4.1562,-4.2305,-4.2676,-4.3535,-4.3555,-4.3457,-4.3555,-4.3496,-4.3457,-4.3555,-4.373,0.0,-4.4965,-4.8435,-5.1176,-5.2036,-5.5564,-5.8077,-5.8077,-5.8077,-5.8077,-5.8077,-5.7976,-5.7951,-5.8077,-5.8077,-5.8127,-5.8227,-5.8654,-5.888,-5.888,-5.9282,-6.0507,-6.2413,-6.4083,-6.6226,-6.9229,-7.0778,-7.2746,-7.4869,-7.4869,-7.5258,-7.5946,-7.6574,-7.7233,-7.7861,-7.8519,-7.8789,-7.8789,-7.8789,-7.8789,-7.8789,-7.8789,-7.8789,-7.8963,-7.9664,-8.1501,-8.3348,-8.258,-8.4095,-8.6463,-8.8481,-8.9983,-9.1822,-9.5139,-9.7022,-9.8003,-9.8003,-9.8003,-9.8003,-9.8003,-9.8713,-9.9525,-10.01,-10.1014,-10.1792,-10.2401,-10.2502,-10.2705,-10.328,-10.4599,-10.5614,-10.5817,-10.6392,-10.69,-10.69,-10.69,-10.7465,-10.9123,-11.0594,-11.2154,-11.3577,-11.5152,-11.5993,-11.5993,-11.5993,-11.5993,-11.5993,-11.5993,-11.5993,-11.5993,-11.5993,-11.6513,-11.7389,-11.7591,-11.8242,-2.8223,-3.0,-3.2168,-3.4902,-3.7578,-3.998,-4.1738,-4.2129,-4.2363,-4.3223,-4.3555,-4.3711,-4.3711,-4.3711,-4.3711,0.0,0.0,0.0,0.0,-4.7708,-5.0457,-5.0726,-5.476,-5.7474,-5.7474,-5.7474,-5.7474,-5.7474,-5.7248,-5.7198,-5.7474,-5.7474,-5.76,-5.7901,-5.8177,-5.8328,-5.8328,-5.8604,-6.0294,-6.3371,-6.4347,-6.6817,-7.0514,-7.1806,-7.3044,-7.442,-7.4749,-7.5078,-7.5467,-7.6125,-7.6754,-7.7412,-7.8071,-7.8519,-7.8789,-7.8789,-7.8789,-7.8789,-7.8789,-7.8789,-7.8849,-7.9178,-8.0411,-8.1622,-8.1329,-8.2434,-8.4382,-8.7413,-8.8955,-9.0801,-9.4747,-9.6616,-9.7563,-9.7935,-9.8003,-9.8003,-9.8003,-9.8578,-9.9322,-10.01,-10.0811,-10.1589,-10.2401,-10.2502,-10.2603,-10.3009,-10.4295,-10.5276,-10.5276,-10.6189,-10.69,-10.69,-10.763,-10.8621,-11.0154,-11.1708,-11.316,-11.4728,-11.5584,-11.5993,-11.5993,-11.5993,-11.5993,-11.5993,-11.5993,-11.5993,-11.5993,-11.5993,-11.632,-11.6751,-11.7181,-11.7707,-2.873,-3.0605,-3.2832,-3.6914,-3.8926,-4.0215,-4.1406,-4.1758,-4.2012,-4.2812,-4.3301,-4.3613,-4.3691,-4.3711,0.0,0.0,0.0,0.0,0.0,0.0,-4.9986,-4.9986,-5.4111,-5.6897,-5.6897,-5.6897,-5.6897,-5.6897,-5.647,-5.642,-5.6872,-5.6897,-5.7123,-5.76,-5.77,-5.775,-5.775,-5.7851,-6.0059,-6.4276,-6.4944,-6.7573,-7.1757,-7.2984,-7.3672,-7.3911,-7.448,-7.4779,-7.4929,-7.5617,-7.6275,-7.6904,-7.7562,-7.822,-7.8789,-7.8789,-7.8789,-7.8789,-7.8789,-7.8789,-7.8878,-7.9447,-7.9716,-8.0045,-8.1242,-8.196,-8.3143,-8.7043,-8.8969,-9.0747,-9.4602,-9.6244,-9.7022,-9.7664,-9.7901,-9.8003,-9.8003,-9.8476,-9.9119,-9.9897,-10.0777,-10.1589,-10.2401,-10.2502,-10.2502,-10.2502,-10.3618,-10.4566,-10.4667,-10.5885,-10.6798,-10.69,-10.8307,-10.9757,-11.1404,-11.2877,-11.4432,-11.5864,-11.5993,-11.5993,-11.5993,-11.5993,-11.5993,-11.5993,-11.5993,-11.5993,-11.5993,-11.5993,-11.5993,-11.5956,-11.6751,-11.7218,-2.6113,-2.9687,-3.3926,-3.7129,-3.8926,-4.0137,-4.1055,-4.1543,-4.1933,0.0,-4.2851,-4.3281,-4.3633,0.0,0.0,0.0,0.0,0.0,0.0,0.0,-4.9986,-4.9986,-5.3774,-5.6319,-5.6319,-5.6319,-5.6319,-5.6319,-5.6244,-5.6244,-5.6319,-5.6319,-5.6344,-5.642,-5.6897,-5.7148,-5.7148,-5.765,-5.9731,-6.3529,-6.7434,-6.9903,-7.1068,-7.1816,-7.2804,-7.3881,-7.4001,-7.436,-7.4929,-7.5617,-7.6275,-7.6904,-7.7562,-7.822,-7.8789,-7.8789,-7.8789,-7.8789,-7.8789,-7.8789,-7.8789,-7.8878,-7.9327,-7.9956,-8.0704,-8.2389,-8.4745,-8.7454,-8.9901,-9.211,-9.4274,-9.5872,-9.692,-9.7022,-9.7529,-9.8003,-9.8003,-9.807,-9.8375,-9.9085,-10.0405,-10.1589,-10.2401,-10.2502,-10.2502,-10.2502,-10.3212,-10.399,-10.4599,-10.5411,-10.6189,-10.6798,-10.8307,-10.9757,-11.1404,-11.2877,-11.4432,-11.5864,-11.5993,-11.5993,-11.5993,-11.5993,-11.5993,-11.5993,-11.5993,-11.5993,-11.5993,-11.5993,-11.5993,-11.5993,-11.6103,-11.623,-2.7168,-3.043,-3.3789,-3.6816,-3.8184,-3.9141,-4.0508,-4.0957,-4.1269,-4.1933,-4.2226,0.0,0.0,0.0,0.0,0.0,0.0,0.0,0.0,0.0,-4.8597,-4.9853,-5.2646,-5.4967,-5.6047,-5.6219,-5.6219,-5.6219,-5.6219,-5.6219,-5.6219,-5.6219,-5.6219,-5.6219,-5.6445,-5.657,-5.657,-5.6821,-5.9019,-6.3058,-6.7786,-7.0111,-7.041,-7.1038,-7.2056,-7.3373,-7.3732,-7.427,-7.4899,-7.5198,-7.5707,-7.6365,-7.7023,-7.7652,-7.828,-7.8639,-7.8789,-7.8789,-7.8789,-7.8789,-7.8789,-7.8789,-7.8998,-7.9447,-8.0494,-8.2345,-8.4497,-8.7462,-8.974,-9.1867,-9.4193,-9.5195,-9.5872,-9.6683,-9.7123,-9.7495,-9.7901,-9.8003,-9.8341,-9.9491,-10.0608,-10.1589,-10.2401,-10.2502,-10.2502,-10.2502,-10.3111,-10.3889,-10.4566,-10.531,-10.6419,-10.7947,-10.9583,-11.114,-11.259,-11.4159,-11.5321,-11.603,-11.5993,-11.5993,-11.5993,-11.5993,-11.5993,-11.5993,-11.5993,-11.5993,-11.5993,-11.5993,-11.5993,-11.5993,-11.5993,-11.5993,-2.7656,-3.0176,-3.2383,-3.5391,-3.6894,-3.8008,-3.9512,0.0,-4.0586,0.0,0.0,0.0,0.0,0.0,0.0,0.0,0.0,0.0,0.0,0.0,-4.7326,-4.9047,-5.1555,-5.3726,-5.5287,-5.5901,-5.6219,-5.6219,-5.6219,-5.6219,-5.6219,-5.6219,-5.6219,-5.6219,-5.6219,-5.6219,-5.6219,-5.7159,-5.9193,-6.2643,-6.7318,-6.9662,-6.9991,-7.047,-7.1398,-7.2684,-7.3343,-7.4031,-7.4629,-7.4809,-7.5288,-7.5976,-7.6574,-7.7233,-7.7891,-7.8549,-7.8789,-7.8789,-7.8789,-7.8789,-7.8789,-7.8789,-7.8789,-7.9028,-8.0375,-8.2101,-8.4092,-8.7367,-8.9545,-9.1437,-9.3856,-9.4552,-9.5026,-9.6311,-9.6751,-9.7089,-9.7834,-9.8003,-9.8442,-9.9931,-10.0709,-10.1386,-10.2299,-10.2502,-10.2502,-10.2502,-10.3009,-10.3686,-10.4566,-10.5174,-10.6477,-10.886,-11.0594,-11.2043,-11.3613,-11.5056,-11.5993,-11.5993,-11.5993,-11.5993,-11.5993,-11.5993,-11.5993,-11.5993,-11.5993,-11.5993,-11.5993,-11.5993,-11.5993,-11.5993,-11.5993,-11.5993,-2.5605,-2.7519,-2.9258,-3.2285,-3.4902,-3.6973,0.0,0.0,0.0,0.0,0.0,0.0,0.0,0.0,0.0,0.0,0.0,0.0,0.0,0.0,-4.6867,-4.7027,-5.0607,-5.31,-5.3251,-5.4967,-5.6219,-5.6219,-5.6219,-5.6219,-5.6219,-5.6219,-5.6219,-5.6219,-5.6219,-5.6219,-5.6219,-5.9574,-6.1764,-6.2643,-6.6382,-6.8734,-6.9991,-7.0021,-7.0739,-7.1966,-7.2654,-7.3343,-7.4001,-7.4629,-7.5288,-7.5976,-7.6574,-7.7233,-7.7891,-7.8549,-7.8789,-7.8789,-7.8789,-7.8789,-7.8789,-7.8789,-7.8789,-7.9028,-8.0375,-8.2101,-8.4092,-8.7367,-8.9545,-9.1305,-9.3216,-9.418,-9.4924,-9.5669,-9.6379,-9.7089,-9.7834,-9.8003,-9.8442,-9.9931,-10.0235,-10.0743,-10.2231,-10.2502,-10.2502,-10.2502,-10.2502,-10.3077,-10.4498,-10.4701,-10.5865,-10.8826,-11.0594,-11.2043,-11.3613,-11.5056,-11.5993,-11.5993,-11.5993,-11.5993,-11.5993,-11.5993,-11.5993,-11.5993,-11.5993,-11.5993,-11.5993,-11.5993,-11.5993,-11.5993,-11.5993,-11.5993,-2.4316,-2.6269,-2.8418,-3.0605,-3.2891,-3.4961,-3.6387,-3.793,0.0,0.0,0.0,0.0,0.0,0.0,0.0,0.0,0.0,0.0,0.0,0.0,-4.4967,-4.6685,-4.9361,-5.1708,-5.2949,-5.4967,-5.6219,-5.6219,-5.6219,-5.6219,-5.6219,-5.6219,-5.6219,-5.6219,-5.6219,-5.675,-5.7966,-6.0401,-6.2242,-6.3687,-6.6656,-6.8465,-6.9363,-6.9782,-7.044,-7.1308,-7.1966,-7.2864,-7.3941,-7.4599,-7.5018,-7.5347,-7.6425,-7.6963,-7.7322,-7.84,-7.8789,-7.8789,-7.8789,-7.8789,-7.8789,-7.8789,-7.8789,-7.9028,-8.0375,-8.2101,-8.4092,-8.7367,-8.9545,-9.1305,-9.3182,-9.4146,-9.5026,-9.621,-9.7056,-9.7698,-9.7935,-9.8375,-9.9018,-10.0032,-10.0608,-10.1284,-10.2299,-10.2502,-10.2502,-10.2502,-10.2502,-10.3009,-10.4498,-10.5637,-10.727,-11.0335,-11.2043,-11.3474,-11.502,-11.5678,-11.5993,-11.5993,-11.5993,-11.5993,-11.5993,-11.5993,-11.5993,-11.5993,-11.5993,-11.5993,-11.5993,-11.5993,-11.5993,-11.5993,-11.5993,-11.5993,-2.2979,-2.4824,-2.709,-2.9258,-3.0762,-3.2422,-3.5176,0.0,0.0,0.0,0.0,0.0,0.0,0.0,0.0,0.0,0.0,0.0,0.0,0.0,-4.3738,-4.6087,-4.8405,-5.0512,-5.2688,-5.4844,-5.6219,-5.6219,-5.6219,0.0,-5.6219,-5.6219,-5.6219,-5.6219,-5.6219,-5.7014,-5.8903,-6.0648,-6.2529,-6.431,-6.6612,-6.8106,-6.9004,-6.9453,-7.0111,-7.0949,-7.1607,-7.2535,-7.3612,-7.427,-7.4689,-7.5018,-7.6305,-7.6814,-7.6993,-7.831,-7.8789,-7.8789,-7.8789,-7.8789,-7.8789,-7.8789,-7.8789,-7.9028,-8.0375,-8.1583,-8.3172,-8.6441,-8.8589,-9.0353,-9.2237,-9.3923,-9.5364,-9.6582,-9.7461,-9.8003,-9.8003,-9.8578,-9.9322,-10.01,-10.0811,-10.1589,-10.2401,-10.2502,-10.2502,-10.2502,-10.2705,-10.3314,-10.4498,-10.6282,-10.8363,-11.1263,-11.2805,-11.426,-11.5901,-11.5993,-11.5993,-11.5993,-11.5993,-11.5993,-11.5993,-11.5993,-11.5993,-11.5993,-11.5993,-11.5993,-11.5993,-11.5993,-11.5993,-11.5993,-11.5993,-11.5993,0.0,0.0,0.0,-2.7941,-2.8516,-2.9473,-3.4101,0.0,0.0,0.0,0.0,0.0,0.0,0.0,0.0,0.0,0.0,0.0,0.0,0.0,-4.3181,-4.519,-4.7728,-4.9988,-5.2143,-5.4623,-5.6194,-5.6194,-5.6194,-5.6219,-5.6219,-5.6219,-5.6219,-5.6219,-5.6219,-5.7159,-5.8903,-6.0648,-6.2529,-6.441,-6.6168,-6.7687,-6.9004,-6.9004,-6.9692,-7.0949,-7.1577,-7.2235,-7.2924,-7.3612,-7.43,-7.5018,-7.6305,-7.6814,-7.6993,-7.831,-7.8789,-7.8789,-7.8789,-7.8789,-7.8789,-7.8789,-7.8789,-7.9028,-8.0375,-8.0794,-8.1476,-8.4557,-8.6711,-8.8589,-9.0547,-9.3372,-9.5973,-9.6717,-9.7461,-9.8003,-9.8003,-9.8612,-9.9356,-10.01,-10.0878,-10.169,-10.2401,-10.2502,-10.2502,-10.2502,-10.3111,-10.3889,-10.4566,-10.6659,-10.9041,-11.1334,-11.2841,-11.4396,-11.5901,-11.5993,-11.5993,-11.5993,-11.5993,-11.5993,-11.5993,-11.5993,-11.5993,-11.5993,-11.5993,-11.5993,-11.5993,-11.5993,-11.5993,-11.5993,-11.5993,-11.5993,-1.9573,0.0,0.0,0.0,0.0,0.0,0.0,0.0,0.0,0.0,0.0,0.0,0.0,0.0,0.0,0.0,0.0,0.0,0.0,0.0,-4.2843,-4.517,-4.7422,-4.9465,-5.1426,-5.4058,-5.5616,0.0,-5.5993,-5.6219,-5.6219,-5.6219,-5.6219,-5.6219,-5.6219,-5.7707,-6.0784,-6.1326,-6.3215,-6.6322,-6.6723,-6.7687,-6.9004,-6.9004,-6.9692,-7.0919,-7.1098,-7.1547,-7.2265,-7.3402,-7.43,-7.5018,-7.6305,-7.6814,-7.6993,-7.831,-7.8789,-7.8789,-7.8789,-7.8789,-7.8789,-7.8789,-7.8789,-7.9028,-8.0375,-8.0794,-8.1476,-8.4557,-8.5899,-8.721,-9.1371,-9.4107,-9.6108,-9.7394,-9.7867,-9.8003,-9.8003,-9.9018,-9.9965,-10.0202,-10.1318,-10.2299,-10.2502,-10.2502,-10.2502,-10.2502,-10.3111,-10.3889,-10.4566,-10.7741,-11.0179,-11.1447,-11.3819,-11.551,-11.603,-11.5993,-11.5993,-11.5993,-11.5993,-11.5993,-11.5993,-11.5993,-11.5993,-11.5993,-11.5993,-11.5993,-11.5993,-11.5993,-11.5993,-11.5993,-11.5993,-11.5993,-1.891,-2.0305,-2.2004,-2.2212,0.0,0.0,-2.7801,-2.8861,0.0,0.0,0.0,0.0,0.0,0.0,0.0,0.0,0.0,0.0,0.0,0.0,0.0,-4.5748,-4.8082,-5.0149,-5.2235,-5.3948,-5.5039,-5.5039,-5.5541,-5.5968,-5.6194,-5.6219,-5.6219,-5.6219,-5.6219,-5.7966,-6.1595,-6.1595,-6.3476,-6.6999,-6.6999,-6.7687,-6.9004,-6.9004,-6.9692,-7.0889,-7.0889,-7.1278,-7.1966,-7.3043,-7.3881,-7.4629,-7.6215,-7.6814,-7.6993,-7.831,-7.8789,-7.8789,-7.8789,-7.8789,-7.8789,-7.8789,-7.8789,-7.9028,-8.0375,-8.0794,-8.1359,-8.3746,-8.5471,-8.755,-9.1992,-9.4407,-9.6176,-9.7664,-9.8003,-9.8003,-9.8003,-9.9187,-10.0235,-10.0235,-10.1419,-10.2502,-10.2502,-10.2502,-10.2502,-10.2502,-10.3382,-10.4387,-10.5535,-10.8672,-11.1247,-11.2337,-11.4568,-11.5993,-11.5993,-11.5993,-11.5993,-11.5993,-11.5993,-11.5993,-11.5993,-11.5993,-11.5993,-11.5993,-11.5993,-11.5993,-11.5993,-11.5993,-11.5993,-11.5993,-11.5993,-11.5993,-1.9036,-1.9638,-2.0702,-2.2061,-2.126,0.0,-2.7194,-2.7537,-2.7974,0.0,0.0,0.0,0.0,0.0,0.0,0.0,0.0,0.0,0.0,0.0,0.0,-4.6827,-4.9026,-5.1105,-5.3368,-5.4059,-5.4411,-5.4461,-5.4988,-5.5541,-5.6093,-5.6118,-5.6143,-5.6219,-5.6219,-5.7966,-6.1595,-6.1595,-6.3476,-6.6999,-6.6999,-6.7657,-6.8884,-6.8974,-6.9662,-7.0799,-7.0859,-7.1248,-7.1846,-7.2595,-7.3313,-7.4091,-7.5976,-7.6754,-7.6963,-7.822,-7.8729,-7.8789,-7.8789,-7.8789,-7.8789,-7.8789,-7.8789,-7.9028,-8.0375,-8.0794,-8.1063,-8.238,-8.5471,-8.891,-9.1992,-9.4282,-9.6176,-9.7664,-9.8003,-9.8003,-9.8003,-9.9187,-10.0235,-10.0235,-10.1419,-10.2502,-10.2502,-10.2502,-10.2502,-10.2502,-10.3787,-10.5286,-10.6839,-10.961,-11.2079,-11.3438,-11.5093,-11.5993,-11.5993,-11.5993,-11.5993,-11.5993,-11.5993,-11.5993,-11.5993,-11.5993,-11.5993,-11.5993,-11.5993,-11.5993,-11.5993,-11.5993,-11.5993,-11.5993,-11.5993,-11.5993,-1.8163,-1.9218,-2.0212,-1.9774,-2.0825,0.0,-2.1795,-2.346,-2.5379,0.0,0.0,0.0,0.0,0.0,0.0,0.0,0.0,0.0,0.0,0.0,0.0,0.0,-4.7233,-4.817,-5.2079,-5.2929,-5.3406,-5.3833,-5.4411,-5.4963,-5.5516,-5.5541,-5.5742,-5.6194,-5.6219,-5.7966,-6.1595,-6.1595,-6.3476,-6.6999,-6.6999,-6.7418,-6.8196,-6.8734,-6.9423,-7.0201,-7.0679,-7.0979,-7.1188,-7.2415,-7.3313,-7.4031,-7.5527,-7.6395,-7.6933,-7.7711,-7.834,-7.8789,-7.8789,-7.8789,-7.8789,-7.8789,-7.8789,-7.9028,-8.0375,-8.0794,-8.1063,-8.238,-8.5471,-8.8642,-9.0461,-9.3294,-9.6176,-9.7664,-9.8003,-9.8003,-9.8003,-9.9187,-10.0235,-10.0235,-10.1419,-10.2502,-10.2502,-10.2502,-10.2502,-10.2502,-10.3787,-10.5286,-10.6839,-10.961,-11.2079,-11.3438,-11.5093,-11.5993,-11.5993,-11.5993,-11.5993,-11.5993,-11.5993,-11.5993,-11.5993,-11.5993,-11.5993,-11.5993,-11.5993,-11.5993,-11.5993,-11.5993,-11.5993,-11.5993,-11.5993,-11.5993,-1.817,-1.8564,-1.9094,-1.9108,-1.9636,0.0,0.0,-2.21,-2.3896,-2.6426,0.0,0.0,0.0,0.0,0.0,0.0,0.0,0.0,0.0,0.0,0.0,0.0,-4.7299,-4.8836,-5.1089,-5.1774,-5.2452,-5.3256,-5.3833,-5.4386,-5.4938,-5.4988,-5.5239,-5.5792,-5.675,-5.8613,-6.1595,-6.2529,-6.4281,-6.6999,-6.6999,-6.7328,-6.7986,-6.8675,-6.9363,-7.0021,-7.0649,-7.0889,-7.1009,-7.2355,-7.3103,-7.3582,-7.5258,-7.6275,-7.6904,-7.7562,-7.822,-7.8789,-7.8789,-7.8789,-7.8789,-7.8789,-7.8789,-7.9028,-8.0375,-8.1272,-8.1931,-8.2589,-8.5471,-8.8507,-9.002,-9.3036,-9.6176,-9.7664,-9.8003,-9.8003,-9.8003,-9.9187,-10.0235,-10.0235,-10.1419,-10.2502,-10.2502,-10.2502,-10.2502,-10.2502,-10.4427,-10.6382,-10.7928,-11.0715,-11.3196,-11.4728,-11.551,-11.5993,-11.5993,-11.5993,-11.5993,-11.5993,-11.5993,-11.5993,-11.5993,-11.5993,-11.5993,-11.5993,-11.5993,-11.5993,-11.5993,-11.5993,-11.5993,-11.5993,-11.5993,-11.5993,-1.8851,-1.8704,-1.8878,-1.9265,-1.8851,-1.8823,0.0,0.0,0.0,-2.618,-2.6859,0.0,0.0,0.0,0.0,0.0,0.0,0.0,0.0,0.0,0.0,0.0,-4.6489,-4.8886,-4.937,-5.0037,-5.0971,-5.2503,-5.2603,-5.308,-5.4185,-5.4336,-5.4662,-5.5214,-5.6803,-5.8796,-6.143,-6.3028,-6.4822,-6.6999,-6.6999,-6.7268,-6.7807,-6.8645,-6.9303,-6.9842,-7.059,-7.0889,-7.1009,-7.2355,-7.2924,-7.3103,-7.4988,-7.6185,-7.6904,-7.7442,-7.81,-7.8789,-7.8789,-7.8789,-7.8789,-7.8789,-7.8968,-7.9387,-8.0464,-8.1721,-8.2769,-8.2769,-8.5471,-8.8507,-9.002,-9.3036,-9.6176,-9.7664,-9.8003,-9.8003,-9.8003,-9.9187,-10.0235,-10.0235,-10.1419,-10.2502,-10.2502,-10.2502,-10.2502,-10.2502,-10.5149,-10.7457,-10.8999,-11.1802,-11.4296,-11.5827,-11.5993,-11.5993,-11.5993,-11.5993,-11.5993,-11.5993,-11.5993,-11.5993,-11.5993,-11.5993,-11.5993,-11.5993,-11.5993,-11.5993,-11.5993,-11.5993,-11.5993,-11.5993,-11.5993,-11.5993,-2.0855,-2.1136,-2.1189,-1.9733,-2.0241,-2.0577,-1.8319,0.0,-2.1202,-2.1893,0.0,0.0,0.0,0.0,0.0,0.0,0.0,0.0,0.0,0.0,0.0,-4.0175,-4.1534,-4.3239,-4.5854,-4.6612,-4.8159,-5.1247,-4.9665,-4.9891,-5.2955,-5.3557,-5.4059,-5.4637,-5.54,-5.7416,-6.0794,-6.1614,-6.3606,-6.6999,-6.6999,-6.7029,-6.7148,-6.8405,-6.9034,-6.9183,-7.038,-7.0889,-7.1009,-7.2355,-7.2924,-7.3043,-7.445,-7.5736,-7.6844,-7.6904,-7.7711,-7.8789,-7.8789,-7.8789,-7.8789,-7.8789,-7.9597,-8.0614,-8.0764,-8.1721,-8.2769,-8.2769,-8.5471,-8.8507,-9.002,-9.3036,-9.6176,-9.7664,-9.8003,-9.8003,-9.8003,-9.9187,-10.0235,-10.0235,-10.1419,-10.2502,-10.2502,-10.2502,-10.2502,-10.2502,-10.5149,-10.7457,-10.8999,-11.1802,-11.4296,-11.5827,-11.5993,-11.5993,-11.5993,-11.5993,-11.5993,-11.5993,-11.5993,-11.5993,-11.5993,-11.5993,-11.5993,-11.5993,-11.5993,-11.5993,-11.5993,-11.5993,-11.5993,-11.5993,-11.5993,-11.5993,-2.0989,-2.1283,-2.147,-2.0401,-2.0454,-2.0334,-1.8584,-1.8963,-2.0271,-2.1849,0.0,0.0,0.0,0.0,0.0,0.0,-2.707,0.0,0.0,0.0,0.0,0.0,0.0,0.0,-4.4228,-4.5042,-4.6326,-4.8686,-4.7983,-4.8636,-5.1322,-5.2302,-5.3181,-5.4034,-5.5662,-5.7853,-6.0816,-6.2352,-6.4438,-6.6999,-6.6999,-6.6999,-6.7029,-6.8375,-6.9004,-6.9064,-7.035,-7.0889,-7.1009,-7.2355,-7.2924,-7.3073,-7.4809,-7.6036,-7.6874,-7.7263,-7.7981,-7.8789,-7.8789,-7.8789,-7.8789,-7.8789,-7.9716,-8.0794,-8.0794,-8.1721,-8.2769,-8.2769,-8.5781,-8.9019,-9.0148,-9.3462,-9.6683,-9.7766,-9.8003,-9.8138,-9.8544,-9.9457,-10.0337,-10.0811,-10.1792,-10.2502,-10.2502,-10.2502,-10.2603,-10.3077,-10.6147,-10.8682,-10.9783,-11.2892,-11.5321,-11.5864,-11.5993,-11.5993,-11.5993,-11.5993,-11.5993,-11.5993,-11.5993,-11.5993,-11.5993,-11.5993,-11.5993,-11.5993,-11.5993,-11.5993,-11.5993,-11.5993,-11.5993,-11.5993,-11.5993,-11.5993,-2.1443,-2.171,-2.1897,-2.0828,-2.0454,-2.004,-1.8824,-1.8888,-1.9866,-2.2405,-2.2946,0.0,0.0,0.0,-2.5449,-2.5859,0.0,-2.6699,0.0,-2.7168,0.0,0.0,0.0,0.0,0.0,-4.2785,-4.3664,-4.625,-4.5748,-4.6677,-4.9791,-5.1021,-5.2126,-5.3231,-5.5426,-5.7916,-6.0567,-6.2558,-6.4694,-6.6999,-6.6999,-6.6999,-6.7029,-6.8375,-6.9004,-6.9064,-7.035,-7.1009,-7.1248,-7.2445,-7.3013,-7.3373,-7.5377,-7.6425,-7.6904,-7.7562,-7.822,-7.8789,-7.8789,-7.8789,-7.8789,-7.8789,-7.9716,-8.0794,-8.0794,-8.1721,-8.2769,-8.2769,-8.5967,-8.9539,-9.0212,-9.3693,-9.7089,-9.7834,-9.8003,-9.8206,-9.895,-9.9694,-10.0438,-10.1183,-10.1995,-10.2502,-10.2502,-10.2502,-10.2806,-10.3483,-10.6767,-10.954,-11.0355,-11.3725,-11.5993,-11.5993,-11.5993,-11.5993,-11.5993,-11.5993,-11.5993,-11.5993,-11.5993,-11.5993,-11.5993,-11.5993,-11.5993,-11.5993,-11.5993,-11.5993,-11.5993,-11.5993,-11.5993,-11.5993,-11.5993,-11.5993,-2.2953,-2.3233,-2.314,-2.0828,-2.0454,-2.0134,-1.809,-1.8601,-2.0032,-2.2452,-2.3822,-2.5366,-2.7803,-2.7871,-2.7305,-2.6504,-2.6387,0.0,0.0,0.0,0.0,0.0,0.0,0.0,0.0,-3.8994,-3.9446,0.0,-4.2233,-4.3087,-4.8535,-4.9866,-5.0996,-5.2126,-5.3847,-5.6418,-5.9958,-6.1148,-6.3476,-6.6999,-6.6999,-6.6999,-6.7029,-6.8375,-6.9004,-6.9064,-7.035,-7.1278,-7.1906,-7.2624,-7.3283,-7.4061,-7.6036,-7.6814,-7.6904,-7.7562,-7.822,-7.8789,-7.8789,-7.8789,-7.8789,-7.8789,-7.9716,-8.0794,-8.0794,-8.1721,-8.2769,-8.2769,-8.5967,-8.9539,-9.0212,-9.3693,-9.7089,-9.7834,-9.8003,-9.8206,-9.895,-9.9694,-10.0438,-10.1183,-10.1995,-10.2502,-10.2502,-10.2502,-10.2806,-10.3483,-10.6767,-10.954,-11.0355,-11.3725,-11.5993,-11.5993,-11.5993,-11.5993,-11.5993,-11.5993,-11.5993,-11.5993,-11.5993,-11.5993,-11.5993,-11.5993,-11.5993,-11.5993,-11.5993,-11.5993,-11.5993,-11.5993,-11.5993,-11.5993,-11.5993,-11.5993,-2.3808,-2.4329,-2.4396,-2.2218,-2.1603,-2.1002,-1.8945,-1.9078,-2.0326,-2.2409,-2.3197,-2.4392,-2.772,-2.7043,-2.6076,-2.6323,-2.6387,-2.584,0.0,-2.4323,0.0,0.0,0.0,0.0,0.0,0.0,0.0,0.0,-4.1379,0.0,-4.6928,-4.8887,-5.0393,-5.1523,-5.3507,-5.5751,-5.8241,-6.0481,-6.2821,-6.5232,-6.6446,-6.6999,-6.7029,-6.8375,-6.9004,-6.9064,-7.035,-7.1278,-7.1936,-7.2624,-7.3313,-7.4091,-7.6066,-7.6814,-7.6963,-7.8041,-7.8609,-7.8789,-7.8789,-7.8789,-7.8789,-7.8789,-7.9716,-8.0794,-8.0794,-8.1721,-8.2769,-8.2769,-8.6277,-9.0116,-9.034,-9.4056,-9.7698,-9.7935,-9.8003,-9.8206,-9.895,-9.9694,-10.0438,-10.1183,-10.1995,-10.2502,-10.2502,-10.2908,-10.3483,-10.4193,-10.708,-10.9753,-11.0952,-11.4051,-11.5993,-11.5993,-11.5993,-11.5993,-11.5993,-11.5993,-11.5993,-11.5993,-11.5993,-11.5993,-11.5993,-11.5993,-11.5993,-11.5993,-11.5993,-11.5993,-11.5993,-11.5993,-11.5993,-11.5993,-11.5993,-11.5993,-2.4409,-2.485,-2.4943,-2.318,-2.2605,-2.1951,-1.9987,-2.016,-2.123,-2.2928,-2.3245,-2.4486,-2.8498,-2.7398,-2.6208,-2.7176,-2.6641,-2.541,0.0,-2.374,-2.5379,-2.8071,0.0,-3.2746,0.0,-3.5906,-3.7136,-3.9998,-3.9823,0.0,0.0,-4.7531,-4.9314,-5.0645,-5.2829,-5.5088,-5.7324,-5.9318,-6.1642,-6.4281,-6.5513,-6.6322,-6.7029,-6.8375,-6.9004,-6.9064,-7.035,-7.1427,-7.2295,-7.2744,-7.3432,-7.442,-7.6155,-7.6814,-7.6993,-7.831,-7.8789,-7.8789,-7.8789,-7.8789,-7.8819,-7.9088,-7.9896,-8.0853,-8.1063,-8.1901,-8.2769,-8.2769,-8.6463,-9.0404,-9.0404,-9.4221,-9.8003,-9.8003,-9.8003,-9.8273,-9.9288,-9.9863,-10.0506,-10.1589,-10.2198,-10.2502,-10.2502,-10.2908,-10.3743,-10.5339,-10.7855,-11.0254,-11.2157,-11.4468,-11.5993,-11.5993,-11.5993,-11.5993,-11.5993,-11.5993,-11.5993,-11.5993,-11.5993,-11.5993,-11.5993,-11.5993,-11.5993,-11.5993,-11.5993,-11.5993,-11.5993,-11.5993,-11.5993,-11.5993,-11.5993,-11.5993]},{"header":{"parameterUnit":"m.s-1","parameterCategory":1,"la1":30.6,"la2":29.2853,"lo1":-89.7004,"lo2":-87.6739,"dy":0.0162,"dx":0.0183,"nx":112,"ny":82,"refTime":"2025-03-15T18:00:00:Z","depth":0,"parameterNumber":3,"parameterNumberName":"V-component_of_WINDS"},"data":[0.0,0.0,0.0,0.0,0.0,0.0,0.0,0.0,0.0,0.0,0.0,0.0,0.0,0.0,0.0,0.0,0.0,0.0,0.0,0.0,0.0,0.0,0.0,0.0,0.0,0.0,0.0,0.0,0.0,0.0,0.0,0.0,0.0,0.0,0.0,0.0,0.0,0.0,0.0,0.0,0.0,0.0,0.0,0.0,0.0,0.0,0.0,0.0,0.0,0.0,0.0,0.0,0.0,0.0,0.0,0.0,0.0,0.0,0.0,0.0,0.0,0.0,0.0,0.0,0.0,0.0,0.0,0.0,0.0,0.0,0.0,0.0,0.0,0.0,0.0,0.0,0.0,0.0,0.0,0.0,0.0,0.0,0.0,0.0,0.0,0.0,0.0,0.0,0.0,0.0,-3.4706,-3.5052,-3.8945,-4.1523,-4.175,-4.0909,-3.8771,-3.511,0.0,0.0,0.0,0.0,0.0,0.0,0.0,0.0,0.0,0.0,0.0,0.0,0.0,0.0,0.0,0.0,0.0,0.0,0.0,0.0,0.0,0.0,0.0,0.0,0.0,0.0,0.0,0.0,0.0,0.0,0.0,0.0,0.0,0.0,0.0,0.0,0.0,0.0,0.0,0.0,0.0,0.0,0.0,0.0,0.0,0.0,0.0,0.0,0.0,0.0,0.0,0.0,0.0,0.0,0.0,0.0,0.0,0.0,0.0,0.0,0.0,0.0,0.0,0.0,0.0,0.0,0.0,0.0,0.0,0.0,0.0,0.0,0.0,0.0,0.0,0.0,0.0,0.0,0.0,0.0,0.0,0.0,0.0,0.0,0.0,0.0,0.0,0.0,0.0,0.0,0.0,0.0,0.0,0.0,0.0,0.0,0.0,0.0,0.0,0.0,0.0,0.0,0.0,0.0,-3.6385,-3.8979,-4.0695,-4.175,-4.179,-4.0508,-3.8504,-3.5672,0.0,0.0,0.0,0.0,0.0,0.0,0.0,0.0,0.0,0.0,0.0,0.0,0.0,0.0,0.0,0.0,0.0,0.0,0.0,0.0,0.0,0.0,0.0,0.0,0.0,0.0,0.0,0.0,0.0,0.0,0.0,0.0,0.0,0.0,0.0,0.0,0.0,0.0,0.0,0.0,0.0,0.0,0.0,0.0,0.0,0.0,0.0,0.0,0.0,0.0,0.0,0.0,0.0,0.0,0.0,0.0,0.0,0.0,0.0,0.0,0.0,0.0,0.0,0.0,0.0,0.0,0.0,0.0,0.0,0.0,0.0,0.0,0.0,0.0,0.0,0.0,0.0,0.0,0.0,0.0,0.0,0.0,0.0,0.0,0.0,0.0,0.0,0.0,0.0,0.0,0.0,0.0,0.0,0.0,0.0,0.0,0.0,0.0,0.0,0.0,0.0,0.0,0.0,-3.5479,-3.6294,-3.9931,-4.1163,-4.1857,-4.2004,-4.0682,-3.8611,-3.5805,-3.3106,0.0,0.0,0.0,0.0,0.0,0.0,0.0,0.0,0.0,0.0,0.0,0.0,0.0,0.0,0.0,0.0,0.0,0.0,0.0,0.0,0.0,0.0,0.0,0.0,0.0,0.0,0.0,0.0,0.0,0.0,0.0,0.0,0.0,0.0,0.0,0.0,0.0,0.0,0.0,0.0,0.0,0.0,0.0,0.0,0.0,0.0,0.0,0.0,0.0,0.0,0.0,0.0,0.0,0.0,0.0,0.0,0.0,0.0,0.0,0.0,0.0,0.0,0.0,0.0,0.0,0.0,0.0,0.0,0.0,0.0,0.0,0.0,0.0,0.0,0.0,0.0,0.0,0.0,0.0,0.0,0.0,0.0,0.0,0.0,0.0,0.0,0.0,0.0,0.0,0.0,0.0,0.0,0.0,0.0,0.0,0.0,0.0,0.0,0.0,0.0,0.0,0.0,-3.7227,-3.6834,-4.0401,-4.1456,-4.1964,-4.2178,-4.0508,-3.8317,-3.5792,-3.2465,0.0,0.0,0.0,0.0,0.0,0.0,0.0,0.0,0.0,0.0,0.0,0.0,0.0,0.0,0.0,0.0,0.0,0.0,0.0,0.0,0.0,0.0,0.0,0.0,0.0,0.0,0.0,0.0,0.0,0.0,0.0,0.0,0.0,0.0,0.0,0.0,0.0,0.0,0.0,0.0,0.0,0.0,0.0,0.0,0.0,0.0,0.0,0.0,0.0,0.0,0.0,0.0,0.0,0.0,0.0,0.0,0.0,0.0,0.0,0.0,0.0,0.0,0.0,0.0,0.0,0.0,0.0,0.0,0.0,0.0,0.0,0.0,0.0,0.0,0.0,0.0,0.0,0.0,0.0,0.0,0.0,0.0,0.0,0.0,0.0,0.0,0.0,0.0,0.0,0.0,0.0,0.0,0.0,0.0,0.0,0.0,0.0,0.0,0.0,0.0,0.0,0.0,-3.8397,-3.9559,-4.1497,-4.2004,-4.2178,-4.2218,-3.9346,-3.7021,-3.5712,-3.133,0.0,0.0,0.0,0.0,0.0,0.0,0.0,0.0,0.0,0.0,0.0,0.0,0.0,0.0,0.0,0.0,0.0,0.0,0.0,0.0,0.0,0.0,0.0,0.0,0.0,0.0,0.0,0.0,0.0,0.0,0.0,0.0,0.0,0.0,0.0,0.0,0.0,0.0,0.0,0.0,0.0,0.0,0.0,0.0,0.0,0.0,0.0,0.0,0.0,0.0,0.0,0.0,0.0,0.0,0.0,0.0,0.0,0.0,0.0,0.0,0.0,0.0,0.0,0.0,0.0,0.0,0.0,0.0,0.0,0.0,0.0,0.0,0.0,0.0,0.0,0.0,0.0,0.0,0.0,0.0,0.0,0.0,0.0,0.0,0.0,0.0,0.0,0.0,0.0,0.0,0.0,0.0,0.0,0.0,0.0,0.0,0.0,0.0,0.0,0.0,0.0,0.0,-3.7358,-3.8397,-4.1456,-4.2044,-4.2151,-4.1964,-4.0147,-3.7809,-3.499,0.0,0.0,0.0,0.0,0.0,0.0,0.0,0.0,0.0,0.0,0.0,0.0,0.0,0.0,0.0,0.0,0.0,0.0,0.0,0.0,0.0,0.0,0.0,0.0,0.0,0.0,0.0,0.0,0.0,0.0,0.0,0.0,0.0,0.0,0.0,0.0,0.0,0.0,0.0,0.0,0.0,0.0,0.0,0.0,0.0,0.0,0.0,0.0,0.0,0.0,0.0,0.0,0.0,0.0,0.0,0.0,0.0,0.0,0.0,0.0,0.0,0.0,0.0,0.0,0.0,0.0,0.0,0.0,0.0,0.0,0.0,0.0,0.0,0.0,0.0,0.0,0.0,0.0,0.0,0.0,0.0,0.0,0.0,0.0,0.0,0.0,0.0,0.0,0.0,0.0,0.0,0.0,0.0,0.0,0.0,0.0,0.0,0.0,0.0,0.0,0.0,0.0,-3.8396,-3.8752,-3.9719,-4.2888,-4.2521,-4.2111,-4.1817,-4.0027,-3.7555,-3.4389,0.0,0.0,0.0,0.0,0.0,0.0,0.0,0.0,0.0,0.0,0.0,0.0,0.0,0.0,0.0,0.0,0.0,0.0,0.0,0.0,0.0,0.0,0.0,0.0,0.0,0.0,0.0,0.0,0.0,0.0,0.0,0.0,0.0,0.0,0.0,0.0,0.0,0.0,0.0,0.0,0.0,0.0,0.0,0.0,0.0,0.0,0.0,0.0,0.0,0.0,0.0,0.0,0.0,0.0,0.0,0.0,0.0,0.0,0.0,0.0,0.0,0.0,0.0,0.0,0.0,0.0,0.0,0.0,0.0,0.0,0.0,0.0,0.0,0.0,0.0,0.0,0.0,0.0,0.0,0.0,0.0,0.0,0.0,0.0,0.0,0.0,0.0,0.0,0.0,0.0,0.0,0.0,0.0,0.0,0.0,0.0,0.0,0.0,0.0,0.0,0.0,0.0,-4.174,-4.3247,-4.458,-4.62,-4.3984,-4.2111,-4.1817,-3.8544,-3.5778,0.0,0.0,0.0,0.0,0.0,0.0,0.0,0.0,0.0,0.0,0.0,0.0,0.0,0.0,0.0,0.0,0.0,0.0,0.0,0.0,0.0,0.0,0.0,0.0,0.0,0.0,0.0,0.0,0.0,0.0,0.0,0.0,0.0,0.0,0.0,0.0,0.0,0.0,0.0,0.0,0.0,0.0,0.0,0.0,0.0,0.0,0.0,0.0,0.0,0.0,0.0,0.0,0.0,0.0,0.0,0.0,0.0,0.0,0.0,0.0,0.0,0.0,0.0,0.0,0.0,0.0,0.0,0.0,0.0,0.0,0.0,0.0,0.0,0.0,0.0,0.0,0.0,0.0,0.0,0.0,0.0,0.0,0.0,0.0,0.0,0.0,0.0,0.0,0.0,0.0,0.0,0.0,0.0,0.0,0.0,0.0,0.0,0.0,0.0,0.0,0.0,0.0,0.0,-4.2091,-4.5279,-4.7118,-4.6445,-4.5948,-4.4455,-4.1759,-3.9559,-3.6901,-3.3467,0.0,0.0,0.0,0.0,0.0,0.0,0.0,0.0,0.0,0.0,0.0,0.0,0.0,0.0,0.0,0.0,0.0,0.0,0.0,0.0,0.0,0.0,0.0,0.0,0.0,0.0,0.0,0.0,0.0,0.0,0.0,0.0,0.0,0.0,0.0,0.0,0.0,0.0,0.0,0.0,0.0,0.0,0.0,0.0,0.0,0.0,0.0,0.0,0.0,0.0,0.0,0.0,0.0,0.0,0.0,0.0,0.0,0.0,0.0,0.0,0.0,0.0,0.0,0.0,0.0,0.0,0.0,0.0,0.0,0.0,0.0,0.0,0.0,0.0,0.0,0.0,0.0,0.0,0.0,0.0,0.0,0.0,0.0,0.0,0.0,0.0,0.0,0.0,0.0,0.0,0.0,0.0,0.0,0.0,0.0,0.0,0.0,0.0,0.0,0.0,0.0,0.0,-4.3866,-4.7999,-4.9772,-4.8231,-4.7345,-4.5438,-4.145,-3.9813,-3.7382,-3.3574,0.0,0.0,0.0,0.0,0.0,0.0,0.0,0.0,0.0,0.0,0.0,0.0,0.0,0.0,0.0,0.0,0.0,0.0,0.0,0.0,0.0,0.0,0.0,0.0,0.0,0.0,0.0,0.0,0.0,0.0,0.0,0.0,0.0,0.0,0.0,0.0,0.0,0.0,0.0,0.0,0.0,0.0,0.0,0.0,0.0,0.0,0.0,0.0,0.0,0.0,0.0,0.0,0.0,0.0,0.0,0.0,0.0,0.0,0.0,0.0,0.0,0.0,0.0,0.0,0.0,0.0,0.0,0.0,0.0,0.0,0.0,0.0,0.0,0.0,0.0,0.0,0.0,0.0,0.0,0.0,0.0,0.0,0.0,0.0,0.0,0.0,0.0,0.0,0.0,0.0,0.0,0.0,0.0,0.0,0.0,0.0,0.0,0.0,0.0,0.0,0.0,0.0,-4.6543,-5.081,-5.2776,-5.0939,-4.8565,-4.5607,-4.1671,-3.9823,-3.7408,-3.4215,0.0,0.0,0.0,0.0,0.0,0.0,0.0,0.0,0.0,0.0,0.0,0.0,0.0,0.0,0.0,0.0,0.0,0.0,0.0,0.0,0.0,0.0,0.0,0.0,0.0,0.0,0.0,0.0,0.0,0.0,0.0,0.0,0.0,0.0,0.0,0.0,0.0,0.0,0.0,0.0,0.0,0.0,0.0,0.0,0.0,0.0,0.0,0.0,0.0,0.0,0.0,0.0,0.0,0.0,0.0,0.0,0.0,0.0,0.0,0.0,-4.7732,-4.5974,0.0,0.0,0.0,0.0,0.0,0.0,0.0,0.0,0.0,0.0,0.0,0.0,0.0,0.0,0.0,0.0,0.0,0.0,0.0,0.0,0.0,0.0,0.0,0.0,0.0,0.0,0.0,0.0,0.0,0.0,0.0,0.0,0.0,0.0,0.0,0.0,0.0,0.0,0.0,0.0,-4.7383,-5.2811,-5.5689,-5.3982,-5.1475,-4.8455,-4.496,-4.1145,-3.7889,-3.5097,-3.2358,0.0,0.0,0.0,0.0,0.0,0.0,0.0,0.0,0.0,0.0,0.0,0.0,0.0,0.0,0.0,0.0,0.0,0.0,0.0,0.0,0.0,0.0,0.0,0.0,0.0,0.0,0.0,0.0,0.0,0.0,0.0,0.0,0.0,0.0,0.0,0.0,0.0,0.0,0.0,0.0,0.0,0.0,0.0,0.0,0.0,0.0,0.0,0.0,0.0,0.0,0.0,0.0,0.0,0.0,0.0,0.0,0.0,0.0,0.0,-5.1699,-5.0017,0.0,0.0,0.0,0.0,0.0,0.0,0.0,0.0,0.0,0.0,0.0,0.0,0.0,0.0,0.0,0.0,0.0,0.0,0.0,0.0,0.0,0.0,0.0,0.0,0.0,0.0,0.0,0.0,0.0,0.0,0.0,0.0,0.0,0.0,0.0,0.0,0.0,0.0,0.0,0.0,-4.7969,-5.3613,-5.6659,-5.4863,-5.233,-4.9331,-4.5683,-4.1604,-3.8317,-3.6366,-3.3748,0.0,0.0,0.0,0.0,0.0,0.0,0.0,0.0,0.0,0.0,0.0,0.0,0.0,0.0,0.0,0.0,0.0,0.0,0.0,0.0,0.0,0.0,0.0,0.0,0.0,0.0,0.0,0.0,0.0,0.0,0.0,0.0,0.0,0.0,0.0,0.0,0.0,0.0,0.0,0.0,0.0,0.0,0.0,0.0,0.0,0.0,0.0,0.0,0.0,0.0,0.0,0.0,0.0,-5.5138,-5.5893,-5.652,-5.6168,-5.7123,-5.893,-5.6696,-5.544,-5.4787,-5.2302,0.0,0.0,0.0,0.0,0.0,0.0,0.0,0.0,0.0,0.0,0.0,0.0,0.0,0.0,0.0,0.0,0.0,0.0,0.0,0.0,0.0,0.0,-4.2969,-4.4297,-4.5273,-4.4805,-4.0703,0.0,0.0,0.0,0.0,0.0,0.0,0.0,0.0,0.0,0.0,0.0,-4.8418,-5.373,-5.6667,-5.5407,-5.2846,-4.9902,-4.704,-4.3196,-4.0162,-3.855,-3.6129,-3.3674,0.0,0.0,0.0,0.0,0.0,0.0,0.0,0.0,0.0,0.0,0.0,0.0,0.0,0.0,0.0,0.0,0.0,0.0,0.0,0.0,0.0,0.0,0.0,0.0,0.0,0.0,0.0,0.0,0.0,0.0,0.0,0.0,-4.707,-4.8566,0.0,0.0,0.0,0.0,0.0,0.0,0.0,0.0,0.0,0.0,0.0,0.0,0.0,-5.6738,-5.7218,-5.913,-5.9136,-5.7343,-6.0296,-6.145,-6.114,-6.1567,-6.2421,-6.3601,-6.3726,0.0,-5.6595,-5.529,0.0,0.0,0.0,0.0,0.0,0.0,0.0,0.0,0.0,0.0,0.0,0.0,0.0,0.0,0.0,0.0,0.0,0.0,0.0,0.0,0.0,0.0,-4.8379,-4.8223,-4.8848,-4.9121,-4.7715,-4.3457,-3.9629,-3.8711,-3.6836,-3.4883,0.0,0.0,0.0,0.0,0.0,0.0,-4.8887,-5.3672,-5.6952,-5.7793,-5.5463,-5.3821,-5.3309,-5.0086,-4.6593,-4.2855,-4.107,-3.8402,-3.4434,-3.1744,0.0,0.0,0.0,0.0,0.0,0.0,0.0,0.0,0.0,0.0,0.0,0.0,0.0,0.0,0.0,0.0,0.0,0.0,0.0,0.0,0.0,0.0,0.0,0.0,0.0,0.0,0.0,0.0,0.0,-4.7309,-5.0122,-5.0331,-5.075,-5.0331,0.0,0.0,0.0,0.0,0.0,0.0,0.0,0.0,0.0,-6.2421,-6.2587,-6.2629,-6.2535,-6.3646,-6.3249,-6.1165,-6.2923,-6.3952,-6.4329,-6.4555,-6.5107,-6.5886,-6.6137,-6.4856,-6.2421,-5.9734,-5.7022,-5.431,0.0,0.0,0.0,0.0,-5.3055,-5.3557,-5.6068,-5.6897,-5.662,-5.5315,0.0,0.0,0.0,0.0,0.0,0.0,0.0,-4.4116,-4.4789,-4.7051,-4.9414,-5.043,-5.1152,-5.1504,-5.1113,-4.8203,-4.498,-4.2578,-4.1406,-3.9629,-3.5879,-3.5684,0.0,0.0,0.0,-4.6367,-5.043,-5.4043,-5.6719,-5.8027,-5.5544,-5.3822,-5.3822,-4.9094,-4.5303,-4.3515,-4.0964,-3.8361,-3.6019,-3.3921,-3.1931,0.0,0.0,0.0,0.0,0.0,0.0,0.0,0.0,0.0,0.0,0.0,0.0,0.0,0.0,0.0,0.0,0.0,0.0,0.0,0.0,0.0,0.0,0.0,0.0,0.0,0.0,0.0,0.0,-5.0032,-5.2785,-5.2276,-5.3683,-5.3593,0.0,0.0,0.0,0.0,0.0,0.0,-5.9997,-6.1403,-6.3857,-6.7657,-6.7872,-6.7765,-6.7285,-6.7298,-6.6262,-6.4329,-6.4705,-6.5308,-6.6112,-6.6112,-6.6438,-6.699,-6.7116,-6.7191,-6.6915,-6.345,-6.0638,-5.8303,-5.6219,-5.5064,-5.4813,-5.6595,-5.7273,-5.775,-6.0914,-6.1918,-6.1517,-5.9558,-5.7574,-5.5138,-5.0028,0.0,0.0,0.0,0.0,-4.7046,-4.7405,-4.8555,-4.998,-5.1816,-5.2656,-5.2988,-5.2754,-5.1719,-4.9805,-4.6367,-4.5508,-4.3926,-3.9414,-3.9336,0.0,-4.0469,-4.4101,-4.8066,-5.1621,-5.4336,-5.6387,-5.7578,-5.5741,-5.4413,-5.4413,-4.9391,-4.582,-4.4812,-4.1416,-3.8769,-3.7315,-3.5805,-3.4055,-3.2051,0.0,0.0,0.0,0.0,0.0,0.0,0.0,0.0,0.0,0.0,0.0,0.0,0.0,0.0,0.0,0.0,0.0,0.0,0.0,0.0,0.0,0.0,0.0,0.0,0.0,0.0,0.0,0.0,0.0,-5.4999,-5.7244,0.0,0.0,0.0,0.0,-5.7693,-5.9638,-6.2181,-6.5443,-6.6849,-6.9093,-7.2475,-7.1276,-7.0473,-7.0253,-6.8866,-6.7437,-6.5986,-6.6011,-6.6061,-6.6112,-6.6112,-6.6438,-6.7015,-6.7518,-6.7769,-6.7568,-6.5258,-6.3601,-6.237,-6.0663,-5.9659,-5.9232,-5.9885,-6.1115,-6.2421,-6.2119,-6.2697,-6.3626,-6.3977,-6.1244,-5.7532,-5.625,-5.3424,0.0,0.0,-4.93,-5.0151,-4.9624,-5.0351,-5.1523,-5.2461,-5.334,-5.373,-5.2891,-5.2637,-5.1914,-4.9707,-4.7617,-4.5762,-4.4258,0.0,-4.3594,-4.4062,-4.6406,-4.9082,-5.1738,-5.4336,-5.6269,-5.7148,-5.7399,-5.7633,-5.7633,-5.4838,-5.1485,-4.8221,-4.5207,-4.1963,-3.8439,-3.7301,-3.5979,-3.4202,-3.1837,0.0,0.0,0.0,0.0,0.0,0.0,0.0,0.0,0.0,0.0,0.0,0.0,0.0,0.0,0.0,0.0,0.0,0.0,0.0,0.0,0.0,0.0,0.0,0.0,0.0,0.0,0.0,0.0,-5.8291,-6.1044,0.0,-5.8949,-6.0206,-6.1583,-6.248,-6.5203,-6.7687,-6.9692,-7.1457,-7.3343,-7.5377,-7.3964,-7.2801,-7.1843,-6.983,-6.7982,-6.6112,-6.6112,-6.6112,-6.6112,-6.6112,-6.6438,-6.699,-6.7191,-6.7467,-6.7719,-6.6564,-6.5634,-6.4856,-6.3902,-6.34,-6.3249,-6.345,-6.4128,-6.4957,-6.5132,-6.5233,-6.5107,-6.4254,-6.247,-6.0416,-5.9672,-5.7774,-5.5486,-5.3957,-5.312,-5.2283,-5.1,-5.1289,-5.1933,-5.2226,-5.2754,-5.3027,-5.2441,-5.2305,-5.1992,-5.0957,-4.9687,-4.8125,-4.5996,-4.6172,-4.6465,-4.6094,-4.8223,-5.0605,-5.2637,-5.4199,-5.5351,-5.5918,-5.6133,-5.5553,-5.355,-5.0661,-4.7639,-4.4395,-4.1508,-3.9119,-3.7422,-3.7114,-3.6286,-3.491,-3.312,-3.0648,0.0,0.0,0.0,0.0,0.0,0.0,0.0,0.0,0.0,0.0,0.0,0.0,0.0,0.0,0.0,0.0,0.0,0.0,0.0,0.0,0.0,0.0,0.0,0.0,0.0,-5.6496,-6.0356,-6.1014,-6.4216,-6.5413,-6.2989,-6.4725,-6.64,-6.7268,-6.9812,-7.1966,-7.3462,-7.5018,-7.6365,-7.7442,-7.512,-7.3521,-7.2506,-6.9603,-6.7543,-6.6112,-6.6112,-6.6112,-6.6112,-6.6112,-6.6312,-6.6689,-6.689,-6.7191,-6.7518,-6.7317,-6.6915,-6.6338,-6.5785,-6.5685,-6.586,-6.586,-6.6212,-6.6714,-6.6915,-6.6714,-6.6187,-6.4931,-6.4002,-6.3324,-6.2948,-6.1345,-5.9312,-5.7689,-5.5592,-5.3633,-5.183,-5.1758,-5.209,-5.209,-5.2402,-5.2598,-5.2168,-5.209,-5.1953,-5.1523,-5.0976,-5.0019,-4.8144,-4.8633,-4.9062,-4.834,-5.0078,-5.1914,-5.3203,-5.4141,-5.4844,-5.5254,-5.5312,-5.4149,-5.1181,-4.8015,-4.5027,-4.1964,-3.8874,-3.6901,-3.65,-3.6313,-3.5752,-3.4776,-3.3106,-3.0982,-2.843,0.0,0.0,0.0,0.0,0.0,0.0,0.0,0.0,0.0,0.0,0.0,0.0,0.0,0.0,0.0,0.0,0.0,0.0,0.0,0.0,0.0,0.0,0.0,-5.4221,-5.8919,-6.248,-6.3199,-6.6729,-6.8375,-6.64,-6.8585,-7.062,-7.1876,-7.3223,-7.4839,-7.6754,-7.7472,-7.813,-7.8759,-7.4686,-7.2506,-7.2506,-6.819,-6.6112,-6.6112,-6.6112,-6.6112,-6.6112,-6.6112,-6.6112,-6.6137,-6.6714,-6.694,-6.699,-6.7518,-6.7417,-6.689,-6.6363,-6.6488,-6.6965,-6.6965,-6.7292,-6.7693,-6.7141,-6.6965,-6.689,-6.6312,-6.6112,-6.6112,-6.594,-6.4304,-6.1911,-5.9362,-5.6968,-5.4379,-5.1988,-5.1738,-5.207,-5.207,-5.2383,-5.2558,-5.2148,-5.207,-5.1933,-5.1523,-5.1426,-5.1308,-5.0898,-5.1172,-5.1289,-5.0879,-5.1894,0.0,-5.3281,-5.4101,-5.4805,-5.5006,-5.5045,-5.3786,-5.057,-4.7365,-4.435,-4.1355,-3.7741,-3.5591,-3.5578,-3.5044,-3.4482,-3.3908,-3.1877,-3.0247,-2.9085,0.0,0.0,0.0,0.0,0.0,0.0,0.0,0.0,0.0,0.0,0.0,0.0,0.0,0.0,0.0,0.0,0.0,0.0,0.0,0.0,0.0,-5.5088,-5.7513,-5.8351,-6.2211,-6.5712,-6.7807,-7.029,-7.1607,-7.1068,-7.2116,-7.3163,-7.4001,-7.5288,-7.6455,-7.7472,-7.816,-7.8609,-7.8789,-7.4686,-7.2506,-7.2506,-6.819,-6.6112,-6.6112,-6.6112,-6.6112,-6.6112,-6.6112,-6.6112,-6.6112,-6.6287,-6.6338,-6.6363,-6.6513,-6.6488,-6.6363,-6.6639,-6.684,-6.6915,-6.6513,-6.6714,-6.7116,-6.6538,-6.6614,-6.689,-6.6312,-6.6112,-6.5742,-6.4104,-6.1733,-5.9362,-5.6781,-5.4379,-5.2161,-5.162,-5.1523,-5.1601,-5.1601,-5.1699,-5.1758,-5.1641,-5.1601,-5.1582,-5.1465,-5.1426,-5.1387,-5.1269,-5.1367,-5.1387,-5.1269,-5.1836,-5.2402,-5.2832,-5.3379,-5.3032,-5.1515,-5.1344,-4.9369,-4.413,-4.2523,-4.0197,-3.683,-3.5328,-3.4589,-3.4376,-3.4416,-3.4362,-3.4202,-3.2372,-3.1062,0.0,0.0,0.0,0.0,0.0,0.0,0.0,0.0,0.0,0.0,0.0,0.0,0.0,0.0,0.0,0.0,0.0,0.0,0.0,0.0,0.0,0.0,-5.9222,-6.1882,-6.3947,-6.6221,-6.8435,-7.05,-7.2265,-7.3432,-7.3702,-7.433,-7.4988,-7.5647,-7.6664,-7.7532,-7.819,-7.8579,-7.8789,-7.8789,-7.4686,-7.2506,-7.2506,-6.819,-6.6112,-6.6112,-6.6112,-6.6112,-6.6112,-6.6112,-6.6112,-6.6112,-6.6112,-6.6112,-6.6112,-6.6112,-6.6112,-6.6137,0.0,0.0,0.0,0.0,-6.684,-6.7216,-6.6388,-6.6488,-6.689,-6.6312,-6.5397,-6.4304,-6.3025,-6.009,-5.6968,-5.5471,-5.3275,-5.1426,-5.1426,-5.1426,-5.1426,-5.1426,-5.1426,-5.1426,-5.1426,-5.1426,-5.1426,-5.1426,-5.1426,0.0,-5.1426,-5.1426,-5.1426,-5.1426,-5.1953,-5.2441,-5.2676,-5.3086,-5.2463,-5.0108,-4.9584,-4.7146,-4.1435,-4.0406,0.0,0.0,0.0,-3.3761,-3.3347,-3.3374,0.0,0.0,0.0,0.0,0.0,-3.2131,0.0,0.0,-3.1169,-3.1183,0.0,0.0,0.0,0.0,0.0,0.0,0.0,0.0,0.0,0.0,0.0,0.0,0.0,0.0,0.0,0.0,-6.2859,-6.5682,-6.9542,-7.0201,-7.0769,-7.1966,-7.3223,-7.424,-7.4809,-7.5497,-7.6155,-7.6784,-7.7442,-7.81,-7.8759,-7.8789,0.0,0.0,0.0,-7.2348,-7.2189,-6.819,-6.6112,-6.6112,-6.6112,-6.6112,-6.6112,-6.6112,-6.6112,-6.6112,-6.6112,-6.6112,-6.6112,-6.6112,-6.6112,-6.6112,-6.6112,-6.6438,-6.689,-6.689,-6.7191,-6.7467,-6.6463,0.0,0.0,-6.6287,-6.4478,-6.2469,-6.2113,-5.8791,-5.5115,-5.4737,-5.3084,-5.1426,-5.1426,-5.1426,-5.1426,-5.1426,-5.1426,-5.1426,-5.1426,-5.1426,-5.1426,-5.1426,-5.1426,-5.1426,-5.1426,-5.1426,-5.1426,-5.1426,-5.207,-5.2578,-5.2637,-5.3027,-5.2183,-4.962,-4.8953,0.0,-4.078,-3.9728,-3.8163,-3.5375,-3.4108,-3.3253,-3.2719,-3.2532,-3.2679,-3.3173,-3.3774,-3.4322,-3.4803,-3.5685,-3.6179,-3.6193,-3.3013,-3.2786,0.0,0.0,0.0,0.0,0.0,0.0,0.0,0.0,0.0,0.0,0.0,0.0,0.0,0.0,0.0,-6.3056,-6.5248,-6.7418,-7.032,-7.1667,-7.2624,-7.3402,-7.421,-7.4749,-7.4869,-7.5497,-7.6155,-7.6784,-7.7442,-7.81,-7.8759,-7.8789,-7.8004,-7.6259,-7.3732,-7.1683,-6.9931,-6.74,-6.6112,-6.6112,-6.6112,0.0,-6.6112,-6.6112,-6.6112,-6.6112,-6.6112,-6.6112,-6.6112,-6.6112,-6.6112,-6.6112,-6.6112,-6.6187,-6.6287,-6.6287,-6.6338,-6.6413,-6.6187,-6.6187,-6.6262,-6.6137,-6.4478,-6.2113,-6.009,-5.7502,0.0,-5.272,-5.1794,-5.1426,-5.1426,-5.1426,-5.1426,-5.1426,-5.1426,-5.1426,-5.1426,-5.1426,-5.1426,-5.1426,-5.1426,-5.1426,-5.1426,-5.1426,-5.1426,-5.1426,-5.1562,-5.1797,-5.2168,-5.2578,-5.1101,-4.6262,-4.6078,-4.3874,-3.8155,-3.6936,-3.6027,-3.4883,-3.4189,-3.3748,-3.3627,-3.4255,-3.4536,-3.4416,-3.499,-3.5231,-3.511,-3.5992,-3.6794,-3.7448,-3.654,-3.6259,0.0,0.0,0.0,0.0,0.0,0.0,0.0,0.0,0.0,0.0,0.0,-5.4282,-5.7903,0.0,-6.2887,-6.5784,-6.8181,-7.0186,-7.1708,-7.2505,-7.3163,-7.3821,-7.448,-7.4869,-7.4869,-7.5766,-7.6485,-7.6814,-7.7741,-7.846,-7.8759,-7.8789,-7.7828,-7.5628,-7.3577,-7.1523,-6.9274,-6.723,-6.6112,-6.6112,-6.6112,-6.6112,-6.6112,-6.6112,-6.6112,-6.6112,-6.6112,-6.6112,-6.6112,-6.6112,-6.6112,-6.6112,-6.6112,-6.6112,-6.6112,-6.6112,-6.6112,-6.6112,-6.6112,-6.6112,-6.5914,-6.4653,-6.2647,-6.0271,-5.7687,-5.5304,-5.2892,-5.1794,-5.1426,-5.1426,-5.1426,-5.1426,-5.1426,-5.1426,-5.1426,-5.1426,-5.1426,-5.1426,-5.1426,-5.1426,-5.1426,-5.1426,-5.1426,-5.1426,-5.1426,-5.1426,-5.1621,-5.1914,-5.2344,-5.2578,-5.0861,-4.5767,-4.52,-4.294,-3.7343,-3.6273,-3.5658,-3.5231,-3.4923,-3.4763,-3.4763,-3.5324,-3.5631,-3.5631,-3.6206,-3.65,-3.65,-3.7408,-3.8063,-3.8504,-3.8798,-3.8758,0.0,0.0,0.0,0.0,0.0,0.0,0.0,-5.1389,-5.2124,-5.5407,-5.6404,-5.8032,-6.1994,-6.4659,-6.6782,-6.8144,-7.0401,-7.2177,-7.2757,-7.3013,-7.3343,-7.4001,-7.454,-7.4869,-7.4869,-7.6066,-7.6814,-7.6814,-7.8041,-7.8789,-7.8789,-7.847,-7.721,-7.5145,-7.2951,-7.0907,-6.8638,-6.6891,-6.6112,-6.6112,-6.6112,-6.6112,-6.6112,-6.6112,-6.6112,-6.6112,-6.6112,-6.6112,-6.6112,-6.6112,-6.6112,-6.6112,-6.6112,-6.6112,-6.6112,-6.6112,-6.6112,-6.6112,-6.6112,-6.6112,-6.5742,-6.3201,-6.0836,-5.8263,-5.5847,-5.3467,-5.1426,-5.1426,-5.1426,-5.1426,-5.1426,-5.1426,-5.1426,-5.1426,-5.1426,-5.1426,-5.1426,-5.1426,-5.1426,-5.1426,-5.1426,-5.1426,-5.1426,-5.1426,-5.1426,-5.1426,-5.1738,-5.2109,-5.2539,-5.2656,-5.1119,-4.6567,-4.5378,-4.283,-3.7343,-3.65,-3.6139,-3.5899,-3.5885,-3.5885,-3.5885,-3.6166,-3.6473,-3.6754,-3.7342,-3.7782,-3.8063,-3.8905,-3.9346,-3.9452,-4.0214,-4.0401,-4.9981,-4.8685,-4.8915,-5.1684,-5.1135,-5.1566,0.0,-5.7557,-5.6765,-6.0369,-6.1233,-6.2078,-6.43,-6.5411,-6.6883,-6.9273,-7.0449,-7.1538,-7.2714,-7.3402,-7.4031,-7.4689,-7.4839,-7.4869,-7.4869,-7.6066,-7.6814,-7.6814,-7.8041,-7.8789,-7.8789,-7.7033,-7.4992,-7.2951,-7.0718,-6.8664,-6.6429,-6.6283,-6.6112,-6.6112,-6.6112,-6.6112,-6.6112,-6.6112,-6.6112,-6.6112,-6.6112,-6.6112,-6.6112,-6.6112,-6.6112,-6.6112,-6.6112,-6.6112,-6.6112,-6.6112,-6.6112,-6.6112,-6.6112,-6.6112,-6.5742,-6.3201,-6.0836,-5.8263,-5.5847,-5.3467,-5.1426,-5.1426,-5.1426,-5.1426,-5.1426,-5.1426,-5.1426,-5.1426,-5.1426,-5.1426,-5.1426,-5.1426,-5.1426,-5.1426,-5.1426,-5.1426,-5.1426,-5.1426,-5.1426,-5.1426,-5.1465,-5.166,-5.209,-5.248,-5.163,-4.8945,-4.6726,-4.3096,-3.737,-3.6861,-3.6834,-3.6794,-3.6794,-3.6794,-3.6794,-3.7088,-3.7382,-3.7662,-3.825,-3.8718,-3.9012,-3.9626,-4.0067,-4.0334,-4.0695,-4.0695,-5.2396,-5.2637,-5.3502,-5.4615,-5.5288,-5.6435,-5.9433,-5.9645,-6.0016,-6.3086,-6.3802,-6.448,-6.6991,-6.8356,-6.9245,-6.9819,-7.1637,-7.2864,-7.2907,-7.3163,-7.3432,-7.3702,-7.3732,-7.4031,-7.4809,-7.6066,-7.6814,-7.6814,-7.8041,-7.8789,-7.8789,-7.6736,-7.4686,-7.2506,-7.0421,-6.8331,-6.6112,-6.6112,-6.6112,-6.6112,-6.6112,-6.6112,-6.6112,-6.6112,-6.6112,-6.6112,-6.6112,-6.6112,-6.6112,-6.6112,-6.6112,-6.6112,-6.6112,-6.6112,-6.6112,-6.6112,-6.6112,-6.6112,-6.6112,-6.6112,-6.5372,-6.1554,-5.9727,-5.8079,-5.4209,-5.2161,-5.1426,-5.1426,-5.1426,-5.1426,-5.1426,-5.1426,-5.1426,-5.1426,-5.1426,-5.1426,-5.1426,-5.1426,-5.1426,-5.1426,-5.1426,-5.1426,-5.1426,-5.1641,-5.1816,-5.1816,-5.1816,-5.1973,-5.2402,-5.2812,-5.1568,-4.7531,-4.3221,-3.9785,-3.7417,-3.7342,-3.7448,-3.7448,-3.7595,-3.7782,-3.7956,-3.825,-3.8544,-3.8838,-3.9265,-3.9559,-3.9666,-4.0254,-4.0615,-4.0735,-4.1203,-4.135,-5.3427,-5.4737,-5.6335,-5.6636,-5.8394,-6.0053,-6.056,-6.1418,-6.2822,-6.4901,-6.54,-6.6252,-6.8386,-6.9789,-7.0587,-7.0097,-7.2129,-7.3578,-7.2697,-7.2804,-7.2834,-7.2654,-7.2475,-7.2804,-7.3941,-7.5407,-7.6425,-7.6814,-7.7891,-7.8579,-7.8789,-7.6736,-7.4686,-7.2506,-7.0421,-6.8331,-6.6112,-6.6112,-6.6112,-6.6112,-6.6112,-6.6112,-6.6112,-6.6112,-6.6112,-6.6112,-6.6112,-6.6112,-6.6112,-6.6112,-6.6112,-6.6112,-6.6112,-6.6112,-6.6112,-6.6112,-6.6112,-6.6112,-6.6112,-6.6112,-6.5372,-6.0452,-5.8814,-5.7894,-5.2912,-5.1426,-5.1426,-5.1426,-5.1426,-5.1426,-5.1426,-5.1426,-5.1426,-5.1426,-5.1426,-5.1426,-5.1426,-5.1426,-5.1426,-5.1426,-5.1523,-5.1601,-5.1601,-5.1973,-5.2246,-5.2246,-5.2363,-5.2539,-5.2851,-5.3281,-5.1575,-4.6219,-4.1994,-3.9196,-3.7848,-3.7823,-3.7969,-3.8063,-3.825,-3.8477,-3.8718,-3.9012,-3.9306,-3.9599,-3.996,-4.0187,-4.0281,-4.0869,-4.1163,-4.1163,-4.167,-4.1897,-5.1982,-5.3369,-5.5349,-5.7166,-5.8832,-6.0646,-6.2595,-6.3947,-6.5114,-6.5772,-6.646,-6.7119,-6.7931,-6.865,-6.9213,-6.9871,-7.1607,-7.2654,-7.1996,-7.2505,-7.2654,-7.1996,-7.1368,-7.1218,-7.1906,-7.3762,-7.5467,-7.6724,-7.7442,-7.81,-7.8759,-7.6736,-7.4686,-7.2506,-7.0421,-6.8331,-6.6112,-6.6112,-6.6112,-6.6112,-6.6112,-6.6112,-6.6112,-6.6112,-6.6112,-6.6112,-6.6112,-6.6112,-6.6112,-6.6112,-6.6112,-6.6112,-6.6112,-6.6112,-6.6112,-6.6112,-6.6112,-6.6112,-6.6112,-6.6112,-6.5372,-6.0452,-5.8814,-5.7894,-5.2912,-5.1426,-5.1426,-5.1426,-5.1426,-5.1426,-5.1426,-5.1426,-5.1426,-5.1426,-5.1426,-5.1426,-5.1426,-5.1426,-5.1426,-5.1426,-5.1777,-5.207,-5.207,-5.2402,-5.2695,-5.2695,-5.3047,-5.332,-5.334,-5.373,-5.18,-4.6389,-4.5777,-4.3691,-3.8627,-3.8223,-3.837,-3.8691,-3.8691,-3.8718,-3.8718,-3.9012,-3.9306,-3.9599,-4.0187,-4.0588,-4.0869,-4.1456,-4.175,-4.175,-4.2071,-4.2218,-5.2544,-5.4812,-5.7505,-5.9425,-6.1627,-6.3647,-6.4784,-6.5712,-6.64,-6.661,-6.649,-6.655,-6.7208,-6.7508,-6.8046,-6.9153,-7.0979,-7.2146,-7.1906,-7.2864,-7.2834,-7.0859,-7.0799,-7.0649,-7.0021,-7.2146,-7.4121,-7.5437,-7.6544,-7.7442,-7.81,-7.5247,-7.3265,-7.2506,-6.8996,-6.6916,-6.6112,-6.6112,-6.6112,-6.6112,-6.6112,-6.6112,-6.6112,-6.6112,-6.6112,-6.6112,-6.6112,-6.6112,-6.6112,-6.6112,-6.6112,-6.6112,-6.6112,-6.6112,-6.6112,-6.6112,-6.6112,-6.6112,-6.6112,-6.6112,-6.5372,-6.0452,-5.8814,-5.7894,-5.2912,-5.1426,-5.1426,-5.1426,-5.1426,-5.1426,-5.1426,-5.1426,-5.1426,-5.1426,-5.1426,-5.1426,-5.1426,-5.166,-5.1855,-5.1855,-5.2207,-5.25,-5.25,-5.2851,-5.3242,-5.3535,-5.3457,-5.3476,-5.3769,-5.2212,-5.0535,-4.9001,-4.5574,-4.285,-4.134,-3.9559,-3.8611,-3.8718,-3.8718,-3.8905,-3.9279,-3.9412,-3.9666,-4.0187,-4.0374,-4.0615,-4.0909,-4.131,-4.1603,-4.179,-4.2071,-4.2218,-5.4341,-5.6855,-5.9428,-6.1912,-6.3947,-6.5562,-6.6191,-6.67,-6.6849,-6.637,-6.5742,-6.5293,-6.5233,-6.5233,-6.5832,-6.7627,-6.9572,-7.1098,-7.1787,-7.2445,-7.2206,-7.05,-7.0051,-6.9722,-6.9393,-7.0889,-7.2595,-7.439,-7.5736,-7.6874,-7.7771,-7.5132,-7.3292,-7.2506,-6.9135,-6.6916,-6.6112,-6.6112,-6.6112,-6.6112,-6.6112,-6.6112,-6.6112,-6.6112,-6.6112,-6.6112,-6.6112,-6.6112,-6.6112,-6.6112,-6.6112,-6.6112,-6.6112,-6.6112,-6.6112,-6.6112,-6.6112,-6.6112,-6.6112,-6.557,-6.4104,-6.009,-5.8263,-5.6781,-5.272,-5.1426,-5.1426,-5.1426,-5.1426,-5.1426,-5.1426,-5.1426,-5.1465,-5.1621,-5.1543,-5.1523,-5.1816,-5.1992,-5.2129,-5.2285,-5.2656,-5.2949,-5.2949,-5.3301,-5.3691,-5.3984,-5.3789,-5.3711,-5.3984,-5.2512,-5.097,-5.0305,-4.7222,-4.4522,-4.2678,-4.1231,-3.9862,-3.8731,-3.8825,-3.9052,-3.9412,-3.964,-3.9933,-4.0321,-4.0508,-4.0762,-4.1056,-4.135,-4.1644,-4.1937,-4.2138,-4.2218,-5.7154,-5.9249,-6.1104,-6.4276,-6.5562,-6.6221,-6.6849,-6.6939,-6.652,-6.5203,-6.4336,-6.3408,-6.2091,-6.1942,-6.2869,-6.5443,-6.7627,-6.9662,-7.1607,-7.1398,-7.1038,-7.0949,-6.9333,-6.8704,-6.9901,-7.0051,-7.1128,-7.3642,0.0,-7.6395,-7.7682,-7.6357,-7.4686,-7.2506,-7.0421,-6.8331,-6.6112,-6.6112,-6.6112,-6.6112,-6.6112,-6.6112,-6.6112,-6.6112,-6.6112,-6.6112,-6.6112,-6.6112,-6.6112,-6.6112,-6.6112,-6.6112,-6.6112,-6.6112,-6.6112,-6.6112,-6.6112,-6.6112,-6.6112,-6.4478,-6.2113,-5.9545,-5.7132,-5.4548,-5.2161,-5.1426,-5.1426,-5.1426,-5.1426,-5.1426,-5.1426,-5.1426,-5.1543,-5.1973,-5.1777,-5.1699,-5.2539,-5.2422,-5.2266,-5.2656,-5.3086,-5.3398,-5.3398,-5.375,-5.4023,-5.4023,-5.4023,-5.4023,-5.4023,-5.4023,-5.3134,-5.0763,-5.0702,-4.8694,-4.3127,-4.3037,-4.1861,-3.895,-3.9012,-3.9159,-3.9185,-3.9733,-4.0027,-4.0067,-4.0615,-4.1056,-4.1336,-4.163,-4.1924,-4.2218,-4.2218,-4.2218,-5.9061,-6.1642,-6.4096,-6.5413,-6.6251,-6.6789,-6.6939,-6.6221,-6.5144,-6.3827,-6.2241,-6.0535,-5.871,-6.0027,-6.1912,-6.3558,-6.6729,-6.9662,-7.1607,-7.2595,-7.2744,-7.1757,-7.1637,-7.1398,-7.0739,-7.1098,-7.1876,-7.3073,-7.439,-7.5707,-7.7023,-7.6123,-7.4686,-7.2506,-7.0421,-6.8331,-6.6112,-6.6112,-6.6112,-6.6112,-6.6112,-6.6112,-6.6112,-6.6112,-6.6112,-6.6112,-6.6112,-6.6112,-6.6112,-6.6112,-6.6112,-6.6112,-6.6112,-6.6112,-6.6112,-6.6112,-6.6112,-6.6112,-6.6112,-6.4478,-6.2113,-5.9545,-5.7132,-5.4548,-5.2161,-5.1426,-5.1426,-5.1426,-5.1426,-5.1426,-5.1426,-5.1426,-5.1543,-5.1973,-5.1992,-5.2051,-5.2598,-5.2871,-5.3066,-5.3164,-5.3555,-5.3867,-5.3867,-5.3945,-5.4023,-5.4023,-5.4023,-5.4023,-5.4023,-5.4023,-5.4091,-5.3977,-5.2176,-4.9681,-4.6572,-4.4486,-4.1861,-3.895,-3.9012,-3.9265,-3.9493,-3.9853,-4.0147,-4.0361,-4.0508,-4.0842,-4.1336,-4.1416,-4.171,-4.2218,-4.2218,-4.2218,-6.1428,-6.4021,-6.6365,-6.6372,-6.6729,-6.6792,-6.6156,-6.5019,-6.3404,-6.0802,-5.9108,-5.7154,-5.4551,-5.6496,-5.9129,-6.1044,-6.4904,-6.8675,-7.1487,-7.2535,-7.2954,-7.2774,-7.2595,-7.2295,-7.1816,-7.2116,-7.2624,-7.3283,-7.4569,-7.5766,-7.6784,-7.6035,-7.5145,-7.3915,-7.088,-6.8331,-6.6112,-6.6112,-6.6112,-6.6112,-6.6112,-6.6112,-6.6112,-6.6112,-6.6112,-6.6112,-6.6112,-6.6112,-6.6112,-6.6112,-6.6112,-6.6112,-6.6112,-6.6112,-6.6112,-6.6112,-6.6112,-6.6112,-6.6112,-6.3729,-6.0632,-5.918,-5.6408,-5.3275,-5.1794,-5.1426,-5.1426,-5.1426,-5.1426,-5.1465,-5.166,-5.1719,-5.1875,-5.25,-5.25,-5.2519,-5.3144,-5.332,-5.3418,-5.3613,-5.3867,-5.4023,-5.4023,-5.4023,-5.4023,-5.4023,-5.4023,-5.4101,-5.4297,-5.4316,-5.4492,-5.498,-5.3824,-5.1585,-4.7618,-4.5998,-4.3261,-3.9138,-3.9199,-3.9493,-3.9773,-4.0067,-4.0294,-4.0481,-4.0481,-4.0762,-4.1336,-4.1336,-4.163,-4.2218,-4.2218,-4.2218,-6.4152,-6.6576,-6.8458,-6.7517,-6.7306,-6.6849,-6.5034,-6.3558,-6.1388,-5.7377,-5.5439,-5.3503,-5.0541,-5.2695,-5.5837,-5.865,-6.2839,-6.7178,-7.1308,-7.1876,-7.2415,-7.3851,-7.2984,-7.2535,-7.3103,-7.3163,-7.3462,-7.4121,-7.5318,-7.6275,-7.6814,-7.633,-7.593,-7.56,-7.1496,-6.8331,-6.6601,-6.6283,-6.6112,-6.6112,-6.6112,-6.6112,-6.6112,-6.6112,-6.6112,-6.6112,-6.6112,-6.6112,-6.6112,-6.6112,-6.6112,-6.6112,-6.6112,-6.6112,-6.6112,-6.6112,-6.6112,-6.6112,-6.6112,-6.2824,-5.8814,-5.8814,-5.5492,-5.1426,-5.1426,-5.1426,-5.1445,-5.1504,-5.1523,-5.1621,-5.2051,-5.2168,-5.2363,-5.3164,-5.3066,-5.3027,-5.3848,-5.3769,-5.3652,-5.4043,-5.4121,-5.4141,-5.4199,-5.416,-5.4141,-5.4199,-5.4199,-5.4336,-5.4707,-5.4707,-5.4726,-5.4844,-5.5508,-5.3522,-4.7622,-4.7495,-4.5186,-3.9366,-3.9939,-4.0236,-4.0027,-4.079,-4.0953,-4.0481,-4.0508,-4.0802,-4.1336,-4.1376,-4.167,-4.2218,-4.2218,-4.2218,-6.7523,-6.9158,-7.0489,-6.917,-6.8757,-6.8029,-6.5342,-6.2192,-5.8893,-5.5906,-5.258,-4.9942,-4.8835,-5.1319,-5.476,-5.8501,-6.2061,-6.6101,-7.1188,-7.1876,-7.2595,-7.448,-7.451,-7.442,-7.451,-7.454,-7.4809,0.0,-7.6245,-7.6724,-7.6814,-7.7754,-7.7358,-7.5628,-7.1496,-6.9135,-6.8804,-6.7061,-6.6112,-6.6112,-6.6112,-6.6112,-6.6112,-6.6112,-6.6112,-6.6112,-6.6112,-6.6112,-6.6112,-6.6112,-6.6112,-6.6112,-6.6112,-6.6112,-6.6112,-6.6112,-6.6112,-6.6112,-6.6112,-6.2824,-5.8814,-5.8814,-5.5492,-5.1426,-5.1426,-5.1426,-5.1504,-5.1875,-5.1973,-5.207,-5.25,-5.2598,-5.2734,-5.3242,-5.3301,-5.3398,-5.3926,-5.4258,-5.4473,-5.4551,-5.457,-5.4668,-5.5019,-5.4805,-5.4687,-5.5039,-5.5078,-5.5117,-5.5195,-5.4902,-5.4941,-5.5644,-5.584,-5.3634,-4.7972,-4.7875,-4.5435,-3.9366,-4.217,-4.2763,-4.0014,-4.2882,-4.3053,-4.0481,-4.0722,-4.1016,-4.1336,-4.1603,-4.1897,-4.2218,-4.2218,-4.2218,-6.8152,-7.033,-7.2175,-7.0727,-6.9396,-6.7651,-6.4106,-6.0058,-5.5814,-5.1654,-4.8865,-4.68,-4.5454,-4.9015,-5.2905,-5.5149,-5.886,-6.3288,-6.8585,-6.9632,-7.0979,-7.4001,-7.4659,-7.4869,-7.4869,-7.4869,-7.5168,-7.5856,-7.6485,-7.6963,-7.7322,-7.825,-7.7828,-7.5628,-7.3549,-7.1496,-6.9274,-6.8331,-6.723,-6.6112,-6.6112,-6.6112,-6.6112,-6.6112,-6.6112,-6.6112,-6.6112,-6.6112,-6.6112,-6.6112,-6.6112,-6.6112,-6.6112,-6.6112,-6.6112,-6.6112,-6.6112,-6.594,-6.4653,-6.1911,-5.863,-5.7339,-5.4544,-5.1777,-5.1777,-5.1914,-5.2148,-5.2344,-5.2402,-5.25,-5.293,-5.3047,-5.3164,-5.3594,-5.3711,-5.3769,-5.3984,-5.4375,-5.4687,-5.4687,-5.4863,-5.5058,-5.5273,-5.5137,-5.5078,-5.5273,-5.5312,-5.539,-5.5605,-5.5449,-5.5488,-5.5898,-5.6133,-5.4579,-5.0302,-5.0224,-4.8722,-4.4366,-4.5998,-4.5886,-4.2811,-4.4133,-4.383,-4.0695,-4.0842,-4.1122,-4.1563,-4.171,-4.1924,-4.2218,-4.2218,-4.2218,-6.8516,-7.1274,-7.3701,-7.2282,-7.0099,-6.7096,-6.2779,-5.7892,-5.2903,-4.7808,-4.5563,-4.4107,-4.3,-4.6711,-5.0481,-5.2127,-5.5837,-6.0356,-6.5802,-6.7508,-6.9572,-7.3253,-7.439,-7.4869,-7.4869,-7.4869,-7.5228,-7.6036,-7.6814,-7.7472,-7.7981,-7.8519,-7.8004,-7.6409,-7.5779,-7.4042,-7.0718,-6.9768,-6.8498,-6.6746,-6.6258,-6.6112,-6.6112,-6.6112,-6.6112,-6.6112,-6.6112,-6.6112,-6.6112,-6.6112,-6.6112,-6.6112,-6.6112,-6.6112,-6.6112,-6.6112,-6.6112,-6.5742,-6.3378,-6.0836,-5.8447,-5.5847,-5.3691,-5.1953,-5.2051,-5.2305,-5.2617,-5.2793,-5.2851,-5.2949,-5.3398,-5.3496,-5.3594,-5.3945,-5.4023,-5.4062,-5.4141,-5.4512,-5.4844,-5.4941,-5.5215,-5.5469,-5.5566,-5.5508,-5.5469,-5.5566,-5.5586,-5.5703,-5.6035,-5.6074,-5.6113,-5.6191,-5.6523,-5.5586,-5.2454,-5.2686,-5.1744,-4.9044,-4.9162,-4.8115,-4.513,-4.5219,-4.3946,-4.0922,-4.1016,-4.131,-4.179,-4.1857,-4.2004,-4.2218,-4.2218,-4.2218,-7.0235,-7.2769,-7.5161,-7.3701,-7.1213,-6.7591,-6.228,-5.6456,-5.1069,-4.6917,-4.3762,-4.2222,-4.3838,-4.5065,-4.7429,-5.2306,-5.497,-5.8501,-6.4395,-6.7328,-6.9931,-7.2684,-7.4121,-7.4869,-7.4869,-7.4869,-7.5407,-7.6664,-7.7891,-7.8639,-7.8699,-7.8759,-7.8789,-7.847,-7.6558,-7.5448,-7.4992,-7.1175,-6.9135,-6.897,-6.7061,-6.6112,-6.6112,-6.6112,-6.6112,-6.6112,-6.6112,-6.6112,-6.6112,-6.6112,-6.6112,-6.6112,-6.6112,-6.6112,-6.6112,-6.6112,-6.6112,-6.5742,-6.3378,-6.0836,-5.8447,-5.5847,-5.3487,-5.1562,-5.1973,-5.2109,-5.2305,-5.3086,-5.3301,-5.3398,-5.3848,-5.3965,-5.3984,-5.4023,-5.4023,-5.4141,-5.4531,-5.4961,-5.5371,-5.5742,-5.584,-5.5996,-5.6406,-5.6133,-5.6015,-5.6406,-5.6465,-5.6484,-5.6523,-5.6523,-5.668,-5.7051,-5.7129,-5.6027,-5.2889,-5.3317,-5.2394,-4.9442,-4.9542,-4.8372,-4.513,-4.5429,-4.4192,-4.0922,-4.1416,-4.175,-4.179,-4.2044,-4.2178,-4.2218,-4.2218,-4.2218,-6.9399,-7.2644,-7.5479,-7.443,-7.1286,-6.6872,-6.1345,-5.5131,-4.9297,-4.4772,-4.2244,-4.1145,-4.2342,-4.3718,-4.5933,-4.9643,-5.1229,-5.3952,-5.9488,-6.1852,-6.4755,-6.9393,-7.1457,-7.3133,0.0,0.0,-7.5407,-7.6724,-7.8041,-7.8789,-7.8789,-7.8789,-7.8789,-7.8789,-7.8004,-7.6885,-7.56,-7.3887,-7.1816,-6.9274,-6.8498,-6.7374,-6.6112,-6.6112,-6.6112,-6.6112,-6.6112,-6.6112,-6.6112,-6.6112,-6.6112,-6.6112,-6.6112,-6.6112,-6.6112,-6.6112,-6.6112,-6.557,-6.1554,-5.9545,-5.8079,-5.4189,-5.2161,-5.1523,-5.1953,-5.2441,-5.293,-5.3262,-5.3555,-5.3808,-5.3984,-5.4023,-5.4023,-5.4023,-5.4023,-5.4141,-5.459,-5.5019,-5.543,-5.5859,-5.6152,-5.6387,-5.6562,-5.6445,-5.6387,-5.6562,-5.6582,-5.6582,-5.6582,-5.6582,-5.6738,-5.7168,-5.7207,-5.6871,-5.5991,-5.6321,-5.6215,-5.5039,-5.3554,-5.1183,-4.8169,-4.6399,-4.4308,-4.1163,-4.1563,-4.1857,-4.2044,-4.2151,-4.2218,-4.2218,-4.2218,-4.2218,-6.691,-7.062,-7.3738,-7.3238,-6.9603,-6.4796,-5.9645,-5.3565,-4.7624,-4.3045,-4.1175,-4.0606,-4.1265,-4.2821,-4.4885,-4.7549,-4.8865,-5.1319,-5.6406,-5.859,-6.1553,-6.652,0.0,-7.1009,-7.3462,-7.4599,-7.5647,-7.6754,-7.7861,-7.8579,-7.8789,-7.8789,-7.8789,-7.8789,-7.8789,-7.8004,-7.6558,-7.593,-7.4197,-7.1175,-6.9931,-6.8498,-6.7061,-6.6429,-6.6112,-6.6112,-6.6112,-6.6112,-6.6112,-6.6112,-6.6112,-6.6112,-6.6112,-6.6112,-6.6112,-6.6112,-6.6112,-6.5372,-6.0452,-5.8814,-5.7894,-5.3104,-5.1523,-5.168,-5.1992,-5.2598,-5.3223,-5.3476,-5.3789,-5.4023,-5.4023,-5.4023,-5.4023,-5.4023,-5.4023,-5.418,-5.4746,-5.5098,-5.5469,-5.6015,-5.6367,-5.6582,-5.6582,-5.668,-5.6719,-5.6601,-5.6797,-5.6914,-5.6777,-5.6894,-5.7129,-5.7558,-5.7598,-5.7734,-5.8027,-5.8476,-5.8267,-5.7317,-5.4555,-5.1714,-4.8783,-4.5848,-4.3333,-4.1456,-4.175,-4.2004,-4.2218,-4.2218,-4.2218,-4.2218,-4.2218,-4.1178,-6.2882,-6.6333,-6.9487,-6.9487,-6.5696,-6.1025,-5.7306,-5.1537,-4.5943,-4.2228,-4.0876,-4.0606,-4.1265,-4.2462,-4.4227,-4.689,-4.8955,-5.1858,-5.6496,-5.9428,-6.2091,0.0,-6.6819,-6.8794,-7.0739,-7.3941,-7.6155,-7.6784,-7.7442,0.0,-7.8759,-7.8789,-7.8789,-7.8789,-7.8789,-7.8789,-7.8789,-7.6707,-7.56,-7.5448,-7.1336,-6.9274,-6.9135,-6.7061,-6.6112,-6.6112,-6.6112,-6.6112,-6.6112,-6.6112,-6.6112,-6.6112,-6.6112,-6.6112,-6.6112,-6.6112,-6.6112,-6.5372,-6.0452,-5.8814,-5.7894,-5.3104,-5.1719,-5.207,-5.209,-5.2383,-5.2891,-5.3769,-5.4023,-5.4023,-5.4023,-5.4023,-5.4023,-5.4023,-5.4023,-5.4258,-5.5117,-5.5312,-5.5566,-5.6406,-5.6582,-5.6582,-5.6582,-5.6933,-5.707,-5.664,-5.7305,-5.7695,-5.7265,-5.7578,-5.8027,-5.8476,-5.8535,-5.8535,-5.8535,-5.8945,-5.7776,-5.47,-5.168,-4.8564,-4.5863,-4.2871,-4.1497,-4.179,-4.2071,-4.2218,-4.2218,-4.2218,-4.2218,-4.2218,-4.2218,-3.857,-5.8743,-6.1914,-6.4481,-6.3451,-6.1202,-5.8204,-5.3883,-4.9852,-4.5943,-4.2198,-4.0846,-4.0606,-4.1265,-4.2073,-4.4137,-4.8596,-4.9823,-5.1708,-5.5897,-5.9159,0.0,-6.4725,-6.9572,-7.2924,0.0,0.0,-7.5976,-7.6185,-7.7203,-7.7891,-7.81,-7.8549,-7.8789,-7.8789,-7.8789,-7.8789,-7.8789,-7.8149,-7.7033,-7.56,-7.4197,-7.2134,-6.9274,-6.8664,-6.7543,-6.6112,-6.6112,-6.6112,-6.6112,-6.6112,-6.6112,-6.6112,-6.6112,-6.6112,-6.6112,-6.6112,-6.6112,-6.5372,-6.0452,-5.8814,-5.7938,-5.3467,-5.1973,-5.2187,-5.2773,-5.3047,-5.3281,-5.3867,-5.4023,-5.4023,-5.4023,-5.4023,-5.4101,-5.4394,-5.4473,-5.4707,-5.5547,-5.5742,-5.5898,-5.6465,-5.6582,-5.668,-5.6953,-5.7129,-5.7265,-5.7441,-5.7695,-5.7812,-5.7676,-5.7793,-5.8027,-5.8476,-5.8535,-5.8652,-5.8945,-5.9121,-5.7776,-5.47,-5.1431,-4.8564,-4.5623,-4.2857,-4.1483,-4.179,-4.2071,-4.2218,-4.2218,-4.2218,-4.2218,-4.2205,-3.9882,-3.6232,-5.3837,-5.7119,-5.9506,-5.8656,-5.6898,-5.4554,-5.0993,-4.7814,-4.4833,-4.2045,-4.1152,-4.1001,-4.1425,-4.2768,-4.4678,-4.7486,-4.9072,-5.1302,-5.498,-5.8052,0.0,-6.5293,0.0,0.0,0.0,-7.4809,-7.5617,-7.5886,-7.6634,-7.7203,-7.7442,-7.7831,-7.8041,-7.8041,-7.8519,-7.8789,-7.8789,-7.8789,-7.8149,-7.6736,-7.5145,-7.3108,-7.0421,-6.8804,-6.7374,-6.6112,-6.6112,-6.6112,0.0,-6.6112,-6.6112,-6.6112,-6.6112,-6.6112,-6.6112,-6.6112,-6.557,-6.4104,-6.0271,-5.8374,-5.7106,-5.3301,-5.2305,-5.2695,-5.3398,-5.3613,-5.3672,-5.3945,-5.4023,-5.4023,-5.4023,-5.416,-5.4336,-5.4609,-5.4805,-5.5098,-5.5781,-5.5937,-5.6055,-5.6504,-5.6719,-5.6914,-5.7168,-5.748,-5.7734,-5.7851,-5.8144,-5.832,-5.8144,-5.8262,-5.8496,-5.8769,-5.8769,-5.8887,-5.918,-5.8,-5.6119,-5.2815,-4.9938,-4.6876,-4.4152,-4.2298,-4.1644,-4.1924,-4.2111,-4.2218,-4.2218,-4.2218,-4.2218,-4.2205,-3.8583,-3.5193,0.0,-5.1977,-5.4401,-5.4371,-5.2516,-5.0212,-4.8297,-4.5514,0.0,-4.1822,-4.1604,-4.1666,-4.1789,-4.3992,-4.5562,-4.4941,-4.7646,-5.1015,-5.4127,-5.7019,0.0,0.0,-6.9662,0.0,-7.2026,-7.3791,-7.5138,-7.5766,-7.5886,-7.6155,-7.6724,-7.6814,-7.6814,-7.6814,-7.8011,-7.8639,-7.8639,-7.8639,-7.8669,-7.8729,-7.4629,-7.2609,-7.2348,-6.819,-6.6283,-6.6112,-6.6112,-6.6112,-6.6112,-6.6112,-6.6112,-6.6112,-6.6112,-6.6112,-6.6112,-6.6112,-6.4653,-6.2113,-5.9727,-5.7436,-5.5404,-5.2855,-5.2715,-5.3476,-5.3906,-5.4023,-5.4023,-5.4023,-5.4023,-5.4023,-5.4023,-5.4355,-5.4687,-5.4726,-5.5039,-5.5469,-5.5898,-5.5976,-5.6094,-5.6504,-5.6933,-5.7226,-5.7246,-5.7969,-5.8418,-5.8027,-5.8672,-5.9062,-5.8652,-5.8945,-5.918,-5.918,-5.918,-5.918,-5.918,-5.6346,-5.3097,-5.0072,-4.7114,-4.4351,-4.1363,-4.1644,-4.1924,-4.2218,-4.2218,-4.2218,-4.2218,-4.2218,-4.2218,-4.2205,-3.8303,-3.4947,-4.312,0.0,-4.6741,-4.6232,-4.6022,-4.5544,0.0,-4.315,-4.2269,-4.0992,-4.0734,-4.1143,-4.265,-4.3666,-4.551,-4.8984,-5.0847,-5.3374,-5.7377,-6.2841,0.0,-7.1108,-7.2954,-7.4001,-7.4151,-7.4599,-7.4958,-7.5108,-7.5617,-7.5976,-7.6125,-7.6574,-7.6814,-7.6814,-7.7143,-7.7293,-7.7293,-7.7293,-7.7532,-7.8041,-7.5414,-7.3619,-7.2348,-6.9768,-6.7712,-6.6112,-6.6112,-6.6112,-6.6112,-6.6112,-6.6112,-6.6112,-6.6112,-6.6112,-6.6112,-6.6112,-6.4653,-6.2113,-5.9727,-5.7219,-5.5029,-5.3093,-5.3164,-5.3887,-5.4004,-5.4023,-5.4023,-5.4023,-5.4023,-5.4023,-5.4023,-5.4355,-5.4765,-5.5078,-5.5488,-5.5898,-5.6348,-5.6426,-5.6465,-5.6562,-5.6933,-5.7324,-5.7656,-5.8183,-5.8594,-5.8828,-5.9062,-5.9121,-5.9062,-5.9121,-5.918,-5.918,-5.918,-5.918,-5.918,-5.6346,-5.3185,-5.0437,-4.7253,-4.4481,-4.1906,-4.175,-4.1924,-4.2218,-4.2218,-4.2218,-4.2218,-4.2218,-4.2218,-4.1952,-3.5975,-3.2614,-4.1555,-4.3427,-4.5207,-4.5384,-4.5112,-4.4659,-4.4126,-4.2743,-4.1325,-4.0679,-4.0538,-4.1055,-4.2682,-4.4444,-4.6529,-4.9335,-5.2278,-5.6264,-6.2031,-6.718,-7.129,-7.3624,-7.457,-7.4869,0.0,-7.4869,-7.4869,-7.4869,-7.5228,-7.5437,-7.5437,-7.5736,-7.5946,-7.5946,-7.5946,-7.6215,-7.6814,-7.6814,-7.6993,-7.7352,-7.5218,-7.3511,-7.1907,-6.9856,-6.7763,-6.6112,-6.6112,-6.6112,-6.6112,-6.6112,-6.6112,-6.6112,-6.6112,-6.6112,-6.6112,-6.6112,-6.3929,-6.0632,-5.9362,-5.6688,-5.3811,-5.3172,-5.3476,-5.4023,-5.4023,-5.4023,-5.4023,-5.4023,-5.4023,-5.4082,-5.4277,-5.4648,-5.5078,-5.5488,-5.5918,-5.6289,-5.6543,-5.6582,-5.6582,-5.6582,-5.709,-5.7578,-5.7812,-5.8379,-5.8887,-5.9121,-5.918,-5.918,-5.918,-5.918,-5.918,-5.918,-5.918,-5.9238,-5.9473,-5.6625,-5.4142,-5.2694,-4.9936,-4.7693,-4.6379,-4.5058,-4.3511,-4.2218,-4.2218,-4.2218,-4.2218,-4.2218,-4.1432,-3.9615,-3.441,-3.1048,-4.2202,-4.4557,-4.6833,-4.6998,-4.6247,-4.5513,-4.5566,-4.3187,-4.1066,-4.1193,-4.1336,-4.1897,-4.3448,-4.6297,-4.8642,-4.9505,-5.4196,-6.0063,-6.6524,-7.0212,-7.2858,-7.468,-7.4941,0.0,-7.4869,-7.4869,-7.4869,-7.4869,-7.4869,-7.4869,-7.4869,-7.4869,-7.4869,-7.4869,-7.4869,-7.5407,-7.6514,-7.6544,-7.6574,-7.6694,-7.4227,-7.2557,-7.1273,-6.8758,-6.7042,-6.5986,-6.5986,-6.6036,-6.6112,-6.6112,-6.6112,-6.6112,-6.6112,-6.6112,-6.6112,-6.6112,-6.3001,-5.863,-5.7894,-5.5533,-5.2773,-5.3144,-5.3613,-5.4023,-5.4023,-5.4023,-5.4023,-5.4023,-5.4023,-5.4141,-5.457,-5.5,-5.541,-5.584,-5.6269,-5.6582,-5.6582,-5.6582,-5.6601,-5.668,-5.7324,-5.7871,-5.7969,-5.8652,-5.918,-5.918,-5.918,-5.918,-5.918,-5.918,-5.918,-5.918,-5.9238,-5.9414,-5.9765,-5.7568,-5.5977,-5.5977,-5.3235,-5.1249,-5.0799,-4.7926,-4.5168,-4.2218,-4.2218,-4.2218,-4.2218,-4.2218,-4.0403,-3.7013,-3.3389,-3.0019,-4.4225,-4.6869,-4.7945,-4.3954,-4.4623,-4.5769,-4.3958,-4.3604,-4.3631,-4.3639,-4.4154,-4.5368,-4.7882,-5.0098,-5.2631,-5.5963,-6.1153,-6.5629,-6.7778,-7.0942,-7.3052,-7.3194,0.0,-7.4869,-7.4869,-7.4869,-7.4869,-7.4869,-7.4869,-7.4869,-7.4869,-7.4869,-7.4869,-7.4869,-7.4869,-7.4958,-7.5168,-7.5168,-7.5467,-7.6036,-7.2188,-7.0519,-7.0666,-6.677,-6.5218,-6.5409,0.0,-6.5685,-6.6112,-6.6112,-6.6112,-6.6112,-6.6112,-6.6112,-6.6112,-6.6112,-6.3001,-5.8263,-5.4019,-5.2561,-5.2715,-5.2793,-5.3359,-5.4023,-5.4023,-5.4023,-5.4023,-5.4023,-5.4023,-5.4141,-5.457,-5.5,-5.541,-5.584,-5.6269,-5.6582,-5.6582,-5.6582,-5.668,-5.7051,-5.7519,-5.7969,-5.8359,-5.8828,-5.918,-5.918,-5.918,-5.918,-5.918,-5.918,-5.918,-5.918,-5.9512,-5.9746,-5.9805,-6.0011,-6.0168,-6.0168,-5.4733,-5.0379,-4.7987,-4.4653,-4.2724,-4.2218,-4.2218,-4.2218,-4.2218,-4.2218,-4.0403,-3.7013,-3.3389,-3.0019,-4.4476,-4.701,-4.8563,-4.5854,-4.7525,-4.9586,-4.88,-4.7577,-4.6647,-4.6647,-4.6904,-4.787,-5.0209,-5.2833,-5.6481,-6.2378,-6.7168,-7.0391,-7.092,-7.2908,-7.4336,0.0,0.0,-7.448,-7.4839,-7.4869,-7.4869,-7.4869,-7.4869,-7.4869,-7.4869,-7.4869,-7.4869,-7.4869,-7.4869,-7.4869,-7.4869,-7.4869,-7.5018,-7.5347,-7.3349,-7.1699,-7.0032,-6.8167,-6.6503,-6.5283,0.0,-6.5609,-6.6112,-6.6112,-6.6112,-6.6112,-6.6112,-6.6112,-6.594,-6.4653,-6.1911,-5.8447,-5.6243,-5.423,-5.2894,-5.424,-5.4465,-5.4023,-5.4023,-5.4023,-5.4082,-5.4316,-5.4375,-5.4473,-5.4902,-5.5332,-5.5762,-5.6191,-5.6445,-5.6582,-5.6582,-5.6582,-5.6719,-5.7129,-5.7558,-5.8027,-5.8476,-5.8887,-5.918,-5.918,-5.918,-5.918,-5.918,-5.918,-5.9297,-5.9512,-5.9687,-5.998,-6.0449,-6.0859,-6.1191,-6.1426,-5.7074,-5.2995,-4.9771,-4.6636,-4.3915,-4.2218,-4.2218,-4.2218,-4.2218,-4.2218,-3.9348,-3.4174,-3.2603,-2.8986,-4.5587,-4.753,-4.9221,-4.8984,-5.0687,-5.2562,-5.3407,-5.1663,-5.0046,-5.07,-5.0994,-5.1582,-5.3106,-5.6624,-6.1294,-6.7674,-7.1853,-7.409,-7.352,-7.454,-7.5269,-7.4772,-7.4202,-7.4151,-7.4809,-7.4749,-7.4659,-7.4659,-7.451,-7.442,-7.442,-7.442,-7.442,-7.442,-7.442,-7.442,-7.442,-7.4569,-7.4719,-7.4869,-7.3981,-7.2115,-6.955,-6.848,-6.6898,-6.4931,-6.4931,-6.5308,-6.5911,-6.5911,-6.5986,-6.6112,-6.6112,-6.6112,-6.5742,-6.3378,-6.1375,-5.9545,-5.8997,-5.6842,-5.4613,-5.5939,-5.5815,-5.4798,-5.4227,-5.4023,-5.4121,-5.4551,-5.4746,-5.4922,-5.5351,-5.5703,-5.6055,-5.6484,-5.6582,-5.6582,-5.6582,-5.666,-5.6855,-5.7285,-5.7715,-5.8144,-5.8594,-5.8945,-5.918,-5.918,-5.918,-5.9238,-5.9297,-5.9355,-5.9473,-5.9922,-6.0039,-6.039,-6.1152,-6.0516,-6.0146,-6.0472,-5.7585,-5.4164,-5.1027,-4.7816,-4.4653,-4.2218,-4.2218,-4.2218,-4.2218,-4.2218,-3.8583,-3.1827,-3.1827,-2.7941,-4.912,-4.9864,-5.0338,-5.1657,-5.1628,-5.1865,-5.4024,-5.3787,-5.3956,-5.6689,-5.7803,-5.8343,-5.8403,-6.3168,-6.7944,-7.0635,-7.4221,-7.5907,-7.3624,0.0,-7.4791,-7.3244,-7.3627,-7.4151,-7.4809,-7.433,-7.3971,-7.3971,-7.3402,-7.3043,-7.3043,-7.3043,-7.3043,-7.3043,-7.3043,-7.3043,-7.3043,-7.3672,-7.427,-7.4869,-7.1133,-6.9215,-6.882,-6.5027,-6.3527,-6.3802,-6.3802,-6.4379,-6.5358,-6.5358,-6.566,-6.6112,-6.6112,-6.6112,-6.5742,-6.3378,-6.2469,-6.1911,-5.9545,-5.9278,-5.935,-5.708,-5.6955,-5.7132,-5.4818,-5.4023,-5.4121,-5.4551,-5.4961,-5.5351,-5.5781,-5.5918,-5.6055,-5.6484,-5.6582,-5.6582,-5.6582,-5.6894,-5.7285,-5.7734,-5.8183,-5.8594,-5.9062,-5.918,-5.918,-5.918,-5.918,-5.9297,-5.9707,-5.9765,-5.9922,-6.0332,-6.0742,-6.1191,-6.166,-5.8986,-5.731,-5.7329,-5.4181,-5.0766,-4.7599,-4.4417,-4.2471,-4.2218,-4.2218,-4.2218,-4.2218,-4.2218,-3.8583,-3.1827,-3.1827,-2.7941,-4.78,-4.8714,-4.9763,-5.1251,-5.2131,-5.345,-5.663,-5.822,-5.9742,-6.2212,-6.2956,-6.3294,-6.3768,-6.6846,-6.9891,-7.1684,-7.5134,-7.6541,-7.3738,-7.4537,-7.4753,-7.251,-7.2505,-7.2924,-7.3582,-7.3432,-7.3283,-7.3283,-7.3043,-7.2924,-7.2924,-7.2924,-7.2924,-7.2924,-7.2924,-7.2924,-7.2924,-7.3163,-7.3612,-7.427,-7.1826,-7.0079,-6.8737,-6.6,-6.435,-6.3701,-6.3701,-6.4304,-6.5283,-6.5283,-6.5609,-6.6112,-6.6112,-6.6112,-6.594,-6.5025,-6.3754,-6.2647,-6.3177,-6.1819,-5.968,-5.8861,-5.8085,-5.6936,-5.4719,-5.4023,-5.418,-5.4883,-5.5176,-5.541,-5.582,-5.6133,-5.6387,-5.6543,-5.6582,-5.6582,-5.6582,-5.6914,-5.7344,-5.7793,-5.8203,-5.8652,-5.9121,-5.918,-5.918,-5.918,-5.9414,-5.9629,-5.9805,-6.0039,-6.0371,-6.0801,-6.1211,-6.1543,-6.1719,-5.8787,-5.6119,-5.3957,-5.075,-4.831,-4.7103,-4.3929,-4.2218,-4.2218,-4.2218,-4.2218,-4.2218,-4.2218,-3.8583,-3.1827,-3.1827,-2.7941,-4.7564,-4.824,-4.9357,-5.0845,-5.2536,-5.4938,-5.9133,-6.1264,-6.3294,-6.644,-6.6711,-6.6677,-6.7692,-6.9147,-7.0669,-7.2157,-7.554,-7.6842,-7.377,-7.4683,-7.4659,-7.2149,-7.1876,-7.2146,-7.2834,-7.2714,-7.2595,-7.2595,-7.2385,-7.2265,-7.2265,-7.2265,-7.2265,-7.2265,-7.2265,-7.2265,-7.2265,-7.2475,-7.2804,-7.3253,-7.2041,-7.0615,-6.8737,-6.6156,-6.4248,-6.3425,-6.3425,-6.3927,-6.4806,-6.4957,-6.5459,-6.6112,-6.6112,-6.6112,-6.6112,-6.6112,-6.5025,-6.3929,-6.557,-6.427,-6.1646,-6.0487,-5.9277,-5.7669,-5.4862,-5.4023,-5.4219,-5.5058,-5.5312,-5.543,-5.5996,-5.6367,-5.6582,-5.6582,-5.6582,-5.6582,-5.6582,-5.7031,-5.75,-5.7812,-5.832,-5.8828,-5.9121,-5.918,-5.918,-5.918,-5.9531,-5.9863,-5.998,-6.039,-6.0801,-6.125,-6.1543,-6.1719,-6.1719,-5.784,-5.4439,-5.2228,-4.7816,-4.5625,-4.5625,-4.3426,-4.2218,-4.2218,-4.2218,-4.2218,-4.2218,-4.2218,-3.8583,-3.1827,-3.1827,-2.7941,-4.9187,-4.8984,-4.9357,-5.0845,-5.2942,-5.6021,-6.1231,-6.2415,-6.3937,-6.9147,-6.9011,-6.8402,-6.9925,-7.0229,-7.0703,-7.2157,-7.554,-7.6943,-7.377,0.0,0.0,-7.2149,-7.1876,-7.2146,-7.2834,-7.2265,-7.1876,-7.1876,-7.1278,-7.0889,-7.0889,-7.0889,-7.0889,-7.0889,-7.0889,-7.0889,-7.0889,-7.1547,-7.1876,-7.1906,-7.1167,-7.0189,-6.8737,-6.4657,-6.2822,-6.2822,-6.2822,-6.3149,-6.3726,-6.4254,-6.5132,-6.6112,-6.6112,-6.6112,-6.6112,-6.6112,-6.6112,-6.6112,-6.6112,-6.6488,-6.6291,-6.1603,-6.0417,-5.9952,-5.5427,-5.4023,-5.4199,-5.5058,-5.5293,-5.5508,-5.6348,-5.6582,-5.6582,-5.6582,-5.6582,-5.6582,-5.6582,-5.7265,-5.7871,-5.7871,-5.8555,-5.918,-5.918,-5.918,-5.918,-5.918,-5.9531,-5.998,-6.039,-6.084,-6.125,-6.166,-6.1719,-6.1719,-6.1719,-5.5623,-5.2002,-5.2002,-4.5889,-4.2218,-4.2218,-4.2218,-4.2218,-4.2218,-4.2218,-4.2218,-4.2218,-4.2218,-3.8583,-3.1827,-3.1827,-2.7941,-4.7158,-4.8173,-5.0135,-5.1623,-5.5243,-5.9573,-6.3768,-6.5527,-6.7624,-7.2326,-7.2529,-7.1819,-7.1751,-7.2157,-7.2631,-7.3105,-7.5439,-7.6709,-7.5218,0.0,0.0,0.0,-7.1903,-7.1278,-7.1487,-7.1308,-7.1188,-7.1188,-7.1009,-7.0889,-7.0889,-7.0889,-7.0889,-7.0889,-7.0889,-7.0889,-7.0889,-7.1098,-7.1427,-7.1876,-6.8961,-6.7814,-6.8103,-6.5971,-6.4177,-6.2822,-6.2822,-6.3149,-6.3751,-6.468,-6.5459,-6.6112,-6.6112,-6.6112,-6.6112,-6.6112,-6.6112,-6.6112,-6.6112,-6.6237,-6.5893,-6.3121,-6.1394,-6.0206,-5.9181,-5.7831,-5.6876,-5.7452,-5.7842,-5.7822,-5.6379,-5.6348,-5.6582,-5.6582,-5.6582,-5.6582,-5.6582,-5.7265,-5.7871,-5.7871,-5.8555,-5.918,-5.918,-5.918,-5.9297,-5.959,-5.998,-6.0508,-6.125,-6.1426,-6.1601,-6.1719,-6.1719,-6.1719,-6.1719,-5.5623,-5.2002,-5.2002,-4.5889,-4.2218,-4.2218,-4.2218,-4.2218,-4.2218,-4.2218,-4.2218,-4.2218,-4.2218,-3.8583,-3.1827,-3.1827,-2.7941,-4.8376,-4.9627,-5.1623,-5.4296,-5.7543,-6.1467,-6.6711,-6.9079,-7.1041,-7.4356,-7.4221,-7.3443,-7.3308,-7.3409,-7.3578,-7.3883,-7.5608,-7.6505,-7.5351,0.0,0.0,0.0,-7.1309,-7.053,-7.053,-7.053,-7.053,-7.053,-7.029,-7.026,-7.053,-7.053,-7.0649,-7.0889,-7.0889,-7.0889,-7.0889,-7.0889,-7.0677,-7.0371,-6.8336,-6.6829,-6.5951,-6.4846,-6.3677,-6.2822,-6.2822,-6.3149,-6.3751,-6.4605,-6.5283,-6.581,-6.6036,-6.6112,-6.6112,-6.6112,-6.6112,-6.6112,-6.6112,-6.6112,-6.5867,-6.4043,-6.2637,-6.1529,-6.1289,-6.0347,-5.9352,-5.8652,-5.8914,-5.8785,-5.6432,-5.625,-5.6582,-5.6582,-5.6582,-5.6582,-5.6582,-5.7265,-5.7871,-5.7871,-5.8555,-5.918,-5.918,-5.918,-5.9297,-5.9531,-6.0039,-6.0683,-6.1367,-6.1601,-6.1719,-6.1719,-6.1719,-6.1213,-5.9787,-5.4921,-5.1515,-5.0016,-4.5168,-4.2218,-4.2218,-4.2218,-4.2218,-4.2218,-4.2218,-4.2218,-4.2218,-4.2218,-3.936,-3.3916,-3.2345,-2.8716,-5.1082,-5.2164,-5.3551,-5.7848,-5.9877,-6.2685,-6.9891,-7.2529,-7.3916,-7.5405,-7.4627,-7.3916,-7.4593,-7.4153,-7.3916,-7.4593,-7.5879,-7.6368,-7.493,-7.3977,0.0,0.0,-7.0553,-6.9901,-6.9901,-6.9901,-6.9901,-6.9901,-6.9333,-6.9273,-6.9871,-6.9901,-7.0141,-7.0709,-7.0799,-7.0829,-7.0829,-7.0889,-6.9913,-6.8112,-6.8521,-6.6815,-6.3159,-6.2527,-6.2457,-6.2822,-6.2822,-6.3149,-6.3726,-6.4254,-6.4806,-6.5333,-6.5886,-6.6112,-6.6112,-6.6112,-6.6112,-6.6112,-6.6112,-6.6112,-6.5917,-6.4487,-6.3944,-6.3633,-6.2676,-6.2234,-6.1646,-5.9364,-5.9073,-5.8968,-5.6582,-5.623,-5.6582,-5.6582,-5.6582,-5.6582,-5.6582,-5.7226,-5.7812,-5.7851,-5.8555,-5.9121,-5.918,-5.918,-5.918,-5.9238,-5.998,-6.0625,-6.1035,-6.1426,-6.1719,-6.1719,-6.1719,-6.0491,-5.7109,-5.394,-5.0522,-4.7336,-4.3915,-4.2218,-4.2218,-4.2218,-4.2218,-4.2218,-4.2218,-4.2218,-4.2218,-4.2218,-4.0403,-3.7013,-3.3647,-3.0279,-4.797,-5.098,-5.4735,-5.7442,-6.2212,-6.7421,-7.1988,-7.3274,-7.3916,-7.5405,-7.5439,-7.527,-7.5439,-7.5337,-7.527,-7.5439,-7.5743,0.0,-7.6335,-7.4228,-7.2748,-7.2952,-7.08,-6.9213,-6.9213,-6.9213,-6.9213,-6.9213,-6.9093,-6.9064,-6.9213,-6.9213,-6.9273,-6.9393,-6.9901,-7.0171,-7.0171,-7.0649,-6.9913,-6.8112,-6.6651,-6.508,-6.3159,-6.4009,-6.3797,-6.2822,-6.2822,-6.3149,-6.3726,-6.4254,-6.4806,-6.5333,-6.5886,-6.6112,-6.6112,-6.6112,-6.6112,-6.6112,-6.6112,-6.6112,-6.5965,-6.567,-6.4829,-6.4244,-6.5982,-6.5702,-6.4272,-6.1668,-6.1555,-6.1064,-5.6602,-5.6015,-5.6582,-5.6582,-5.6582,-5.6582,-5.6582,-5.6992,-5.7461,-5.7793,-5.832,-5.8769,-5.9121,-5.918,-5.9297,-5.9629,-6.039,-6.0976,-6.1094,-6.1426,-6.1719,-6.1719,-6.1719,-6.0491,-5.7109,-5.394,-5.0522,-4.7336,-4.3915,-4.2218,-4.2218,-4.2218,-4.2218,-4.2218,-4.2218,-4.2218,-4.2218,-4.2218,-4.0403,-3.7013,-3.6232,-3.3905,-4.8883,-5.1961,-5.5716,-6.0452,-6.5087,-6.9248,-7.2293,-7.2969,-7.3375,-7.4864,-7.5439,-7.5709,-7.5709,-7.5709,-7.5709,0.0,0.0,0.0,0.0,-7.3815,-7.206,-7.2444,-7.009,-6.8495,-6.8495,-6.8495,-6.8495,-6.8495,-6.8226,-6.8166,-6.8495,-6.8495,-6.8645,-6.9004,-6.9333,-6.9512,-6.9512,-6.9842,-6.8752,-6.6198,-6.5194,-6.3684,-6.1839,-6.2973,-6.3217,-6.2446,-6.2722,-6.2998,-6.3324,-6.3877,-6.4404,-6.4957,-6.5509,-6.5886,-6.6112,-6.6112,-6.6112,-6.6112,-6.6112,-6.6112,-6.6162,-6.6438,-6.5992,-6.5802,-6.7641,-6.7652,-6.6223,-6.2639,-6.2287,-6.1535,-5.6649,-5.5781,-5.6328,-5.6543,-5.6582,-5.6582,-5.6582,-5.6914,-5.7344,-5.7793,-5.8203,-5.8652,-5.9121,-5.918,-5.9238,-5.9473,-6.0215,-6.0781,-6.0781,-6.1308,-6.1719,-6.1719,-6.0276,-5.8059,-5.4921,-5.1498,-4.8325,-4.4904,-4.3215,-4.2218,-4.2218,-4.2218,-4.2218,-4.2218,-4.2218,-4.2218,-4.2218,-4.2218,-4.1191,-3.9348,-3.7792,-3.5987,-4.9763,-5.301,-5.6867,-6.3937,-6.7421,-6.9654,-7.1718,-7.2326,-7.2766,-7.4153,-7.4999,-7.554,-7.5676,-7.5709,0.0,0.0,0.0,0.0,0.0,0.0,-7.1388,-7.1388,-6.9259,-6.7807,-6.7807,-6.7807,-6.7807,-6.7807,-6.7298,-6.7238,-6.7777,-6.7807,-6.8076,-6.8645,-6.8764,-6.8824,-6.8824,-6.8944,-6.7291,-6.3997,-6.3543,-6.2191,-6.0211,-6.124,-6.1818,-6.2019,-6.2496,-6.2747,-6.2873,-6.345,-6.4002,-6.453,-6.5082,-6.5634,-6.6112,-6.6112,-6.6112,-6.6112,-6.6112,-6.6112,-6.6187,-6.6664,-6.689,-6.7166,-6.817,-6.8165,-6.7028,-6.2951,-6.172,-6.0635,-5.6282,-5.5566,-5.6015,-5.6387,-5.6523,-5.6582,-5.6582,-5.6855,-5.7226,-5.7676,-5.8183,-5.8652,-5.9121,-5.918,-5.918,-5.918,-5.9824,-6.0371,-6.043,-6.1133,-6.166,-6.1719,-5.8806,-5.5623,-5.2245,-4.908,-4.5654,-4.2458,-4.2218,-4.2218,-4.2218,-4.2218,-4.2218,-4.2218,-4.2218,-4.2218,-4.2218,-4.2218,-4.2218,-4.2205,-3.9348,-3.7804,-4.5229,-5.142,-5.8761,-6.4309,-6.7421,-6.9519,-7.1109,-7.1954,-7.2631,0.0,-7.4221,-7.4965,-7.5574,0.0,0.0,0.0,0.0,0.0,0.0,0.0,-7.1388,-7.1388,-6.8828,-6.7119,-6.7119,-6.7119,-6.7119,-6.7119,-6.7029,-6.7029,-6.7119,-6.7119,-6.7148,-6.7238,-6.7807,-6.8106,-6.8106,-6.8704,-6.7217,-6.3529,-6.0718,-5.9439,-5.9633,-6.0261,-6.109,-6.1994,-6.2094,-6.2395,-6.2873,-6.345,-6.4002,-6.453,-6.5082,-6.5634,-6.6112,-6.6112,-6.6112,-6.6112,-6.6112,-6.6112,-6.6112,-6.6187,-6.6564,-6.7091,-6.7719,-6.6718,-6.4734,-6.238,-6.0354,-5.8398,-5.5532,-5.5351,-5.5957,-5.6015,-5.6308,-5.6582,-5.6582,-5.6621,-5.6797,-5.7207,-5.7969,-5.8652,-5.9121,-5.918,-5.918,-5.918,-5.959,-6.0039,-6.039,-6.0859,-6.1308,-6.166,-5.8806,-5.5623,-5.2245,-4.908,-4.5654,-4.2458,-4.2218,-4.2218,-4.2218,-4.2218,-4.2218,-4.2218,-4.2218,-4.2218,-4.2218,-4.2218,-4.2218,-4.2218,-4.1685,-4.1445,-4.7056,-5.2706,-5.8524,-6.3768,-6.6136,-6.7793,-7.0161,-7.0939,-7.1481,-7.2631,-7.3138,0.0,0.0,0.0,0.0,0.0,0.0,0.0,0.0,0.0,-7.2388,-7.1529,-6.9547,-6.7879,-6.7091,-6.6999,-6.6999,-6.6999,-6.6999,-6.6999,-6.6999,-6.6999,-6.6999,-6.6999,-6.7268,-6.7418,-6.7418,-6.7717,-6.6125,-6.2784,-5.9972,-5.883,-5.9081,-5.9608,-6.0462,-6.1567,-6.1868,-6.232,-6.2847,-6.3099,-6.3525,-6.4078,-6.463,-6.5157,-6.5685,-6.5986,-6.6112,-6.6112,-6.6112,-6.6112,-6.6112,-6.6112,-6.6287,-6.6664,-6.7543,-6.6089,-6.3963,-6.2099,-5.9962,-5.7684,-5.5207,-5.4961,-5.5351,-5.582,-5.6074,-5.6289,-5.6523,-5.6582,-5.6777,-5.7441,-5.8086,-5.8652,-5.9121,-5.918,-5.918,-5.918,-5.9531,-5.998,-6.0371,-6.0801,-6.0516,-5.9222,-5.6137,-5.2714,-4.9541,-4.6123,-4.3691,-4.2231,-4.2218,-4.2218,-4.2218,-4.2218,-4.2218,-4.2218,-4.2218,-4.2218,-4.2218,-4.2218,-4.2218,-4.2218,-4.2218,-4.2218,-4.7902,-5.2266,-5.6089,-6.1298,-6.3903,-6.5831,-6.8436,0.0,-7.0297,0.0,0.0,0.0,0.0,0.0,0.0,0.0,0.0,0.0,0.0,0.0,-7.3225,-7.2036,-7.0312,-6.8766,-6.7668,-6.7213,-6.6999,-6.6999,-6.6999,-6.6999,-6.6999,-6.6999,-6.6999,-6.6999,-6.6999,-6.6999,-6.6999,-6.6044,-6.4598,-6.237,-5.9558,-5.8453,-5.873,-5.9131,-5.991,-6.0989,-6.1542,-6.2119,-6.2621,-6.2772,-6.3174,-6.3751,-6.4254,-6.4806,-6.5358,-6.5911,-6.6112,-6.6112,-6.6112,-6.6112,-6.6112,-6.6112,-6.6112,-6.6312,-6.7442,-6.5893,-6.3656,-6.2031,-5.9832,-5.7414,-5.501,-5.459,-5.4863,-5.5605,-5.5859,-5.6055,-5.6484,-5.6582,-5.6836,-5.7695,-5.8144,-5.8535,-5.9062,-5.918,-5.918,-5.918,-5.9473,-5.9863,-6.0371,-6.0723,-5.9936,-5.7274,-5.394,-5.0766,-4.7351,-4.4166,-4.2218,-4.2218,-4.2218,-4.2218,-4.2218,-4.2218,-4.2218,-4.2218,-4.2218,-4.2218,-4.2218,-4.2218,-4.2218,-4.2218,-4.2218,-4.2218,-4.435,-4.7665,-5.0676,-5.5919,-6.0452,-6.4038,0.0,0.0,0.0,0.0,0.0,0.0,0.0,0.0,0.0,0.0,0.0,0.0,0.0,0.0,-7.3566,-7.3464,-7.0949,-6.9201,-6.9085,-6.7879,-6.6999,-6.6999,-6.6999,-6.6999,-6.6999,-6.6999,-6.6999,-6.6999,-6.6999,-6.6999,-6.6999,-6.3606,-6.2034,-6.237,-5.873,-5.7675,-5.873,-5.8755,-5.9357,-6.0387,-6.0964,-6.1542,-6.2094,-6.2621,-6.3174,-6.3751,-6.4254,-6.4806,-6.5358,-6.5911,-6.6112,-6.6112,-6.6112,-6.6112,-6.6112,-6.6112,-6.6112,-6.6312,-6.7442,-6.5893,-6.3656,-6.2031,-5.9832,-5.7331,-5.4635,-5.4375,-5.4805,-5.5234,-5.5644,-5.6055,-5.6484,-5.6582,-5.6836,-5.7695,-5.7871,-5.8164,-5.9023,-5.918,-5.918,-5.918,-5.918,-5.9512,-6.0332,-6.0449,-5.9591,-5.7256,-5.394,-5.0766,-4.7351,-4.4166,-4.2218,-4.2218,-4.2218,-4.2218,-4.2218,-4.2218,-4.2218,-4.2218,-4.2218,-4.2218,-4.2218,-4.2218,-4.2218,-4.2218,-4.2218,-4.2218,-4.2117,-4.55,-4.9221,-5.301,-5.6968,-6.0554,-6.3024,-6.5696,0.0,0.0,0.0,0.0,0.0,0.0,0.0,0.0,0.0,0.0,0.0,0.0,-7.4103,-7.3635,-7.1821,-7.0199,-6.9317,-6.7879,-6.6999,-6.6999,-6.6999,-6.6999,-6.6999,-6.6999,-6.6999,-6.6999,-6.6999,-6.6446,-6.5232,-6.2821,-6.1165,-6.0173,-5.7943,-5.7449,-5.8202,-5.8554,-5.9106,-5.9834,-6.0387,-6.114,-6.2044,-6.2596,-6.2948,-6.3224,-6.4128,-6.458,-6.4881,-6.5785,-6.6112,-6.6112,-6.6112,-6.6112,-6.6112,-6.6112,-6.6112,-6.6312,-6.7442,-6.5893,-6.3656,-6.2031,-5.9832,-5.7331,-5.4615,-5.4355,-5.4863,-5.5547,-5.6035,-5.6406,-5.6543,-5.6797,-5.7168,-5.7754,-5.8086,-5.8476,-5.9062,-5.918,-5.918,-5.918,-5.918,-5.9473,-6.0332,-5.8556,-5.6437,-5.4112,-5.0766,-4.7583,-4.4152,-4.2963,-4.2218,-4.2218,-4.2218,-4.2218,-4.2218,-4.2218,-4.2218,-4.2218,-4.2218,-4.2218,-4.2218,-4.2218,-4.2218,-4.2218,-4.2218,-4.2218,-4.0002,-4.2997,-4.6921,-5.0676,-5.3281,-5.6156,-6.0926,0.0,0.0,0.0,0.0,0.0,0.0,0.0,0.0,0.0,0.0,0.0,0.0,0.0,-7.3884,-7.3043,-7.1763,-7.0489,-6.8976,-6.7727,-6.6999,-6.6999,-6.6999,0.0,-6.6999,-6.6999,-6.6999,-6.6999,-6.6999,-6.6168,-6.4281,-6.2529,-6.0648,-5.8929,-5.7397,-5.7148,-5.7901,-5.8278,-5.883,-5.9533,-6.0085,-6.0864,-6.1768,-6.232,-6.2672,-6.2948,-6.4028,-6.4454,-6.4605,-6.571,-6.6112,-6.6112,-6.6112,-6.6112,-6.6112,-6.6112,-6.6112,-6.6312,-6.7442,-6.6656,-6.4981,-6.3381,-6.117,-5.8676,-5.5971,-5.5049,-5.5058,-5.5762,-5.6269,-5.6582,-5.6582,-5.6914,-5.7344,-5.7793,-5.8203,-5.8652,-5.9121,-5.918,-5.918,-5.918,-5.9297,-5.9648,-6.0332,-5.7706,-5.4916,-5.2179,-4.9049,-4.5874,-4.2471,-4.2218,-4.2218,-4.2218,-4.2218,-4.2218,-4.2218,-4.2218,-4.2218,-4.2218,-4.2218,-4.2218,-4.2218,-4.2218,-4.2218,-4.2218,-4.2218,-4.2218,0.0,0.0,0.0,-4.864,-4.939,-5.1048,-5.9066,0.0,0.0,0.0,0.0,0.0,0.0,0.0,0.0,0.0,0.0,0.0,0.0,0.0,-7.2942,-7.1622,-7.0759,-6.9759,-6.8262,-6.7454,-6.6969,-6.6969,-6.6969,-6.6999,-6.6999,-6.6999,-6.6999,-6.6999,-6.6999,-6.6044,-6.4281,-6.2529,-6.0648,-5.8763,-5.7014,-5.6796,-5.7901,-5.7901,-5.8478,-5.9533,-6.006,-6.0613,-6.119,-6.1768,-6.2345,-6.2948,-6.4028,-6.4454,-6.4605,-6.571,-6.6112,-6.6112,-6.6112,-6.6112,-6.6112,-6.6112,-6.6112,-6.6312,-6.7442,-6.7794,-6.7463,-6.6063,-6.387,-6.117,-5.8521,-5.666,-5.541,-5.584,-5.6269,-5.6582,-5.6582,-5.6933,-5.7363,-5.7793,-5.8242,-5.8711,-5.9121,-5.918,-5.918,-5.918,-5.9531,-5.998,-6.0371,-5.7911,-5.4961,-5.2212,-4.9065,-4.5639,-4.2471,-4.2218,-4.2218,-4.2218,-4.2218,-4.2218,-4.2218,-4.2218,-4.2218,-4.2218,-4.2218,-4.2218,-4.2218,-4.2218,-4.2218,-4.2218,-4.2218,-4.2218,-4.013,0.0,0.0,0.0,0.0,0.0,0.0,0.0,0.0,0.0,0.0,0.0,0.0,0.0,0.0,0.0,0.0,0.0,0.0,0.0,-7.2371,-7.1589,-7.0306,-6.9028,-6.7629,-6.6755,-6.6281,0.0,-6.6729,-6.6999,-6.6999,-6.6999,-6.6999,-6.6999,-6.6999,-6.5513,-6.2396,-6.1864,-5.9989,-5.6895,-5.6485,-5.6796,-5.7901,-5.7901,-5.8478,-5.9508,-5.9659,-6.0035,-6.0638,-6.1592,-6.2345,-6.2948,-6.4028,-6.4454,-6.4605,-6.571,-6.6112,-6.6112,-6.6112,-6.6112,-6.6112,-6.6112,-6.6112,-6.6312,-6.7442,-6.7794,-6.7463,-6.6063,-6.5024,-6.3653,-5.9905,-5.7105,-5.5488,-5.623,-5.6504,-5.6582,-5.6582,-5.7168,-5.7715,-5.7851,-5.8496,-5.9062,-5.918,-5.918,-5.918,-5.918,-5.9531,-5.998,-6.0371,-5.5788,-5.2553,-5.1969,-4.6855,-4.3188,-4.2231,-4.2218,-4.2218,-4.2218,-4.2218,-4.2218,-4.2218,-4.2218,-4.2218,-4.2218,-4.2218,-4.2218,-4.2218,-4.2218,-4.2218,-4.2218,-4.2218,-4.2218,-4.1736,-4.2811,-4.4375,-4.4795,0.0,0.0,-5.0154,-5.1799,0.0,0.0,0.0,0.0,0.0,0.0,0.0,0.0,0.0,0.0,0.0,0.0,0.0,-6.9777,-6.8668,-6.7465,-6.5963,-6.5736,-6.5592,-6.5592,-6.6191,-6.67,-6.6969,-6.6999,-6.6999,-6.6999,-6.6999,-6.5232,-6.1595,-6.1595,-5.9712,-5.6219,-5.6219,-5.6796,-5.7901,-5.7901,-5.8478,-5.9483,-5.9483,-5.9809,-6.0387,-6.1291,-6.1994,-6.2621,-6.3952,-6.4454,-6.4605,-6.571,-6.6112,-6.6112,-6.6112,-6.6112,-6.6112,-6.6112,-6.6112,-6.6312,-6.7442,-6.7794,-6.7665,-6.7213,-6.5584,-6.3317,-6.0026,-5.7288,-5.5527,-5.6387,-5.6582,-5.6582,-5.6582,-5.7265,-5.7871,-5.7871,-5.8555,-5.918,-5.918,-5.918,-5.918,-5.918,-5.9687,-5.9662,-5.8499,-5.4478,-5.1286,-5.0016,-4.5418,-4.2218,-4.2218,-4.2218,-4.2218,-4.2218,-4.2218,-4.2218,-4.2218,-4.2218,-4.2218,-4.2218,-4.2218,-4.2218,-4.2218,-4.2218,-4.2218,-4.2218,-4.2218,-4.2218,-4.3519,-4.385,-4.5427,-4.7855,-4.6117,0.0,-5.2518,-5.2339,-5.2062,0.0,0.0,0.0,0.0,0.0,0.0,0.0,0.0,0.0,0.0,0.0,0.0,-6.6876,-6.6255,-6.5411,-6.3884,-6.4425,-6.4844,-6.4904,-6.5533,-6.6191,-6.6849,-6.6879,-6.6909,-6.6999,-6.6999,-6.5232,-6.1595,-6.1595,-5.9712,-5.6219,-5.6219,-5.6771,-5.7801,-5.7876,-5.8453,-5.9408,-5.9458,-5.9784,-6.0286,-6.0914,-6.1517,-6.2169,-6.3751,-6.4404,-6.458,-6.5634,-6.6061,-6.6112,-6.6112,-6.6112,-6.6112,-6.6112,-6.6112,-6.6312,-6.7442,-6.7794,-6.802,-6.9125,-6.5584,-6.1392,-6.0026,-5.7494,-5.5527,-5.6387,-5.6582,-5.6582,-5.6582,-5.7265,-5.7871,-5.7871,-5.8555,-5.918,-5.918,-5.918,-5.918,-5.918,-5.9922,-5.9265,-5.5913,-5.3461,-5.0782,-4.7568,-4.418,-4.2218,-4.2218,-4.2218,-4.2218,-4.2218,-4.2218,-4.2218,-4.2218,-4.2218,-4.2218,-4.2218,-4.2218,-4.2218,-4.2218,-4.2218,-4.2218,-4.2218,-4.2218,-4.2218,-4.8258,-4.8478,-4.8496,-4.7155,-4.7895,0.0,-4.5952,-4.7054,-4.9014,0.0,0.0,0.0,0.0,0.0,0.0,0.0,0.0,0.0,0.0,0.0,0.0,0.0,-6.4713,-6.4507,-6.2618,-6.3079,-6.3647,-6.4156,-6.4844,-6.5503,-6.6161,-6.6191,-6.643,-6.6969,-6.6999,-6.5232,-6.1595,-6.1595,-5.9712,-5.6219,-5.6219,-5.657,-5.7223,-5.7675,-5.8252,-5.8905,-5.9307,-5.9558,-5.9734,-6.0763,-6.1517,-6.2119,-6.3375,-6.4103,-6.4555,-6.5208,-6.5735,-6.6112,-6.6112,-6.6112,-6.6112,-6.6112,-6.6112,-6.6312,-6.7442,-6.7794,-6.802,-6.9125,-6.5584,-6.178,-6.2172,-5.8864,-5.5527,-5.6387,-5.6582,-5.6582,-5.6582,-5.7265,-5.7871,-5.7871,-5.8555,-5.918,-5.918,-5.918,-5.918,-5.918,-5.9922,-5.9265,-5.5913,-5.3461,-5.0782,-4.7568,-4.418,-4.2218,-4.2218,-4.2218,-4.2218,-4.2218,-4.2218,-4.2218,-4.2218,-4.2218,-4.2218,-4.2218,-4.2218,-4.2218,-4.2218,-4.2218,-4.2218,-4.2218,-4.2218,-4.2218,-4.9921,-4.9651,-4.9742,-4.9779,-4.9531,0.0,0.0,-4.7665,-4.7928,-5.0495,0.0,0.0,0.0,0.0,0.0,0.0,0.0,0.0,0.0,0.0,0.0,0.0,-6.2768,-6.2226,-6.1156,-6.1702,-6.251,-6.3468,-6.4156,-6.4814,-6.5473,-6.5533,-6.5832,-6.649,-6.5571,-6.3964,-6.1595,-6.0648,-5.8903,-5.6219,-5.6219,-5.6495,-5.7047,-5.7625,-5.8202,-5.8755,-5.9282,-5.9483,-5.9583,-6.0713,-6.1341,-6.1743,-6.3149,-6.4002,-6.453,-6.5082,-6.5634,-6.6112,-6.6112,-6.6112,-6.6112,-6.6112,-6.6112,-6.6312,-6.7442,-6.8196,-6.8748,-6.93,-6.5584,-6.1973,-6.274,-5.9271,-5.5527,-5.6387,-5.6582,-5.6582,-5.6582,-5.7265,-5.7871,-5.7871,-5.8555,-5.918,-5.918,-5.918,-5.918,-5.918,-5.8482,-5.6862,-5.3517,-5.104,-4.834,-4.4904,-4.3188,-4.2218,-4.2218,-4.2218,-4.2218,-4.2218,-4.2218,-4.2218,-4.2218,-4.2218,-4.2218,-4.2218,-4.2218,-4.2218,-4.2218,-4.2218,-4.2218,-4.2218,-4.2218,-4.2218,-5.1793,-5.1389,-5.1867,-5.2931,-5.1793,-5.068,0.0,0.0,0.0,-5.1106,-4.9468,0.0,0.0,0.0,0.0,0.0,0.0,0.0,0.0,0.0,0.0,0.0,-6.0586,-5.9834,-5.9891,-5.9897,-6.0745,-6.257,-6.269,-6.3258,-6.4575,-6.4755,-6.5144,-6.5802,-6.4487,-6.3051,-6.143,-6.0073,-5.8366,-5.6219,-5.6219,-5.6445,-5.6897,-5.76,-5.8152,-5.8604,-5.9232,-5.9483,-5.9583,-6.0713,-6.119,-6.1341,-6.2923,-6.3927,-6.453,-6.4982,-6.5534,-6.6112,-6.6112,-6.6112,-6.6112,-6.6112,-6.6262,-6.6614,-6.7518,-6.8572,-6.9451,-6.9451,-6.5584,-6.1973,-6.274,-5.9271,-5.5527,-5.6387,-5.6582,-5.6582,-5.6582,-5.7265,-5.7871,-5.7871,-5.8555,-5.918,-5.918,-5.918,-5.918,-5.918,-5.7091,-5.4457,-5.1117,-4.8613,-4.5889,-4.2444,-4.2218,-4.2218,-4.2218,-4.2218,-4.2218,-4.2218,-4.2218,-4.2218,-4.2218,-4.2218,-4.2218,-4.2218,-4.2218,-4.2218,-4.2218,-4.2218,-4.2218,-4.2218,-4.2218,-4.2218,-5.7299,-5.807,-5.8217,-5.4216,-5.5611,-5.6153,-4.9325,0.0,-4.9647,-4.6684,0.0,0.0,0.0,0.0,0.0,0.0,0.0,0.0,0.0,0.0,0.0,-5.6846,-5.8228,-5.8971,-5.8955,-5.7051,-5.7393,-6.1074,-5.9189,-5.9458,-6.3109,-6.3827,-6.4425,-6.5114,-6.5441,-6.4047,-6.0794,-6.1079,-5.9574,-5.6219,-5.6219,-5.6244,-5.6344,-5.7399,-5.7926,-5.8052,-5.9056,-5.9483,-5.9583,-6.0713,-6.119,-6.1291,-6.2471,-6.355,-6.4479,-6.453,-6.5208,-6.6112,-6.6112,-6.6112,-6.6112,-6.6112,-6.6789,-6.7643,-6.7769,-6.8572,-6.9451,-6.9451,-6.5584,-6.1973,-6.274,-5.9271,-5.5527,-5.6387,-5.6582,-5.6582,-5.6582,-5.7265,-5.7871,-5.7871,-5.8555,-5.918,-5.918,-5.918,-5.918,-5.918,-5.7091,-5.4457,-5.1117,-4.8613,-4.5889,-4.2444,-4.2218,-4.2218,-4.2218,-4.2218,-4.2218,-4.2218,-4.2218,-4.2218,-4.2218,-4.2218,-4.2218,-4.2218,-4.2218,-4.2218,-4.2218,-4.2218,-4.2218,-4.2218,-4.2218,-4.2218,-5.7666,-5.8474,-5.8988,-5.6051,-5.6198,-5.5868,-5.1059,-4.9081,-4.8047,-4.7394,0.0,0.0,0.0,0.0,0.0,0.0,-4.6887,0.0,0.0,0.0,0.0,0.0,0.0,0.0,-5.4861,-5.4398,-5.5209,-5.8022,-5.7184,-5.7962,-6.1164,-6.2331,-6.3378,-6.4395,-6.4032,-6.2859,-6.0551,-6.0213,-5.8789,-5.6219,-5.6219,-5.6219,-5.6244,-5.7374,-5.7901,-5.7951,-5.9031,-5.9483,-5.9583,-6.0713,-6.119,-6.1316,-6.2772,-6.3802,-6.4505,-6.4831,-6.5434,-6.6112,-6.6112,-6.6112,-6.6112,-6.6112,-6.689,-6.7794,-6.7794,-6.8572,-6.9451,-6.9451,-6.5822,-6.2331,-6.283,-5.9256,-5.582,-5.6445,-5.6582,-5.666,-5.6894,-5.7422,-5.793,-5.8203,-5.8769,-5.918,-5.918,-5.918,-5.9238,-5.9512,-5.5551,-5.2422,-5.1193,-4.705,-4.3691,-4.2458,-4.2218,-4.2218,-4.2218,-4.2218,-4.2218,-4.2218,-4.2218,-4.2218,-4.2218,-4.2218,-4.2218,-4.2218,-4.2218,-4.2218,-4.2218,-4.2218,-4.2218,-4.2218,-4.2218,-4.2218,-5.8914,-5.9648,-6.0162,-5.7226,-5.6198,-5.506,-5.172,-4.9528,-4.8258,-4.86,-4.7307,0.0,0.0,0.0,-4.4079,-4.479,0.0,-4.6244,0.0,-4.7056,0.0,0.0,0.0,0.0,0.0,-5.099,-5.2037,-5.5119,-5.4521,-5.5628,-5.9338,-6.0805,-6.2121,-6.3438,-6.3201,-6.2108,-6.0303,-5.9886,-5.8507,-5.6219,-5.6219,-5.6219,-5.6244,-5.7374,-5.7901,-5.7951,-5.9031,-5.9583,-5.9784,-6.0788,-6.1266,-6.1567,-6.3249,-6.4128,-6.453,-6.5082,-6.5634,-6.6112,-6.6112,-6.6112,-6.6112,-6.6112,-6.689,-6.7794,-6.7794,-6.8572,-6.9451,-6.9451,-6.5965,-6.2405,-6.2874,-5.9402,-5.6055,-5.6484,-5.6582,-5.6699,-5.7129,-5.7558,-5.7988,-5.8418,-5.8887,-5.918,-5.918,-5.918,-5.9355,-5.9746,-5.4694,-5.0789,-5.1167,-4.5948,-4.2218,-4.2218,-4.2218,-4.2218,-4.2218,-4.2218,-4.2218,-4.2218,-4.2218,-4.2218,-4.2218,-4.2218,-4.2218,-4.2218,-4.2218,-4.2218,-4.2218,-4.2218,-4.2218,-4.2218,-4.2218,-4.2218,-6.3062,-6.3833,-6.3576,-5.7226,-5.6198,-5.5317,-4.9701,-5.0762,-5.2186,-4.9266,-5.1086,-5.2298,-4.9392,-4.8274,-4.7293,-4.5906,-4.5703,0.0,0.0,0.0,0.0,0.0,0.0,0.0,0.0,-4.6471,-4.701,0.0,-5.0331,-5.1349,-5.7842,-5.9428,-6.0775,-6.2121,-6.3889,-6.3211,-5.9697,-6.0882,-5.9712,-5.6219,-5.6219,-5.6219,-5.6244,-5.7374,-5.7901,-5.7951,-5.9031,-5.9809,-6.0337,-6.0939,-6.1492,-6.2144,-6.3802,-6.4454,-6.453,-6.5082,-6.5634,-6.6112,-6.6112,-6.6112,-6.6112,-6.6112,-6.689,-6.7794,-6.7794,-6.8572,-6.9451,-6.9451,-6.5965,-6.2405,-6.2874,-5.9402,-5.6055,-5.6484,-5.6582,-5.6699,-5.7129,-5.7558,-5.7988,-5.8418,-5.8887,-5.918,-5.918,-5.918,-5.9355,-5.9746,-5.4694,-5.0789,-5.1167,-4.5948,-4.2218,-4.2218,-4.2218,-4.2218,-4.2218,-4.2218,-4.2218,-4.2218,-4.2218,-4.2218,-4.2218,-4.2218,-4.2218,-4.2218,-4.2218,-4.2218,-4.2218,-4.2218,-4.2218,-4.2218,-4.2218,-4.2218,-6.5411,-6.6843,-6.7026,-6.1043,-5.9355,-5.7703,-5.205,-5.2417,-5.2951,-4.9457,-5.2101,-5.3833,-4.9752,-4.8787,-4.8026,-4.6055,-4.5703,-4.4756,0.0,-4.0481,0.0,0.0,0.0,0.0,0.0,0.0,0.0,0.0,-4.9314,0.0,-5.5927,-5.8261,-6.0057,-6.1403,-6.3767,-6.3852,-6.1373,-6.1546,-6.0401,-5.7966,-5.675,-5.6219,-5.6244,-5.7374,-5.7901,-5.7951,-5.9031,-5.9809,-6.0362,-6.0939,-6.1517,-6.2169,-6.3827,-6.4454,-6.458,-6.5484,-6.5961,-6.6112,-6.6112,-6.6112,-6.6112,-6.6112,-6.689,-6.7794,-6.7794,-6.8572,-6.9451,-6.9451,-6.6203,-6.2807,-6.2964,-5.9632,-5.6406,-5.6543,-5.6582,-5.6699,-5.7129,-5.7558,-5.7988,-5.8418,-5.8887,-5.918,-5.918,-5.9414,-5.9746,-6.0156,-5.4854,-5.0887,-5.1738,-4.6079,-4.2218,-4.2218,-4.2218,-4.2218,-4.2218,-4.2218,-4.2218,-4.2218,-4.2218,-4.2218,-4.2218,-4.2218,-4.2218,-4.2218,-4.2218,-4.2218,-4.2218,-4.2218,-4.2218,-4.2218,-4.2218,-4.2218,-6.7063,-6.8274,-6.8531,-6.3686,-6.2108,-6.0309,-5.4913,-5.539,-5.6035,-5.2731,-5.4763,-5.6313,-5.3598,-5.1528,-4.9551,-4.7547,-4.6143,-4.4012,0.0,-3.951,-3.9456,-3.9904,0.0,-4.2869,0.0,-4.2791,-4.4257,-4.7668,-4.7459,0.0,0.0,-5.6645,-5.877,-6.0356,-6.2959,-6.3651,-6.2284,-6.2236,-6.1106,-5.8903,-5.7707,-5.6895,-5.6244,-5.7374,-5.7901,-5.7951,-5.9031,-5.9935,-6.0663,-6.104,-6.1617,-6.2446,-6.3902,-6.4454,-6.4605,-6.571,-6.6112,-6.6112,-6.6112,-6.6112,-6.6137,-6.6363,-6.7041,-6.7844,-6.802,-6.8723,-6.9451,-6.9451,-6.6345,-6.3008,-6.3008,-5.9737,-5.6582,-5.6582,-5.6582,-5.6738,-5.7324,-5.7656,-5.8027,-5.8652,-5.9004,-5.918,-5.918,-5.9414,-5.9294,-5.8691,-5.4363,-5.0828,-5.0229,-4.5668,-4.2218,-4.2218,-4.2218,-4.2218,-4.2218,-4.2218,-4.2218,-4.2218,-4.2218,-4.2218,-4.2218,-4.2218,-4.2218,-4.2218,-4.2218,-4.2218,-4.2218,-4.2218,-4.2218,-4.2218,-4.2218,-4.2218]}]]